[[{"header":{"parameterUnit":"m.s-1","parameterCategory":1,"la1":31.0,"la2":29.5877,"lo1":-88.7671,"lo2":-86.6584,"dy":0.0162,"dx":0.0185,"nx":115,"ny":88,"refTime":"2023-10-20T06:00:00:Z","depth":0,"parameterNumber":2,"parameterNumberName":"U-component_of_WINDS"},"data":[0.0,0.0,0.0,0.0,0.0,0.0,0.0,0.0,0.0,0.0,0.0,0.0,0.0,0.0,0.0,0.0,0.0,0.0,0.0,0.0,0.0,0.0,0.0,0.0,0.0,0.0,0.0,0.0,0.0,0.0,0.0,0.0,0.0,0.0,0.0,0.0,0.0,0.0,0.0,0.0,0.0,0.0,0.0,0.0,0.0,0.0,0.0,0.0,0.0,0.0,0.0,0.0,0.0,0.0,0.0,0.0,0.0,0.0,0.0,0.0,0.0,0.0,0.0,0.0,0.0,0.0,0.0,0.0,0.0,0.0,0.0,0.0,0.0,0.0,0.0,0.0,0.0,0.0,0.0,0.0,0.0,0.0,0.0,0.0,0.0,0.0,0.0,0.0,0.0,0.0,0.0,0.0,0.0,0.0,0.0,0.0,0.0,0.0,0.0,0.0,0.0,0.0,0.0,0.0,0.0,0.0,0.0,0.0,0.0,0.0,0.0,0.0,0.0,0.0,0.0,0.0,0.0,0.0,0.0,0.0,0.0,0.0,0.0,0.0,0.0,0.0,0.0,0.0,0.0,0.0,0.0,0.0,0.0,0.0,0.0,0.0,0.0,0.0,0.0,0.0,0.0,0.0,0.0,0.0,0.0,0.0,0.0,0.0,0.0,0.0,0.0,0.0,0.0,0.0,0.0,0.0,0.0,0.0,0.0,0.0,0.0,0.0,0.0,0.0,0.0,0.0,0.0,0.0,0.0,0.0,0.0,0.0,0.0,0.0,0.0,0.0,0.0,0.0,0.0,0.0,0.0,0.0,0.0,0.0,0.0,0.0,0.0,0.0,0.0,0.0,0.0,0.0,0.0,0.0,0.0,0.0,0.0,0.0,0.0,0.0,0.0,0.0,0.0,0.0,0.0,0.0,0.0,0.0,0.0,0.0,0.0,0.0,0.0,0.0,0.0,0.0,0.0,0.0,0.0,0.0,0.0,0.0,0.0,0.0,0.0,0.0,0.0,0.0,0.0,0.0,0.0,0.0,0.0,0.0,0.0,0.0,0.0,0.0,0.0,0.0,0.0,0.0,0.0,0.0,0.0,0.0,0.0,0.0,0.0,0.0,0.0,0.0,0.0,0.0,0.0,0.0,0.0,0.0,0.0,0.0,0.0,0.0,0.0,0.0,0.0,0.0,0.0,0.0,0.0,0.0,0.0,0.0,0.0,0.0,0.0,0.0,0.0,0.0,0.0,0.0,0.0,0.0,0.0,0.0,0.0,0.0,0.0,0.0,0.0,0.0,0.0,0.0,0.0,0.0,0.0,0.0,0.0,0.0,0.0,0.0,0.0,0.0,0.0,0.0,0.0,0.0,0.0,0.0,0.0,0.0,0.0,0.0,0.0,0.0,0.0,0.0,0.0,0.0,0.0,0.0,0.0,0.0,0.0,0.0,0.0,0.0,0.0,0.0,0.0,0.0,0.0,0.0,0.0,0.0,0.0,0.0,0.0,0.0,0.0,0.0,0.0,0.0,0.0,0.0,0.0,0.0,0.0,0.0,0.0,0.0,0.0,0.0,0.0,0.0,0.0,0.0,0.0,0.0,0.0,0.0,0.0,0.0,0.0,0.0,0.0,0.0,0.0,0.0,0.0,0.0,0.0,0.0,0.0,0.0,0.0,0.0,0.0,0.0,0.0,0.0,0.0,0.0,0.0,0.0,0.0,0.0,0.0,0.0,0.0,0.0,0.0,0.0,0.0,0.0,0.0,0.0,0.0,0.0,0.0,0.0,0.0,0.0,0.0,0.0,0.0,0.0,0.0,0.0,0.0,0.0,0.0,0.0,0.0,0.0,0.0,0.0,0.0,0.0,0.0,0.0,0.0,0.0,0.0,0.0,0.0,0.0,0.0,0.0,0.0,0.0,0.0,0.0,0.0,0.0,0.0,0.0,0.0,0.0,0.0,0.0,0.0,0.0,0.0,0.0,0.0,0.0,0.0,0.0,0.0,0.0,0.0,0.0,0.0,0.0,0.0,0.0,0.0,0.0,0.0,0.0,0.0,0.0,0.0,0.0,0.0,0.0,0.0,0.0,0.0,0.0,0.0,0.0,0.0,0.0,0.0,0.0,0.0,0.0,0.0,0.0,0.0,0.0,0.0,0.0,0.0,0.0,0.0,0.0,0.0,0.0,0.0,0.0,0.0,0.0,0.0,0.0,0.0,0.0,0.0,0.0,0.0,0.0,0.0,0.0,0.0,0.0,0.0,0.0,0.0,0.0,0.0,0.0,0.0,0.0,0.0,0.0,0.0,0.0,0.0,0.0,0.0,0.0,0.0,0.0,0.0,0.0,0.0,0.0,0.0,0.0,0.0,0.0,0.0,0.0,0.0,0.0,0.0,0.0,0.0,0.0,0.0,0.0,0.0,0.0,0.0,0.0,0.0,0.0,0.0,0.0,0.0,0.0,0.0,0.0,0.0,0.0,0.0,0.0,0.0,0.0,0.0,0.0,0.0,0.0,0.0,0.0,0.0,0.0,0.0,0.0,0.0,0.0,0.0,0.0,0.0,0.0,0.0,0.0,0.0,0.0,0.0,0.0,0.0,0.0,0.0,0.0,0.0,0.0,0.0,0.0,0.0,0.0,0.0,0.0,0.0,0.0,0.0,0.0,0.0,0.0,0.0,0.0,0.0,0.0,0.0,0.0,0.0,0.0,0.0,0.0,0.0,0.0,0.0,0.0,0.0,0.0,0.0,0.0,0.0,0.0,0.0,0.0,0.0,0.0,0.0,0.0,0.0,0.0,0.0,0.0,0.0,0.0,0.0,0.0,0.0,0.0,0.0,0.0,0.0,0.0,0.0,0.0,0.0,0.0,0.0,0.0,0.0,0.0,0.0,0.0,0.0,0.0,0.0,0.0,0.0,0.0,0.0,0.0,0.0,0.0,0.0,0.0,0.0,0.0,0.0,0.0,0.0,0.0,0.0,0.0,0.0,0.0,0.0,0.0,0.0,0.0,0.0,0.0,0.0,0.0,0.0,0.0,0.0,0.0,0.0,0.0,0.0,0.0,0.0,0.0,0.0,0.0,0.0,0.0,0.0,0.0,0.0,0.0,0.0,0.0,0.0,0.0,0.0,0.0,0.0,0.0,0.0,0.0,0.0,0.0,0.0,0.0,0.0,0.0,0.0,0.0,0.0,0.0,0.0,0.0,0.0,0.0,0.0,0.0,0.0,0.0,0.0,0.0,0.0,0.0,0.0,0.0,0.0,0.0,0.0,0.0,0.0,0.0,0.0,0.0,0.0,0.0,0.0,0.0,0.0,0.0,0.0,0.0,0.0,0.0,0.0,0.0,0.0,0.0,0.0,0.0,0.0,0.0,0.0,0.0,0.0,0.0,0.0,0.0,0.0,0.0,0.0,0.0,0.0,0.0,0.0,0.0,0.0,0.0,0.0,0.0,0.0,0.0,0.0,0.0,0.0,0.0,0.0,0.0,0.0,0.0,0.0,0.0,0.0,0.0,0.0,0.0,0.0,0.0,0.0,0.0,0.0,0.0,0.0,0.0,0.0,0.0,0.0,0.0,0.0,0.0,0.0,0.0,0.0,0.0,0.0,0.0,0.0,0.0,0.0,0.0,0.0,0.0,0.0,0.0,0.0,0.0,0.0,0.0,0.0,0.0,0.0,0.0,0.0,0.0,0.0,0.0,0.0,0.0,0.0,0.0,0.0,0.0,0.0,0.0,0.0,0.0,0.0,0.0,0.0,0.0,0.0,0.0,0.0,0.0,0.0,0.0,0.0,0.0,0.0,0.0,0.0,0.0,0.0,0.0,0.0,0.0,0.0,0.0,0.0,0.0,0.0,0.0,0.0,0.0,0.0,0.0,0.0,0.0,0.0,0.0,0.0,0.0,0.0,0.0,0.0,0.0,0.0,0.0,0.0,0.0,0.0,0.0,0.0,0.0,0.0,0.0,0.0,0.0,0.0,0.0,0.0,0.0,0.0,0.0,0.0,0.0,0.0,0.0,0.0,0.0,0.0,0.0,0.0,0.0,0.0,0.0,0.0,0.0,0.0,0.0,0.0,0.0,0.0,0.0,0.0,0.0,0.0,0.0,0.0,0.0,0.0,0.0,0.0,0.0,0.0,0.0,0.0,0.0,0.0,0.0,0.0,0.0,0.0,0.0,0.0,0.0,0.0,0.0,0.0,0.0,0.0,0.0,0.0,0.0,0.0,0.0,0.0,0.0,0.0,0.0,0.0,0.0,0.0,0.0,0.0,0.0,0.0,0.0,0.0,0.0,1.6324,0.0,0.0,0.0,0.0,0.0,0.0,0.0,0.0,0.0,0.0,0.0,0.0,0.0,0.0,0.0,0.0,0.0,0.0,0.0,0.0,0.0,0.0,0.0,0.0,0.0,0.0,0.0,0.0,0.0,0.0,0.0,0.0,0.0,0.0,0.0,0.0,0.0,0.0,0.0,0.0,0.0,0.0,0.0,0.0,0.0,0.0,0.0,0.0,0.0,0.0,0.0,0.0,0.0,0.0,0.0,0.0,0.0,0.0,0.0,0.0,0.0,0.0,0.0,0.0,0.0,0.0,0.0,0.0,0.0,0.0,0.0,0.0,0.0,0.0,0.0,0.0,0.0,0.0,0.0,0.0,0.0,0.0,0.0,0.0,0.0,0.0,0.0,0.0,0.0,0.0,0.0,0.0,0.0,0.0,0.0,0.0,0.0,0.0,0.0,0.0,0.0,0.0,0.0,0.0,0.0,0.0,0.0,0.0,0.0,0.0,1.7067,1.6749,1.643,1.6111,1.5897,0.0,0.0,0.0,0.0,0.0,0.0,0.0,0.0,0.0,0.0,0.0,0.0,0.0,0.0,0.0,0.0,0.0,0.0,0.0,0.0,0.0,0.0,0.0,0.0,0.0,0.0,0.0,0.0,0.0,0.0,0.0,0.0,0.0,0.0,0.0,0.0,0.0,0.0,0.0,0.0,0.0,0.0,0.0,0.0,0.0,0.0,0.0,0.0,0.0,0.0,0.0,0.0,0.0,0.0,0.0,0.0,0.0,0.0,0.0,0.0,0.0,0.0,0.0,0.0,0.0,0.0,0.0,0.0,0.0,0.0,0.0,0.0,0.0,0.0,0.0,0.0,0.0,0.0,0.0,0.0,0.0,0.0,0.0,0.0,0.0,0.0,0.0,0.0,0.0,0.0,0.0,0.0,0.0,0.0,0.0,0.0,0.0,0.0,0.0,0.0,0.0,0.0,0.0,0.0,0.0,0.0,0.0,0.0,0.0,0.0,0.0,0.0,1.6111,1.5767,1.5175,0.0,0.0,0.0,0.0,0.0,0.0,0.0,0.0,0.0,0.0,0.0,0.0,0.0,0.0,0.0,0.0,0.0,0.0,0.0,0.0,0.0,0.0,0.0,0.0,0.0,0.0,0.0,0.0,0.0,0.0,0.0,0.0,0.0,0.0,0.0,0.0,0.0,0.0,0.0,0.0,0.0,0.0,0.0,0.0,0.0,0.0,0.0,0.0,0.0,0.0,0.0,0.0,0.0,0.0,0.0,0.0,0.0,0.0,0.0,0.0,0.0,0.0,0.0,0.0,0.0,0.0,0.0,0.0,0.0,0.0,0.0,0.0,0.0,0.0,0.0,0.0,0.0,0.0,0.0,0.0,0.0,0.0,0.0,0.0,0.0,0.0,0.0,0.0,0.0,0.0,0.0,0.0,0.0,0.0,0.0,0.0,0.0,0.0,0.0,0.0,0.0,0.0,0.0,0.0,0.0,0.0,0.0,0.0,0.0,0.0,1.6217,1.5885,1.5684,0.0,1.4079,0.0,0.0,0.0,0.0,0.0,0.0,0.0,0.0,0.0,0.0,0.0,0.0,0.0,0.0,0.0,0.0,0.0,0.0,0.0,0.0,0.0,0.0,0.0,0.0,0.0,0.0,0.0,0.0,0.0,0.0,0.0,0.0,0.0,0.0,0.0,0.0,0.0,0.0,0.0,0.0,0.0,0.0,0.0,0.0,0.0,0.0,0.0,0.0,0.0,0.0,0.0,0.0,0.0,0.0,0.0,0.0,0.0,0.0,0.0,0.0,0.0,0.0,0.0,0.0,0.0,0.0,0.0,0.0,0.0,0.0,0.0,0.0,0.0,0.0,0.0,0.0,0.0,0.0,0.0,0.0,0.0,0.0,0.0,0.0,0.0,0.0,0.0,0.0,0.0,0.0,0.0,0.0,0.0,0.0,0.0,0.0,0.0,0.0,0.0,0.0,0.0,0.0,0.0,0.0,0.0,0.0,0.0,0.0,0.0,0.0,1.5427,1.5219,1.4596,1.4134,0.0,0.0,0.0,0.0,0.0,0.0,0.0,0.0,0.0,0.0,0.0,0.0,0.0,0.0,0.0,0.0,0.0,0.0,0.0,0.0,0.0,0.0,0.0,0.0,0.0,0.0,0.0,0.0,0.0,0.0,0.0,0.0,0.0,0.0,0.0,0.0,0.0,0.0,0.0,0.0,0.0,0.0,0.0,0.0,0.0,0.0,0.0,0.0,0.0,0.0,0.0,0.0,0.0,0.0,0.0,0.0,0.0,0.0,0.0,0.0,0.0,0.0,0.0,0.0,0.0,0.0,0.0,0.0,0.0,0.0,0.0,0.0,0.0,0.0,0.0,0.0,0.0,0.0,0.0,0.0,0.0,0.0,0.0,0.0,0.0,0.0,0.0,0.0,0.0,0.0,0.0,0.0,0.0,0.0,0.0,0.0,0.0,0.0,0.0,0.0,0.0,0.0,0.0,0.0,0.0,0.0,0.0,0.0,0.0,0.0,1.5214,1.4796,1.4389,1.3507,1.3067,1.2965,0.0,0.0,0.0,0.0,0.0,0.0,0.0,0.0,0.0,0.0,0.0,0.0,0.0,0.0,0.0,0.0,0.0,0.0,0.0,0.0,0.0,0.0,0.0,0.0,0.0,0.0,0.0,0.0,0.0,0.0,0.0,0.0,0.0,0.0,0.0,0.0,0.0,0.0,0.0,0.0,0.0,0.0,0.0,0.0,0.0,0.0,0.0,0.0,0.0,0.0,0.0,0.0,0.0,0.0,0.0,0.0,0.0,0.0,0.0,0.0,0.0,0.0,0.0,0.0,0.0,0.0,0.0,0.0,0.0,0.0,0.0,0.0,0.0,0.0,0.0,0.0,0.0,0.0,0.0,0.0,0.0,0.0,0.0,0.0,0.0,0.0,0.0,0.0,0.0,0.0,0.0,0.0,0.0,0.0,0.0,0.0,0.0,0.0,0.0,0.0,0.0,0.0,0.0,0.0,0.0,0.0,0.0,0.0,1.5771,1.5113,1.4287,1.3561,1.2526,1.1913,0.0,0.0,0.0,0.0,0.0,0.0,0.0,0.0,0.0,0.0,0.0,0.0,0.0,0.0,0.0,0.0,0.0,0.0,0.0,0.0,0.0,0.0,0.0,0.0,0.0,0.0,0.0,0.0,0.0,0.0,0.0,0.0,0.0,0.0,0.0,0.0,0.0,0.0,0.0,0.0,0.0,0.0,0.0,0.0,0.0,0.0,0.0,0.0,0.0,0.0,0.0,0.0,0.0,0.0,0.0,0.0,0.0,0.0,0.0,0.0,0.0,0.0,0.0,0.0,0.0,0.0,0.0,0.0,0.0,0.0,0.0,0.0,0.0,0.0,0.0,0.0,0.0,0.0,0.0,0.0,0.0,0.0,0.0,0.0,0.0,0.0,0.0,0.0,0.0,0.0,0.0,0.0,0.0,0.0,0.0,0.0,0.0,0.0,0.0,0.0,0.0,0.0,0.0,0.0,0.0,0.0,0.0,0.0,0.0,1.4839,1.3929,1.3116,1.2323,1.1737,1.1302,0.0,0.0,0.0,0.0,0.0,0.0,0.0,0.0,0.0,0.0,0.0,0.0,0.0,0.0,0.0,0.0,0.0,0.0,0.0,0.0,0.0,0.0,0.0,0.0,0.0,0.0,0.0,0.0,0.0,0.0,0.0,0.0,0.0,0.0,0.0,0.0,0.0,0.0,0.0,0.0,0.0,0.0,0.0,0.0,0.0,0.0,0.0,0.0,0.0,0.0,0.0,0.0,0.0,0.0,0.0,0.0,0.0,0.0,0.0,0.0,0.0,0.0,0.0,0.0,0.0,0.0,0.0,0.0,0.0,0.0,0.0,0.0,0.0,0.0,0.0,0.0,0.0,0.0,0.0,0.0,0.0,0.0,0.0,0.0,0.0,0.0,0.0,0.0,0.0,0.0,0.0,0.0,0.0,0.0,0.0,0.0,0.0,0.0,0.0,0.0,0.0,0.0,0.0,0.0,0.0,0.0,0.0,0.0,0.0,1.3665,0.0,1.1873,0.0,1.0904,1.0413,0.0,0.0,0.0,0.0,0.0,0.0,0.0,0.0,0.0,0.0,0.0,0.0,0.0,0.0,0.0,0.0,0.0,0.0,0.0,0.0,0.0,0.0,0.0,0.0,0.0,0.0,0.0,0.0,0.0,0.0,0.0,0.0,0.0,0.0,0.0,0.0,0.0,0.0,0.0,0.0,0.0,0.0,0.0,0.0,0.0,0.0,0.0,0.0,0.0,0.0,0.0,0.0,0.0,0.0,0.0,0.0,0.0,0.0,0.0,0.0,0.0,0.0,0.0,0.0,0.0,0.0,0.0,0.0,0.0,0.0,0.0,0.0,0.0,0.0,0.0,0.0,0.0,0.0,0.0,0.0,0.0,0.0,0.0,0.0,0.0,0.0,0.0,0.0,0.0,0.0,0.0,0.0,0.0,0.0,0.0,0.0,0.0,0.0,0.0,0.0,0.0,0.0,0.0,0.0,0.0,0.0,0.0,0.0,1.334,1.237,1.1268,1.0583,1.0413,0.9821,0.9327,0.0,0.0,0.0,0.0,0.0,0.0,0.0,0.0,0.0,0.0,0.0,0.0,0.0,0.0,0.0,0.0,0.0,0.0,0.0,0.0,0.0,0.0,0.0,0.0,0.0,0.0,0.0,0.0,0.0,0.0,0.0,0.0,0.0,0.0,0.0,0.0,0.0,0.0,0.0,0.0,0.0,0.0,0.0,0.0,0.0,0.0,0.0,0.0,0.0,0.0,0.0,0.0,0.0,0.0,0.0,0.0,0.0,0.0,0.0,0.0,0.0,0.0,0.0,0.0,0.0,0.0,0.0,0.0,0.0,0.0,0.0,0.0,0.0,0.0,0.0,0.0,0.0,0.0,0.0,0.0,0.0,0.0,0.0,0.0,0.0,0.0,0.0,0.0,0.0,0.0,0.0,0.0,0.0,0.0,0.0,0.0,0.0,0.0,0.0,0.0,0.0,0.0,0.0,0.0,0.0,0.0,0.0,0.0,0.0,1.1296,0.9665,0.8977,0.9213,0.8718,0.823,0.0,0.0,0.0,0.0,0.0,0.0,0.0,0.0,0.0,0.0,0.0,0.0,0.0,0.0,0.0,0.0,0.0,0.0,0.0,0.0,0.0,0.0,0.0,0.0,0.0,0.0,0.0,0.0,0.0,0.0,0.0,0.0,0.0,0.0,0.0,0.0,0.0,0.0,0.0,0.0,0.0,0.0,0.0,0.0,0.0,0.0,0.0,0.0,0.0,0.0,0.0,0.0,0.0,0.0,0.0,0.0,0.0,0.0,0.0,0.0,0.0,0.0,0.0,0.0,0.0,0.0,0.0,0.0,0.0,0.0,0.0,0.0,0.0,0.0,0.0,0.0,0.0,0.0,0.0,0.0,0.0,0.0,0.0,0.0,0.0,0.0,0.0,0.0,0.0,0.0,0.0,0.0,0.0,0.0,0.0,0.0,0.0,0.0,0.0,0.0,0.0,0.0,0.0,0.0,0.0,0.0,0.0,0.0,0.0,0.9805,0.8619,0.7991,0.8024,0.7627,0.7129,0.6437,0.0,0.0,0.0,0.0,0.0,0.0,0.0,0.0,0.0,0.0,0.0,0.0,0.0,0.0,0.0,0.0,0.0,0.0,0.0,0.0,0.0,0.0,0.0,0.0,0.0,0.0,0.0,0.0,0.0,0.0,0.0,0.0,0.0,0.0,0.0,0.0,0.0,0.0,0.0,0.0,0.0,0.0,0.0,0.0,0.0,0.0,0.0,0.0,0.0,0.0,0.0,0.0,0.0,0.0,0.0,0.0,0.0,0.0,0.0,0.0,0.0,0.0,0.0,0.0,0.0,0.0,0.0,0.0,0.0,0.0,0.0,0.0,0.0,0.0,0.0,0.0,0.0,0.0,0.0,0.0,0.0,0.0,0.0,0.0,0.0,0.0,0.0,0.0,0.0,0.0,0.0,0.0,0.0,0.0,0.0,0.0,0.0,0.0,0.0,0.0,0.0,0.0,0.0,0.0,0.0,0.0,0.0,0.0,0.8146,0.7805,0.7335,0.6742,0.6448,0.5947,0.0,0.0,0.0,0.0,0.0,0.0,0.0,0.0,0.0,0.0,0.0,0.0,0.0,0.0,0.0,0.0,0.0,0.0,0.0,0.0,0.0,0.0,0.0,0.0,0.0,0.0,0.0,0.0,0.0,0.0,0.0,0.0,0.0,0.0,0.0,0.0,0.0,0.0,0.0,0.0,0.0,0.0,0.0,0.0,0.0,0.0,0.0,0.0,0.0,0.0,0.0,0.0,0.0,0.0,0.0,0.0,0.0,0.0,0.0,0.0,0.0,0.0,0.0,0.0,0.0,0.0,0.0,0.0,0.0,0.0,0.0,0.0,0.0,0.0,0.0,0.0,0.0,0.0,0.0,0.0,0.0,0.0,0.0,0.0,0.0,0.0,0.0,0.0,0.0,0.0,0.0,0.0,0.0,0.0,0.0,0.0,0.0,0.0,0.0,0.0,0.0,0.0,0.0,0.0,0.0,0.0,0.0,0.0,0.0,0.7009,0.4618,0.4201,0.5644,0.5244,0.4598,0.0,0.0,0.0,0.0,0.0,0.0,0.0,0.0,0.0,0.0,0.0,0.0,0.0,0.0,0.0,0.0,0.0,0.0,0.0,0.0,0.0,0.0,0.0,0.0,0.0,0.0,0.0,0.0,0.0,0.0,0.0,0.0,0.0,0.0,0.0,0.0,0.0,0.0,0.0,0.0,0.0,0.0,0.0,0.0,0.0,0.0,0.0,0.0,0.0,0.0,0.0,0.0,0.0,0.0,0.0,0.0,0.0,0.0,0.0,0.0,0.0,0.0,0.0,0.0,0.0,0.0,0.0,0.0,0.0,0.0,0.0,0.0,0.0,0.0,0.0,0.0,0.0,0.0,0.0,0.0,0.0,0.0,0.0,0.0,0.0,0.0,0.0,0.0,0.0,0.0,0.0,0.0,0.0,0.0,0.0,0.0,0.0,0.0,0.0,0.0,0.0,0.0,0.0,0.0,0.0,0.0,0.0,0.0,0.8019,0.6513,0.3199,0.1859,0.2684,0.2897,0.2773,0.0,0.0,0.0,0.0,0.0,0.0,0.0,0.0,0.0,0.0,0.0,0.0,0.0,0.0,0.0,0.0,0.0,0.0,0.0,0.0,0.0,0.0,0.0,0.0,0.0,0.0,0.0,0.0,0.0,0.0,0.0,0.0,0.0,0.0,0.0,0.0,0.0,0.0,0.0,0.0,0.0,0.0,0.0,0.0,0.0,0.0,0.0,0.0,0.0,0.0,0.0,0.0,0.0,0.0,0.0,0.0,0.0,0.0,0.0,0.0,0.0,0.0,0.0,0.0,0.0,0.0,0.0,0.0,0.0,0.0,0.0,0.0,0.0,0.0,0.0,0.0,0.0,0.0,0.0,0.0,0.0,0.0,0.0,0.0,0.0,0.0,0.0,0.0,0.0,0.0,0.0,0.0,0.0,0.0,0.0,0.0,0.0,0.0,0.0,0.0,0.0,0.0,0.0,0.0,0.0,0.0,0.0,0.0,0.7107,0.6421,0.2792,0.0207,-0.1138,0.0104,0.0617,0.0,0.0,0.0,0.0,0.0,0.0,0.0,0.0,0.0,0.0,0.0,0.0,0.0,0.0,0.0,0.0,0.0,0.0,0.0,0.0,0.0,0.0,0.0,0.0,0.0,0.0,0.0,0.0,0.0,0.0,0.0,0.0,0.0,0.0,0.0,0.0,0.0,0.0,0.0,0.0,0.0,0.0,0.0,0.0,0.0,0.0,0.0,0.0,0.0,0.0,0.0,0.0,0.0,0.0,0.0,0.0,0.0,0.0,0.0,0.0,0.0,0.0,0.0,0.0,0.0,0.0,0.0,0.0,0.0,0.0,0.0,0.0,0.0,0.0,0.0,0.0,0.0,0.0,0.0,0.0,0.0,0.0,0.0,0.0,0.0,0.0,0.0,0.0,0.0,0.0,0.0,0.0,0.0,0.0,0.0,0.0,0.0,0.0,0.0,0.0,0.0,0.0,0.0,0.0,0.0,0.0,0.0,0.0,0.6295,0.5592,0.155,-0.1345,-0.2691,-0.1865,-0.1336,0.0,0.0,0.0,0.0,0.0,0.0,0.0,0.0,0.0,0.0,0.0,0.0,0.0,0.0,0.0,0.0,0.0,0.0,0.0,0.0,0.0,0.0,0.0,0.0,0.0,0.0,0.0,0.0,0.0,0.0,0.0,0.0,0.0,0.0,0.0,0.0,0.0,0.0,0.0,0.0,0.0,0.0,0.0,0.0,0.0,0.0,0.0,0.0,0.6771,0.0,0.0,0.0,0.0,0.0,0.0,0.0,0.0,0.0,0.0,0.0,0.0,0.0,0.0,0.0,0.0,0.0,0.0,0.0,0.0,0.0,0.0,0.0,0.0,0.0,0.0,0.0,0.0,0.0,0.0,0.0,0.0,0.0,0.0,0.0,0.0,0.0,0.0,0.0,0.0,0.0,0.0,0.0,0.0,0.0,0.0,0.0,0.0,0.0,0.0,0.0,0.0,0.0,0.0,0.0,0.0,0.0,0.0,0.0,0.5459,0.4089,0.0919,-0.2041,-0.4493,-0.4289,-0.3761,0.0,0.0,0.0,0.0,0.0,0.0,0.0,0.0,0.0,0.0,0.0,0.0,0.0,0.0,0.0,0.0,0.0,0.0,0.0,0.0,0.0,0.0,0.0,0.0,0.0,0.0,0.0,0.0,0.0,0.0,0.0,0.0,0.0,0.0,0.0,0.0,0.0,0.0,0.0,0.0,0.0,0.0,0.0,0.0,0.0,0.0,0.0,0.0,0.0,0.0,0.0,0.0,0.0,0.0,0.0,0.0,0.0,0.0,0.0,0.0,0.0,0.0,0.0,0.0,0.0,0.0,0.0,0.0,0.0,0.0,0.0,0.0,0.0,0.0,0.0,0.0,0.0,0.0,0.0,0.0,0.0,0.0,0.0,0.0,0.0,0.0,0.0,0.0,0.0,0.0,0.0,0.0,0.0,0.0,0.0,0.0,0.0,0.0,0.0,0.0,0.0,0.0,0.0,0.0,0.0,0.0,0.0,0.6132,0.4529,0.2618,0.0502,-0.25,-0.641,-0.6586,-0.6289,-0.5508,0.0,0.0,0.0,0.0,0.0,0.0,0.0,0.0,0.0,0.0,0.0,0.0,0.0,0.0,0.0,0.0,0.0,0.0,0.0,0.0,0.0,0.0,0.0,0.0,0.0,0.0,0.0,0.0,0.0,0.0,0.0,0.0,0.0,0.0,0.0,0.0,0.0,0.0,0.5683,0.5683,0.0,0.0,0.0,0.0,0.0,0.0,0.0,0.0,0.413,0.0,0.0,0.0,0.0,0.0,0.0,0.0,0.0,0.0,0.0,0.0,0.0,0.0,0.0,0.0,0.0,0.0,0.0,0.0,0.0,0.0,0.0,0.0,0.0,0.0,0.0,0.0,0.0,0.0,0.0,0.0,0.0,0.0,0.0,0.0,0.0,0.0,0.0,0.0,0.0,0.0,0.0,0.0,0.0,0.0,0.0,0.0,0.0,0.0,0.0,0.0,0.0,0.0,0.0,0.0,0.0,0.6637,0.5536,0.4028,0.2213,-0.0297,-0.3433,-0.7167,-0.7528,-0.7896,-0.8415,0.0,0.0,0.0,0.0,0.0,0.0,0.0,0.0,0.0,0.0,0.0,0.0,0.0,0.0,0.0,0.0,0.0,0.0,0.0,0.0,0.0,0.0,0.0,0.0,0.0,0.0,0.0,0.0,0.0,0.0,0.0,0.0,0.0,0.0,0.0,0.0,0.0,0.0,0.0,0.4774,0.4671,0.0,0.0,0.0,0.0,0.0,0.0,0.0,0.0,0.3459,0.0,0.0,0.0,0.0,0.0,0.0,0.0,0.0,0.0,0.0,0.0,0.0,0.0,0.0,0.0,0.0,0.0,0.0,0.0,0.0,0.0,0.0,0.0,0.0,0.0,0.0,0.0,0.0,0.0,0.0,0.0,0.0,0.0,0.0,0.0,0.0,0.0,0.0,0.0,0.0,0.0,0.0,0.0,0.0,0.0,0.0,0.0,0.0,0.0,0.0,0.0,0.0,0.0,0.0,0.0,0.5536,0.4529,0.3004,0.1091,-0.1569,-0.4558,-0.7773,-0.8644,-0.9579,0.0,0.0,0.0,0.0,0.0,0.0,0.0,0.0,0.0,0.0,0.0,0.0,0.0,0.0,0.0,0.0,0.0,0.0,0.0,0.0,0.0,0.0,0.0,0.0,0.0,0.0,0.0,0.0,0.0,0.0,0.0,0.0,0.0,0.0,0.0,0.0,0.0,0.0,0.0,0.0,0.3784,0.3677,0.3603,0.0,0.0,0.0,0.0,0.0,0.0,0.2074,0.1548,0.0,0.0,0.0,0.0,0.0,0.0,0.0,0.0,0.0,0.0,0.0,0.0,0.0,0.0,0.0,0.0,0.0,0.0,0.0,0.0,0.0,0.0,0.0,0.0,0.0,0.0,0.0,0.0,0.0,0.0,0.0,0.0,0.0,0.0,0.0,0.0,0.0,0.0,0.0,0.0,0.0,0.0,0.0,0.0,0.0,0.0,0.0,0.0,0.0,0.0,0.0,0.0,0.0,0.0,0.0,0.4433,0.3324,0.1797,-0.0393,-0.3012,-0.5751,-0.8575,-0.9911,-1.1,0.0,0.0,0.0,0.0,0.0,0.0,0.0,0.0,0.0,0.0,0.0,0.0,0.0,0.0,0.0,0.0,0.0,0.0,0.0,0.0,0.0,0.0,0.0,0.0,0.0,0.0,0.0,0.0,0.0,0.0,0.0,0.0,0.0,0.0,0.0,0.0,0.0,0.0,0.0,0.0,0.0,0.2949,0.2869,0.2912,0.0,0.0,0.0,0.0,0.1068,0.0132,0.0,0.0,0.0,0.0,0.0,0.0,0.0,0.0,0.0,0.0,0.0,0.0,0.0,0.0,0.0,0.0,0.0,0.0,0.0,0.0,0.0,0.0,0.0,0.0,0.0,0.0,0.0,0.0,0.0,0.0,0.0,0.0,0.0,0.0,0.0,0.0,0.0,0.0,0.0,0.0,0.0,0.0,0.0,0.0,0.0,0.0,0.0,0.0,0.0,0.0,0.0,0.0,0.0,0.0,0.0,0.0,0.302,0.2012,0.0201,-0.2396,-0.4534,-0.6982,-0.9947,-1.081,-1.1587,0.0,0.0,0.0,0.0,0.0,0.0,0.0,0.0,0.0,0.0,0.0,0.0,0.0,0.0,0.0,0.0,0.0,0.0,0.0,0.0,0.0,0.0,0.0,0.0,0.0,0.0,0.0,0.0,0.0,0.0,0.0,0.0,0.0,0.0,0.0,0.0,0.0,0.0,0.0,0.0,0.0,0.2916,0.2449,0.1519,0.0696,0.0,0.0,0.0,-0.0556,-0.1389,0.0,0.0,0.0,0.0,0.0,0.0,0.0,0.0,0.0,0.0,0.0,0.0,0.0,0.0,0.0,0.0,0.0,0.0,0.0,0.0,0.0,0.0,0.0,0.0,0.0,0.0,0.0,0.0,0.0,0.0,0.0,0.0,0.0,0.0,0.0,0.0,0.0,0.0,0.0,0.0,0.0,0.0,0.0,0.0,0.0,0.0,0.0,0.0,0.0,0.0,0.0,0.0,0.0,0.0,0.0,0.2116,0.1007,-0.0101,-0.1896,-0.4434,-0.6948,-0.9384,-1.1871,-1.2785,-1.3459,0.0,0.0,0.0,0.0,0.0,0.0,0.0,0.0,0.0,0.0,0.0,0.0,0.0,0.0,0.0,0.0,0.0,0.0,0.0,0.0,0.0,0.0,0.0,0.0,0.0,0.0,0.0,0.0,0.0,0.0,0.0,0.0,0.0,0.0,0.0,0.0,0.0,0.0,0.0,0.0,0.0,0.0,0.0684,0.0138,0.0,0.0,0.0,-0.3645,-0.3781,0.0,0.0,0.0,0.0,0.0,0.0,0.0,0.0,0.0,0.0,0.0,0.0,0.0,0.0,0.0,0.0,0.0,0.0,0.0,0.0,0.0,0.0,0.0,0.0,0.0,0.0,0.0,0.0,0.0,0.0,0.0,0.0,0.0,0.0,0.0,0.0,0.0,0.0,0.0,0.0,0.0,0.0,0.0,0.0,0.0,0.0,0.0,0.0,0.0,0.0,0.0,0.0,0.0,0.0,0.0,0.0,0.0,-0.1409,-0.2509,-0.4373,-0.6846,-0.9395,-1.1755,-1.3816,-1.4757,0.0,0.0,0.0,0.0,0.0,0.0,0.0,0.0,0.0,0.0,0.0,0.0,0.0,0.0,0.0,0.0,0.0,0.0,0.0,0.0,0.0,0.0,0.0,0.0,0.0,0.0,0.0,-0.1121,0.0,0.0,0.0,0.0,0.0,0.0,0.0,0.0,0.0,0.0,0.0,0.0,0.0,0.0,-0.1058,-0.1511,-0.1801,-0.2371,0.0,0.0,-0.6256,-0.6508,-0.7093,-0.7371,0.0,0.0,0.0,0.0,0.0,0.0,0.0,0.0,0.0,0.0,0.0,0.0,0.0,0.0,0.0,0.0,0.0,0.0,0.0,0.0,0.0,0.0,0.0,0.0,0.0,0.0,0.0,0.0,0.0,0.0,0.0,0.0,0.0,0.0,0.0,0.0,0.0,0.0,0.0,0.0,0.0,0.0,0.0,0.0,0.0,0.0,0.0,0.0,0.0,0.0,0.0,0.0,0.0,0.0,0.0,-0.4111,-0.5404,-0.7372,-0.9926,-1.1677,-1.3635,-1.586,-1.6238,-1.636,0.0,0.0,0.0,0.0,0.0,0.0,0.0,0.0,0.0,0.0,0.0,0.0,0.0,0.0,0.0,0.0,0.0,0.0,0.0,0.0,0.0,0.0,0.0,0.0,0.0,0.0,0.0,0.0,0.0,0.0,0.0,0.0,0.0,0.0,0.0,0.0,0.0,0.0,0.0,0.0,0.0,-0.3257,-0.4187,-0.467,-0.5444,0.0,0.0,-0.721,-0.7417,-0.8494,-0.9216,-0.8991,0.0,0.0,0.0,0.0,0.0,0.0,0.0,0.0,0.0,0.0,0.0,0.0,0.0,0.0,0.0,0.0,0.0,0.0,0.0,0.0,0.0,0.0,0.0,0.0,0.0,0.0,0.0,0.0,0.0,0.0,0.0,0.0,0.0,0.0,0.0,0.0,0.0,0.0,0.0,0.0,0.0,0.0,0.0,0.0,0.0,0.0,0.0,0.0,0.0,0.0,0.0,0.0,0.0,-0.5014,-0.6399,-0.7681,-0.9706,-1.2288,-1.4075,-1.5856,-1.8007,-1.8163,-1.8072,0.0,0.0,0.0,0.0,0.0,0.0,0.0,0.0,0.0,0.0,0.0,0.0,0.0,0.0,0.0,0.0,0.0,0.0,0.0,0.0,0.0,0.0,0.0,0.0,0.0,0.0,0.0,0.0,-0.1975,-0.2116,-0.2385,0.0,0.0,0.0,0.0,0.0,0.0,0.0,0.0,0.0,0.0,-0.462,-0.5441,-0.5944,0.0,0.0,-0.8568,-0.9039,-1.0246,-1.0957,-1.1484,-1.1804,-1.2201,0.0,0.0,0.0,0.0,0.0,0.0,0.0,0.0,0.0,0.0,0.0,0.0,0.0,0.0,0.0,0.0,0.0,0.0,0.0,0.0,0.0,0.0,0.0,0.0,0.0,0.0,0.0,0.0,0.0,0.0,0.0,0.0,0.0,0.0,0.0,0.0,0.0,0.0,0.0,0.0,0.0,0.0,0.0,0.0,0.0,0.0,0.0,0.0,0.0,0.0,0.0,0.0,-0.7329,-0.8755,-1.0143,-1.2013,-1.4541,-1.6143,-1.7735,-1.9357,-1.9622,-1.9447,0.0,0.0,0.0,0.0,0.0,0.0,0.0,0.0,0.0,0.0,0.0,0.0,0.0,0.0,0.0,0.0,0.0,0.0,0.0,0.0,0.0,0.0,0.0,0.0,0.0,0.0,0.0,0.0,-0.241,-0.2694,-0.3114,0.0,0.0,0.0,0.0,0.0,0.0,0.0,0.0,0.0,0.0,-0.6134,-0.6966,-0.7654,-0.8658,-1.0029,-1.0712,-1.1379,-1.2628,-1.3178,-1.3683,-1.4309,0.0,0.0,0.0,0.0,0.0,0.0,0.0,0.0,0.0,0.0,0.0,0.0,0.0,0.0,0.0,0.0,0.0,0.0,0.0,0.0,0.0,0.0,0.0,0.0,0.0,0.0,0.0,0.0,0.0,0.0,0.0,0.0,0.0,0.0,0.0,0.0,0.0,0.0,0.0,0.0,0.0,0.0,0.0,0.0,0.0,0.0,0.0,0.0,0.0,0.0,0.0,0.0,0.0,0.0,-1.1472,-1.2783,-1.46,-1.6673,-1.798,-1.8996,-1.9908,-2.0362,-2.0103,-1.8987,0.0,0.0,0.0,0.0,0.0,0.0,0.0,0.0,0.0,0.0,0.0,0.0,0.0,0.0,0.0,0.0,0.0,0.0,0.0,0.0,0.0,0.0,0.0,0.0,0.0,0.0,-0.2621,-0.304,-0.3464,0.0,0.0,0.0,0.0,0.0,0.0,0.0,0.0,0.0,0.0,-0.7397,-0.8113,-0.8788,-1.0131,-1.1358,-1.1803,-1.3111,-1.4168,-1.4456,-1.5325,-1.5913,0.0,0.0,0.0,0.0,0.0,0.0,0.0,0.0,0.0,0.0,0.0,0.0,0.0,0.0,0.0,0.0,0.0,0.0,0.0,0.0,0.0,0.0,0.0,0.0,0.0,0.0,0.0,0.0,-0.8488,0.0,0.0,0.0,0.0,0.0,0.0,0.0,0.0,0.0,0.0,0.0,-1.0739,-1.2691,0.0,0.0,0.0,0.0,0.0,0.0,0.0,0.0,0.0,0.0,0.0,0.0,-1.1624,-1.3127,-1.4514,-1.6061,-1.7908,-1.9051,-2.0089,-2.093,-2.0798,-2.009,-1.8536,0.0,0.0,0.0,0.0,0.0,0.0,0.0,0.0,0.0,0.0,0.0,0.0,0.0,0.0,0.0,0.0,0.0,0.0,0.0,0.0,0.0,0.0,0.0,0.0,0.0,-0.3493,0.0,0.0,0.0,0.0,0.0,0.0,0.0,0.0,0.0,0.0,0.0,-0.7215,-0.8244,-0.9411,-1.0395,-1.1153,-1.2417,-1.3707,0.0,0.0,0.0,0.0,0.0,0.0,0.0,0.0,0.0,0.0,0.0,0.0,0.0,0.0,-1.8116,-1.6428,-1.6337,-1.6514,-1.6277,0.0,0.0,0.0,0.0,0.0,0.0,0.0,0.0,0.0,0.0,0.0,0.0,0.0,0.0,0.0,0.0,-1.0678,0.0,0.0,0.0,0.0,0.0,0.0,0.0,0.0,-1.1191,-1.1117,-1.279,-1.4677,-1.5192,0.0,-1.4174,-1.3041,0.0,0.0,0.0,0.0,0.0,0.0,0.0,0.0,-1.3214,-1.4631,-1.5836,-1.716,-1.873,-1.9692,-2.045,-2.1093,-2.0559,-1.9746,-1.8498,-1.7374,-1.6354,0.0,0.0,0.0,0.0,0.0,0.0,0.0,0.0,0.0,0.0,0.0,0.0,0.0,0.0,0.0,0.0,0.0,0.0,0.0,0.0,0.0,0.0,0.0,-0.4453,0.0,0.0,0.0,0.0,0.0,0.0,0.0,0.0,0.0,-0.8124,-0.8237,-0.88,-1.0232,-1.1413,-1.2408,-1.3236,0.0,0.0,0.0,0.0,0.0,0.0,0.0,-2.0436,-2.1212,-2.1386,-2.1482,-2.182,-2.2199,-2.2487,-2.2322,0.0,0.0,-1.9518,-1.9199,-1.9229,-1.8996,-1.8858,-1.87,-1.8858,-1.9163,-1.9549,0.0,0.0,0.0,0.0,0.0,0.0,0.0,0.0,-1.2739,-1.2812,0.0,-1.3199,0.0,0.0,0.0,0.0,0.0,0.0,0.0,0.0,-1.4771,-1.4199,-1.381,-1.5891,-1.6747,-1.6369,-1.5979,-1.5718,-1.533,-1.3547,0.0,0.0,0.0,0.0,0.0,0.0,-1.4331,-1.5968,-1.6868,-1.7889,-1.9208,-1.9814,-2.0267,-2.0391,-1.9636,-1.9127,-1.887,-1.7502,-1.6471,-1.6043,-1.447,0.0,0.0,0.0,0.0,0.0,0.0,0.0,0.0,0.0,0.0,0.0,0.0,0.0,0.0,0.0,0.0,0.0,0.0,0.0,0.0,-0.4742,0.0,0.0,0.0,0.0,0.0,0.0,0.0,0.0,0.0,0.0,-1.0117,-0.9958,-1.0631,-1.2602,0.0,0.0,0.0,0.0,-1.8111,-1.8795,-1.9646,-2.0494,-2.1523,-2.2055,-2.27,-2.349,0.0,0.0,-2.4377,-2.4516,-2.4687,-2.4189,-2.4453,-2.4221,-2.2334,-2.1498,-2.1189,-2.141,-2.1097,-2.0981,-2.1316,-2.14,-2.1495,-1.8969,0.0,0.0,0.0,0.0,-1.6221,-1.6321,-1.6808,-1.5809,-1.5809,-1.6331,-1.5648,0.0,0.0,0.0,0.0,0.0,0.0,-1.4212,-1.5992,-1.554,-1.5481,-1.5835,-1.7085,-1.7631,-1.7375,-1.7097,-1.6706,-1.6459,-1.5948,-1.5172,-1.4151,0.0,0.0,0.0,0.0,-1.5791,-1.6825,-1.7974,-1.8834,-1.9346,-1.9892,-2.0019,-1.9696,-1.9264,-1.878,-1.8233,-1.7418,-1.6782,-1.6442,-1.5224,0.0,0.0,0.0,0.0,0.0,0.0,0.0,0.0,0.0,0.0,0.0,0.0,0.0,0.0,0.0,0.0,0.0,0.0,0.0,-0.5693,-0.64,-0.6919,0.0,0.0,0.0,0.0,0.0,0.0,0.0,0.0,0.0,-1.3953,-1.2902,-1.2753,0.0,0.0,-1.6469,-1.7928,-1.8978,-2.0173,-2.1023,0.0,0.0,0.0,-2.416,-2.4399,-2.5071,-2.5409,-2.5551,-2.5738,-2.6068,-2.6289,-2.6116,-2.6032,-2.564,-2.5224,-2.4141,-2.3132,-2.2983,-2.2482,-2.2139,-2.2311,-2.2482,-2.29,-2.1411,-2.0048,-1.8819,-1.8482,-1.8685,-1.8203,-1.8292,-1.8722,-1.7804,-1.7519,-1.7577,-1.6779,-1.5825,-1.4534,-1.3732,0.0,0.0,0.0,-1.5146,-1.653,-1.6085,-1.6295,-1.693,-1.7554,-1.7736,-1.7599,-1.7588,-1.7474,-1.7222,-1.7184,-1.6731,-1.5765,0.0,0.0,-1.5888,-1.622,-1.6821,-1.7721,-1.8381,-1.8844,-1.9078,-1.9354,-1.9252,-1.8735,-1.862,-1.8313,-1.7805,-1.7126,-1.6613,-1.6386,-1.5131,-1.4106,0.0,0.0,0.0,0.0,0.0,0.0,0.0,0.0,0.0,0.0,0.0,-0.6217,0.0,0.0,0.0,0.0,-0.6089,-0.6465,-0.6846,-0.7573,0.0,0.0,0.0,0.0,0.0,0.0,0.0,-1.5954,-1.5518,-1.5522,-1.6617,-1.6124,-1.6072,-1.7133,-1.7808,-1.8687,-2.0095,0.0,-2.186,-2.274,-2.3412,-2.4234,-2.5163,-2.5567,-2.6081,-2.6648,-2.6922,-2.702,-2.6616,-2.688,-2.7026,-2.6854,-2.6421,-2.6283,-2.6434,-2.5445,-2.4598,-2.4241,-2.3884,-2.3526,-2.3526,-2.3705,-2.3928,-2.2957,-2.2669,-2.0797,-1.9973,-2.0123,-1.9357,-1.9407,-1.9918,-1.8998,-1.8297,-1.7999,-1.6926,-1.6223,-1.5503,-1.4537,0.0,0.0,-1.4345,-1.5638,-1.6794,-1.6603,-1.6805,-1.7312,-1.7524,-1.7356,-1.6926,-1.7496,-1.7663,-1.7449,-1.7416,-1.7304,-1.6839,-1.6611,-1.644,-1.6706,-1.7055,-1.7628,-1.8438,-1.8363,-1.8505,-1.8648,-1.8286,-1.8052,-1.7855,-1.783,-1.7701,-1.7361,-1.6553,-1.6079,-1.5952,-1.4343,-1.3203,-1.2859,0.0,0.0,0.0,0.0,0.0,0.0,0.0,0.0,0.0,0.0,0.0,0.0,0.0,0.0,0.0,-0.7035,0.0,-0.7843,-0.8625,0.0,0.0,0.0,-1.1612,-1.1554,-1.3148,-1.5513,-1.8514,0.0,0.0,0.0,0.0,-1.9871,-1.9871,-2.0095,-2.0729,-2.1978,-2.2583,-2.3303,-2.3867,-2.4503,-2.5098,-2.5682,-2.6345,-2.7054,-2.7833,-2.8377,-2.8124,-2.7449,-2.7277,-2.7014,-2.6513,-2.6194,-2.6194,-2.6194,-2.5584,-2.5428,-2.5185,-2.4963,-2.4753,-2.4512,-2.4501,-2.449,-2.3319,-2.2736,-2.1965,-2.1546,-2.1391,-2.1031,-2.0446,-1.998,-1.9316,-1.8652,-1.7905,-1.6764,-1.5734,-1.4865,-1.3897,-1.3374,-1.3233,-1.377,-1.4629,-1.5406,-1.6431,-1.699,-1.7109,-1.6602,-1.6353,-1.6213,-1.6353,-1.6462,-1.64,-1.6743,-1.6729,-1.6724,-1.6875,-1.7008,-1.7008,-1.7326,-1.7704,-1.8122,-1.8327,-1.8453,-1.8364,-1.7929,-1.7575,-1.7542,-1.7339,-1.6997,-1.6419,-1.6009,-1.5505,-1.4903,-1.3752,-1.2821,-1.2238,-1.1549,0.0,0.0,0.0,0.0,0.0,0.0,0.0,0.0,0.0,-0.7311,-0.7142,0.0,-0.7059,0.0,-0.862,-0.9389,-0.9648,-1.0856,0.0,0.0,-1.3356,-1.4135,-1.3745,-1.5665,-1.7554,-1.9385,-1.9075,-1.907,-1.9774,-2.0845,-2.1628,-2.2139,-2.1779,-2.1948,-2.3093,-2.3354,-2.3765,-2.4212,-2.4951,-2.5713,-2.5995,-2.6588,-2.6919,-2.6864,-2.6946,-2.6853,-2.6862,-2.6886,-2.6777,-2.6241,-2.5924,-2.5538,-2.5142,-2.4767,-2.437,-2.4349,-2.4291,-2.423,-2.423,-2.3872,-2.3693,-2.3245,-2.2936,-2.2228,-2.1671,-2.1382,-2.1104,-2.056,-1.9903,-1.8847,-1.7982,-1.726,-1.6055,-1.5071,-1.4226,-1.3877,-1.3363,-1.3051,-1.3319,-1.3622,-1.4083,-1.5473,-1.6296,-1.6567,-1.5583,-1.5033,-1.5033,-1.5672,-1.5863,-1.5994,-1.6498,-1.6817,-1.6711,-1.7224,-1.7406,-1.726,-1.7482,-1.773,-1.8096,-1.8114,-1.7901,-1.7549,-1.7299,-1.6937,-1.6697,-1.6453,-1.6266,-1.5782,-1.5429,-1.4943,-1.4436,-1.3481,-1.2569,-1.1971,-1.1395,-1.0864,0.0,0.0,0.0,0.0,0.0,0.0,0.0,0.0,0.0,0.0,0.0,-0.8173,0.0,-0.9992,0.0,-1.1188,-1.2311,-1.3357,-1.3752,-1.4735,-1.5496,-1.591,-1.7217,-1.8653,-1.9704,-2.0,-2.0135,-2.0695,-2.1462,-2.2332,-2.2924,-2.2744,-2.2989,-2.3986,-2.444,-2.462,-2.5114,-2.5627,-2.596,-2.6016,-2.6194,-2.6275,-2.6085,-2.5983,-2.6061,-2.5891,-2.5891,-2.5742,-2.5281,-2.5119,-2.474,-2.4156,-2.3846,-2.371,-2.3503,-2.3209,-2.3421,-2.3809,-2.3789,-2.3597,-2.2846,-2.3015,-2.1735,-2.0931,-2.0503,-2.0287,-1.9888,-1.9626,-1.805,-1.6997,-1.6084,-1.4791,-1.4146,-1.3884,-1.3779,-1.3367,-1.2816,-1.2816,-1.2808,-1.2931,-1.4033,-1.5007,-1.5712,-1.4594,-1.4041,-1.405,-1.5177,-1.5815,-1.5825,-1.6716,-1.713,-1.6932,-1.7619,-1.7785,-1.7576,-1.7794,-1.7882,-1.8149,-1.7878,-1.7394,-1.6805,-1.6772,-1.6398,-1.5805,-1.5784,-1.5638,-1.5262,-1.5021,-1.4644,-1.4266,-1.3374,-1.2488,-1.1869,-1.1394,-1.0967,0.0,-1.0738,0.0,0.0,0.0,0.0,0.0,0.0,0.0,0.0,-0.9365,-0.9667,-1.0296,-1.1305,-1.2234,-1.2637,-1.3641,-1.4418,-1.5325,-1.5771,-1.6502,-1.7468,-1.8237,-1.8977,-1.9542,-2.0308,-2.0731,-2.0942,-2.1718,-2.2208,-2.2486,-2.2725,-2.3334,-2.4179,-2.4729,-2.5269,-2.5622,-2.5859,-2.5717,-2.5567,-2.541,-2.5151,-2.5151,-2.5235,-2.5156,-2.4556,-2.433,-2.4341,-2.3756,-2.3756,-2.3571,-2.3013,-2.2981,-2.2907,-2.2547,-2.225,-2.2432,-2.3346,-2.3454,-2.365,-2.1973,-2.2178,-2.1241,-2.0237,-1.9518,-1.9345,-1.8921,-1.8391,-1.7609,-1.6338,-1.48,-1.3884,-1.3498,-1.3498,-1.3104,-1.2972,-1.2832,-1.2832,-1.3038,-1.3294,-1.3294,-1.3629,-1.4314,-1.4314,-1.4449,-1.4441,-1.5045,-1.5624,-1.603,-1.6656,-1.7159,-1.7402,-1.7994,-1.8207,0.0,0.0,0.0,0.0,-1.7652,-1.7485,-1.7152,-1.6721,-1.6452,-1.6105,-1.5934,0.0,-1.5336,-1.4938,-1.4549,-1.403,-1.3257,0.0,0.0,0.0,0.0,0.0,0.0,0.0,0.0,0.0,0.0,0.0,-1.1898,-1.1521,-1.0618,-1.0925,-1.1379,-1.1469,-1.2601,-1.3512,-1.3929,-1.4929,-1.5806,-1.6253,-1.7157,-1.7639,-1.737,-1.822,-1.898,-1.9235,-1.9461,-1.9715,-2.0087,-2.0796,-2.1169,-2.1141,-2.1792,-2.226,-2.2329,-2.3375,-2.4131,-2.3914,-2.4162,-2.4484,-2.4536,-2.4173,-2.372,-2.363,-2.3199,-2.3023,-2.2788,-2.2779,-2.2583,-2.2191,-2.2004,-2.1863,-2.1623,-2.1496,-2.1577,-2.1519,-2.1581,-2.1783,-2.2305,-2.2086,-2.1894,-2.1052,0.0,-2.0391,-1.9251,0.0,-1.8412,-1.8068,-1.7385,-1.7159,-1.6059,-1.4432,-1.3772,-1.3369,-1.3369,-1.31,-1.2958,-1.2823,-1.31,-1.3284,-1.3358,-1.3214,-1.3287,-1.3733,-1.5027,-1.5653,-1.5598,-1.5402,-1.5588,-1.6027,-1.7076,-1.7612,-1.7765,-1.8449,-1.8842,-1.8961,-1.9079,-1.8812,-1.8272,-1.7981,-1.7776,-1.7339,-1.6963,-1.6692,-1.6245,0.0,0.0,0.0,0.0,0.0,0.0,0.0,0.0,0.0,0.0,0.0,-1.2043,-1.2185,-1.2352,-1.2067,-1.2338,-1.2508,-1.2508,-1.2847,-1.2682,-1.1861,-1.2179,-1.2487,-1.2561,-1.338,-1.4167,-1.4507,-1.5213,-1.604,-1.6386,-1.6813,-1.6994,-1.6892,-1.7531,-1.8209,-1.8383,-1.8685,-1.8964,-1.9057,-1.9483,-1.9854,-1.9863,-2.0211,-2.0527,-2.073,-2.2051,-2.3101,-2.3033,-2.2974,-2.2933,-2.2942,-2.2548,-2.2125,-2.2023,-2.1603,-2.121,-2.121,-2.1013,-2.0808,-2.0423,-2.0423,-2.0286,-2.0083,-1.9983,-2.0107,-1.9873,-1.9979,-2.0036,-2.0439,-2.0926,-2.1405,-2.0002,-2.0946,-1.9526,-1.8261,-1.7388,-1.77,-1.7319,-1.6622,0.0,0.0,0.0,-1.3642,-1.3368,-1.3368,-1.3231,-1.3086,-1.294,-1.3368,-1.3546,-1.3604,-1.3449,-1.3547,-1.3742,-1.5953,-1.6925,-1.6797,-1.6229,-1.6013,-1.6332,-1.7743,-1.8316,-1.8158,-1.879,-1.9202,-1.9393,-1.9725,-1.9447,-1.8566,-1.8592,-1.8254,-1.7541,-1.7398,-1.7112,-1.6405,-1.6405,-1.6405,-1.6405,-1.5965,-1.5534,-1.5254,-1.4524,-1.3946,-1.3665,-1.3511,-1.3386,-1.2986,-1.3245,-1.3099,-1.2821,-1.2922,-1.3091,-1.3119,-1.3458,-1.3444,-1.2762,-1.2862,-1.301,-1.315,-1.3748,-1.4194,-1.4653,-1.502,-1.5578,-1.584,-1.5891,-1.5971,-1.6272,-1.648,-1.691,-1.7078,-1.7396,-1.7884,-1.7923,-1.8072,-1.8222,-1.8356,-1.8411,-1.8498,-1.8837,-2.0432,-2.1657,-2.1822,-2.1623,-2.1371,-2.1264,-2.0826,-2.0432,-2.0432,-2.0038,-1.9643,-1.9446,-1.9248,-1.9042,-1.9042,-1.9042,-1.894,-1.8722,-1.8862,-1.8625,-1.841,-1.8552,-1.8634,-1.8611,-1.987,-2.0714,-1.9005,-1.9644,-1.8887,-1.7991,-1.7258,-1.7439,-1.6984,-1.6396,-1.5466,-1.4639,-1.3916,-1.3642,-1.3368,-1.3368,-1.3376,-1.3368,-1.3368,-1.3513,-1.3825,0.0,-1.3665,-1.3826,-1.488,-1.6561,-1.7331,-1.736,-1.724,-1.7178,-1.7524,-1.8511,-1.8865,-1.8855,-1.9027,-1.9294,-1.9335,-1.9366,-1.9315,-1.9182,-1.9108,-1.8901,-1.8461,-1.815,-1.7699,-1.7256,-1.7246,-1.7256,-1.7256,-1.6491,-1.6045,-1.6045,-1.5278,-1.467,-1.4228,-1.44,-1.4251,-1.4087,-1.3785,-1.3789,-1.3924,-1.3604,-1.3587,-1.3702,-1.3777,-1.3552,-1.3023,-1.2959,-1.2923,-1.2718,-1.3041,-1.3205,-1.372,-1.4147,-1.4678,-1.4923,-1.5224,-1.532,-1.5327,-1.5334,-1.557,-1.5526,-1.5758,-1.5834,-1.5966,-1.6105,-1.6216,-1.6258,-1.6342,-1.6474,-1.6971,-1.8336,-1.9519,-1.9842,-1.9776,-1.9668,-1.9437,-1.9042,-1.8853,-1.8845,-1.8457,-1.8061,-1.8069,-1.7863,-1.7863,-1.7863,-1.7863,-1.7784,-1.8045,-1.8338,-1.8276,-1.8307,-1.8417,-1.8432,-1.8424,-1.8782,-1.896,-1.8272,-1.8768,-1.8174,-1.7137,-1.599,-1.614,-1.6109,-1.575,-1.5119,-1.4745,-1.4525,-1.4088,-1.3945,-1.3945,-1.3945,-1.3802,-1.365,-1.3945,-1.4178,-1.4334,-1.4027,-1.4506,-1.5453,-1.703,-1.7757,-1.7655,-1.7577,-1.7779,-1.7952,-1.8777,-1.9023,-1.8856,-1.9055,-1.9165,-1.9175,-1.8964,-1.9023,-1.9013,-1.9229,-1.9162,-1.8697,-1.8817,-1.8514,-1.7766,-1.7861,-1.7714,-1.7446,-1.6832,-1.6364,-1.6207,-1.5673,-1.5407,-1.5098,-1.5184,-1.5039,-1.4624,-1.4282,-1.4069,-1.3971,-1.3954,-1.3827,-1.3938,-1.3899,-1.3507,-1.2814,-1.3085,-1.3299,-1.333,-1.3238,-1.3144,-1.3461,-1.3776,-1.3883,-1.4139,-1.4397,-1.4241,-1.4052,-1.3864,-1.3914,-1.3847,-1.374,-1.3837,-1.3969,-1.4102,-1.418,-1.4186,-1.4241,-1.4501,-1.4556,-1.5112,-1.6309,-1.745,-1.7562,-1.7466,-1.7452,-1.7452,-1.7261,-1.7261,-1.6665,-1.6474,-1.6275,-1.6275,-1.6069,-1.587,-1.6076,-1.5998,-1.6463,-1.6319,-1.6446,-1.6668,-1.6755,-1.6755,-1.6755,-1.6748,-1.7174,-1.7449,-1.8086,-1.7329,-1.6178,-1.4927,-1.5102,-1.5078,-1.5027,-1.4876,-1.4819,-1.4695,-1.4473,-1.4432,-1.4432,-1.4432,-1.4276,-1.412,-1.4276,-1.4473,-1.4703,-1.4538,-1.4875,-1.5675,-1.697,-1.7776,-1.7892,-1.778,-1.7631,-1.7799,-1.849,-1.8678,-1.836,-1.8503,-1.8579,-1.8579,-1.8416,-1.8491,-1.8472,-1.8843,-1.8837,-1.851,-1.9003,-1.8692,-1.7901,-1.8021,-1.7888,-1.7458,-1.7137,-1.6673,-1.6394,-1.6041,-1.5787,-1.5803,-1.5552,-1.5379,-1.5078,-1.4714,-1.4478,-1.4,-1.3961,-1.382,-1.3932,-1.3706,-1.335,-1.2913,-1.3132,-1.3456,-1.3468,-1.3126,-1.3002,-1.3115,-1.315,-1.3198,-1.3293,-1.3305,-1.2928,-1.255,-1.255,-1.2227,-1.1973,-1.2079,-1.2184,-1.2321,-1.2421,-1.2668,-1.2668,-1.2479,-1.2479,-1.2474,-1.2479,-1.3323,-1.4574,-1.5338,-1.5671,-1.5665,-1.5671,-1.5671,-1.5665,-1.5472,-1.5273,-1.5074,-1.4875,-1.4476,-1.4676,-1.4676,-1.4769,-1.4782,-1.4873,-1.5184,-1.5382,-1.5462,-1.5493,-1.5493,-1.5493,-1.5704,-1.6744,-1.7228,-1.6188,-1.5426,-1.4703,-1.4736,-1.449,-1.4168,-1.4065,-1.4014,-1.3953,-1.4279,-1.444,-1.4432,-1.4448,-1.43,-1.43,-1.4432,-1.4769,-1.5209,-1.5064,-1.4927,-1.5232,-1.623,-1.6915,-1.7313,-1.7128,-1.7029,-1.7047,-1.7368,-1.7465,-1.7474,-1.7492,-1.7492,-1.7501,-1.7519,-1.7527,-1.7527,-1.7492,-1.7801,-1.8118,-1.7992,-1.7837,-1.7474,-1.7492,-1.7572,-1.7522,-1.7233,-1.6977,-1.6961,-1.6301,-1.5817,-1.5817,-1.5516,-1.5257,-1.5226,-1.5038,-1.4843,-1.4455,-1.3687,-1.3356,-1.3668,-1.3393,-1.3309,-1.3258,-1.3061,-1.2494,-1.2343,-1.2157,-1.2212,-1.2322,-1.2339,-1.2339,-1.2356,-1.1983,-1.1605,-1.1605,-1.1227,-1.0921,-1.1124,-1.1149,-1.1236,-1.1415,-1.1473,-1.1483,-1.1282,-1.1282,-1.1282,-1.1282,-1.1278,-1.1282,-1.1899,-1.2879,-1.3878,-1.3872,-1.4277,-1.4476,-1.4476,-1.4476,-1.4476,-1.4277,-1.4277,-1.4476,-1.3878,-1.4277,-1.4143,-1.4476,-1.4794,-1.4723,-1.4654,-1.4767,-1.5066,-1.5283,-1.5072,-1.5283,-1.5017,-1.5203,-1.4759,-1.4432,-1.4019,-1.3838,-1.3721,-1.3642,-1.3748,-1.3677,-1.3406,-1.3595,-1.3687,-1.3991,-1.3991,-1.431,-1.4789,-1.4412,-1.4376,-1.468,-1.4774,-1.4955,-1.5329,-1.5498,-1.5707,-1.5813,-1.6212,-1.6408,-1.6425,-1.6492,-1.6525,-1.6534,-1.6369,-1.6205,-1.6205,-1.5875,-1.5875,-1.5867,-1.6048,-1.6097,-1.6178,-1.6004,-1.617,-1.6701,-1.6793,-1.6717,-1.6615,-1.6293,-1.6164,-1.6065,-1.5817,-1.5519,-1.5526,-1.4923,-1.4696,-1.4843,-1.4209,-1.3951,-1.3919,-1.3544,-1.3242,-1.3425,-1.3037,-1.2894,-1.2648,-1.2284,-1.1908,-1.172,-1.1908,-1.2123,-1.1784,-1.1789,-1.1605,-1.1416,-1.1037,-1.0848,-1.0469,-1.028,-1.0163,-1.0148,-0.9993,-1.0067,-1.0232,-1.0279,-1.0284,-0.9882,-0.9882,-0.9878,-0.9476,-0.9472,-0.9476,-0.9878,-1.0681,-1.1478,-1.2079,-1.2479,-1.2684,-1.2684,-1.2684,-1.2684,-1.2679,-1.2679,-1.2684,-1.2684,-1.2684,-1.2727,-1.2642,-1.2893,-1.2973,-1.3091,-1.3203,-1.33,-1.3369,-1.3385,-1.3385,-1.3436,-1.3317,-1.3174,-1.3017,-1.2934,-1.2755,-1.2764,-1.2949,-1.307,-1.2811,-1.2656,-1.2656,-1.2811,-1.2965,-1.3274,-1.3774,-1.4478,-1.3953,-1.3569,-1.3648,-1.4091,-1.4731,-1.5217,-1.4876,-1.4423,-1.4174,-1.4856,-1.5201,-1.5365,-1.5201,-1.5365,-1.5201,-1.5043,-1.4878,-1.4878,-1.4548,-1.4405,-1.4448,-1.4622,-1.4703,-1.433,-1.4147,-1.4645,-1.5876,-1.6156,-1.6073,-1.5786,-1.5615,-1.5466,-1.5182,-1.5111,-1.4995,-1.4821,-1.4231,-1.3998,-1.3957,-1.3475,-1.3181,-1.3461,-1.2895,-1.2616,-1.2466,-1.2251,-1.2074,-1.1773,-1.1416,-1.1227,-1.1222,-1.1605,-1.16,-1.1227,-1.1227,-1.1037,-1.0659,-1.0659,-1.028,-0.9901,-0.9919,-0.9624,-0.9379,-0.9432,-0.9501,-0.944,-0.9279,-0.9078,-0.8877,-0.8676,-0.8672,-0.827,-0.8266,-0.827,-0.8672,-0.9074,-0.9878,-1.0886,-1.1483,-1.1282,-1.1282,-1.1483,-1.1483,-1.1282,-1.1282,-1.1282,-1.1884,-1.1483,-1.1301,-1.1767,-1.1609,-1.1473,-1.1573,-1.1678,-1.1768,-1.2255,-1.1877,-1.1906,-1.2459,-1.1729,-1.1155,-1.1186,-1.145,-1.1463,-1.1466,-1.1392,-1.1411,-1.1417,-1.1417,-1.1417,-1.1417,-1.1417,-1.2044,-1.2908,-1.3519,-1.3054,-1.2556,-1.2274,-1.2814,-1.3746,-1.457,-1.3887,-1.3032,-1.2529,-1.3211,-1.3549,-1.3549,-1.3549,-1.3549,-1.3549,-1.3549,-1.3549,-1.3562,-1.3562,-1.3464,-1.3587,-1.3607,-1.3506,-1.312,-1.2607,-1.3298,-1.5049,-1.522,-1.5294,-1.5421,-1.5444,-1.5329,-1.4963,-1.4611,-1.4088,-1.3735,-1.3224,-1.2949,-1.3065,-1.2648,-1.2718,-1.2954,-1.2184,-1.1339,-1.0919,-1.0973,-1.0838,-1.0843,-1.0848,-1.0659,-1.0659,-1.0659,-1.0654,-1.0659,-1.0659,-1.0659,-1.0659,-1.009,-0.9901,-0.9901,-0.9407,-0.9305,-0.9399,-0.9288,-0.9173,-0.8866,-0.8471,-0.827,-0.8266,-0.8065,-0.8069,-0.7867,-0.8069,-0.8069,-0.8069,-0.827,-0.8672,-1.0079,-1.048,-1.0881,-1.0881,-1.0681,-1.1082,-1.1282,-1.1282,-1.1282,-1.1082,-1.0881,-1.0891,-1.111,-1.1368,-1.1255,-1.1143,-1.1239,-1.1322,-1.0949,-1.1648,-1.1474,-1.1312,-1.0887,-1.0396,-1.0393,-1.0565,-1.0498,-1.0479,-1.048,-1.0486,-1.033,-1.0175,-1.0019,-0.9864,-0.9713,-1.0101,-1.0949,-1.2114,-1.2198,-1.1851,-1.1347,-1.1776,-1.2516,-1.2899,-1.2733,-1.205,-1.1374,-1.2216,-1.2561,-1.2561,-1.2567,-1.2561,-1.2561,-1.2567,-1.2605,-1.2682,-1.2701,-1.2771,-1.2898,-1.2911,-1.2809,-1.2755,-1.2594,-1.2979,-1.3591,-1.3687,-1.3707,-1.3852,-1.3859,-1.3709,-1.3578,-1.3407,-1.3407,-1.3059,-1.2419,-1.1732,-1.1183,-1.1154,-1.1446,-1.203,-1.1599,-1.0573,-0.9839,-1.0059,-1.0465,-1.0659,-1.0469,-1.009,-1.009,-0.9517,-0.9328,-0.9328,-0.9711,-1.009,-0.9711,-0.9328,-0.8948,-0.8774,-0.8645,-0.8343,-0.8431,-0.854,-0.8439,-0.8457,-0.827,-0.8065,-0.7666,-0.7666,-0.7465,-0.7267,-0.7065,-0.7264,-0.7465,-0.7666,-0.7867,-0.8668,-0.9074,-0.9275,-0.9271,-0.9271,-0.9271,-0.9271,-0.9472,-0.9472,-0.9472,-0.9677,-0.9677,-0.9689,-0.9697,-0.9779,-0.984,-0.993,-1.0008,-0.9651,-1.0134,-0.9972,-1.0023,-0.9757,-0.9579,-0.9552,-0.9671,-0.9482,-0.9449,-0.9547,-0.9553,-0.9402,-0.9246,-0.9246,-0.909,-0.8797,-0.8888,-0.9432,-1.0583,-1.1028,-1.0824,-1.0436,-1.0859,-1.1237,-1.1576,-1.1409,-1.0898,-1.0393,-1.0898,-1.1237,-1.1237,-1.1237,-1.1237,-1.1237,-1.1271,-1.1339,-1.125,-1.1294,-1.155,-1.1652,-1.1675,-1.1732,-1.184,-1.1857,-1.1897,-1.1959,-1.1902,-1.2073,-1.2698,-1.2698,-1.252,-1.2165,-1.2165,-1.2165,-1.1999,-1.1352,-1.0824,-1.0059,-1.0226,-1.0524,-1.111,-1.085,-1.0018,-0.8739,-0.913,-0.9707,-0.9707,-0.9332,-0.9138,-0.8948,-0.8569,-0.8189,-0.8189,-0.8759,-0.8952,-0.8573,-0.8379,-0.82,-0.8229,-0.7917,-0.7813,-0.7912,-0.8004,-0.7858,-0.7867,-0.7666,-0.7465,-0.7062,-0.7062,-0.6864,-0.6662,-0.6259,-0.6259,-0.6659,-0.6458,-0.6458,-0.6861,-0.7062,-0.7867,-0.8065,-0.8266,-0.8065,-0.7864,-0.7864,-0.7864,-0.8065,-0.8065,-0.8065,-0.8065,-0.8065,-0.8096,-0.8144,-0.8409,-0.8892,-0.8761,-0.8636,-0.8671,-0.844,-0.8174,-0.8259,-0.8374,-0.8483,-0.8435,-0.8683,-0.8613,-0.8622,-0.8622,-0.8466,-0.8622,-0.8622,-0.8646,-0.8586,-0.8837,-0.9083,-0.9524,-0.9462,-0.9216,-0.9564,-1.008,-1.0592,-0.9908,-0.9574,-0.9402,-0.9402,-0.9402,-0.9569,-0.9584,-0.9588,-0.9431,-0.9516,-0.9743,-0.9573,-0.9673,-0.9764,-1.0024,-1.0049,-1.0097,-1.0016,-1.0194,-1.0194,-1.0209,-1.0199,-1.0733,-1.1988,-1.1988,-1.1632,-1.0921,-1.0743,-1.0565,-1.0209,-1.004,-0.9857,-0.9885,-1.0044,-1.0147,-1.0184,-1.0161,-0.9505,-0.8182,-0.7992,-0.7996,-0.7999,-0.7809,-0.7809,-0.7809,-0.7619,-0.7619,-0.7619,-0.7619,-0.7619,-0.7619,-0.7619,-0.7647,-0.7718,-0.78,-0.7902,-0.7818,-0.7663,-0.7264,-0.7264,-0.7065,-0.6662,-0.6461,-0.6461,-0.6461,-0.6259,-0.5856,-0.5652,-0.5652,-0.5452,-0.5452,-0.5251,-0.5049,-0.6256,-0.7264,-0.7465,-0.7465,-0.7264,-0.7261,-0.7062,-0.7062,-0.7062,-0.7062,-0.7062,-0.7062,-0.7264,-0.73,-0.7754,-0.7802,-0.7451,-0.731,-0.7786,-0.7751,-0.7387,-0.7178,-0.7113,-0.7201,-0.7134,-0.7033,-0.7056,-0.7056,-0.7056,-0.7056,-0.7056,-0.7213,-0.7248,-0.7365,-0.7609,-0.7977,-0.8288,-0.8207,-0.7714,-0.7714,-0.839,-0.9412,-0.8905,-0.8566,-0.8566,-0.8566,-0.8566,-0.8579,-0.8463,-0.8497,-0.8514,-0.859,-0.8667,-0.8718,-0.876,-0.8991,-0.961,-0.9619,-0.9637,-0.9669,-0.9852,-0.9852,-0.9491,-0.9491,-0.9491,-0.9313,-1.0209,-1.0565,-1.0209,-1.0209,-0.9852,-0.9134,-0.8778,-0.8421,-0.8083,-0.822,-0.8684,-0.9271,-0.942,-0.8956,-0.7809,-0.7043,-0.7046,-0.7429,-0.7619,-0.7619,-0.7429,-0.7242,-0.7052,-0.7052,-0.6482,-0.6479,-0.7429,-0.7242,-0.7081,-0.7159,-0.6872,-0.6967,-0.7044,-0.6864,-0.6662,-0.6662,-0.6461,-0.6259,-0.6057,-0.5856,-0.5853,-0.5452,-0.5251,-0.5049,-0.5049,-0.4847,-0.4645,-0.4444,-0.4444,-0.5047,-0.5853,-0.6256,-0.6458,-0.6458,-0.6256,-0.6256,-0.6256,-0.6055,-0.6055,-0.6055,-0.6055,-0.6256,-0.6068,-0.6106,-0.5932,-0.5957,-0.6203,-0.6673,-0.6774,-0.6693,-0.6502,-0.6427,-0.648,-0.6396,-0.6271,-0.6271,-0.6271,-0.6271,-0.6271,-0.6271,-0.6448,-0.6655,-0.6609,-0.6845,-0.7545,-0.7512,-0.7059,-0.6376,-0.6205,-0.7052,-0.8068,-0.7562,-0.7391,-0.7562,-0.7562,-0.7577,-0.7608,-0.7658,-0.77,-0.7742,-0.7645,-0.7709,-0.7937,-0.7972,-0.8191,-0.8773,-0.8599,-0.8599,-0.8782,-0.896,-0.8782,-0.8599,-0.8599,-0.8242,-0.771,-0.8603,-0.896,-0.896,-0.896,-0.8603,-0.8063,-0.7885,-0.7531,-0.738,-0.7303,-0.7763,-0.8339,-0.8481,-0.8196,-0.7239,-0.6476,-0.6286,-0.6669,-0.6669,-0.6669,-0.6479,-0.6098,-0.6098,-0.5908,-0.5527,-0.5527,-0.6288,-0.6098,-0.6139,-0.6218,-0.5937,-0.6011,-0.605,-0.5856,-0.5856,-0.5856,-0.5856,-0.5654,-0.545,-0.545,-0.5251,-0.4847,-0.4645,-0.4645,-0.4444,-0.424,-0.4038,-0.4038,-0.4038,-0.424,-0.4442,-0.4845,-0.5251,-0.5251,-0.5251,-0.5251,-0.5251,-0.5251,-0.5452,-0.5452,-0.5251,-0.5251,-0.4864,-0.4671,-0.5094,-0.5317,-0.5339,-0.5584,-0.5645,-0.5816,-0.5952,-0.5861,-0.5877,-0.5936,-0.5958,-0.6115,-0.6115,-0.5958,-0.5958,-0.5962,-0.6155,-0.639,-0.6143,-0.654,-0.7117,-0.6857,-0.6221,-0.5544,-0.5376,-0.5882,-0.656,-0.6053,-0.605,-0.656,-0.656,-0.6596,-0.6819,-0.6672,-0.6706,-0.6779,-0.6848,-0.6888,-0.6908,-0.7139,-0.7167,-0.7352,-0.7352,-0.7352,-0.7535,-0.7531,-0.7352,-0.7173,-0.7352,-0.7173,-0.7173,-0.7173,-0.7173,-0.7173,-0.7352,-0.7352,-0.7173,-0.7173,-0.6994,-0.7014,-0.7134,-0.7204,-0.7243,-0.735,-0.7049,-0.6098,-0.5908,-0.5908,-0.5527,-0.553,-0.5339,-0.4956,-0.4766,-0.4766,-0.4766,-0.4575,-0.4575,-0.4575,-0.4774,-0.5009,-0.5096,-0.4985,-0.503,-0.5045,-0.4847,-0.4847,-0.5049,-0.5049,-0.4847,-0.4847,-0.4847,-0.4645,-0.4444,-0.424,-0.4038,-0.3836,-0.3635,-0.3636,-0.3636,-0.3636,-0.3636,-0.3838,-0.404,-0.4242,-0.4444,-0.4444,-0.4444,-0.4444,-0.4645,-0.4645,-0.4645,-0.4444,-0.4444,-0.4245,-0.4457,-0.4671,-0.4681,-0.4492,-0.4504,-0.463,-0.4223,-0.429,-0.4338,-0.4374,-0.439,-0.4552,-0.4552,-0.4552,-0.4552,-0.4552,-0.4395,-0.4742,-0.4798,-0.4693,-0.5074,-0.563,-0.5858,-0.5214,-0.4539,-0.4372,-0.4878,-0.5552,-0.5552,-0.5549,-0.572,-0.5723,-0.5752,-0.5816,-0.5856,-0.5911,-0.5978,-0.6036,-0.6071,-0.6079,-0.6091,-0.6097,-0.6273,-0.6633,-0.6633,-0.6815,-0.6994,-0.6994,-0.6633,-0.6633,-0.6454,-0.6099,-0.5739,-0.6097,-0.7173,-0.6815,-0.6633,-0.6633,-0.6281,-0.6123,-0.6172,-0.5875,-0.594,-0.6176,-0.6055,-0.5525,-0.5147,-0.4766,-0.4766,-0.4766,-0.4768,-0.4766,-0.4575,-0.4575,-0.4575,-0.4575,-0.4194,-0.3815,-0.3628,-0.4217,-0.4641,-0.4702,-0.4759,-0.4608,-0.4031,-0.444,-0.4641,-0.4645,-0.4645,-0.4645,-0.4242,-0.424,-0.4038,-0.3836,-0.3635,-0.3635,-0.3433,-0.3231,-0.3232,-0.3234,-0.3234,-0.3234,-0.3234,-0.3434,-0.3434,-0.3635,-0.3635,-0.3635,-0.3635,-0.3836,-0.3838,-0.3836,-0.3635,-0.3635,-0.3836,-0.384,-0.3848,-0.3844,-0.3648,-0.365,-0.3592,-0.3635,-0.368,-0.3727,-0.3766,-0.3768,-0.3768,-0.3768,-0.3768,-0.3768,-0.3768,-0.3768,-0.3794,-0.3839,-0.3884,-0.3929,-0.4305,-0.4686,-0.4372,-0.3698,-0.3868,-0.4372,-0.471,-0.4878,-0.4878,-0.4878,-0.4878,-0.4922,-0.4986,-0.5026,-0.508,-0.5147,-0.5186,-0.5022,-0.5201,-0.5204,-0.5201,-0.538,-0.5559,-0.5559,-0.5559,-0.5741,-0.592,-0.5559,-0.5559,-0.5383,-0.5025,-0.4843,-0.5201,-0.5918,-0.5918,-0.5559,-0.5562,-0.5406,-0.5253,-0.5106,-0.4986,-0.5043,-0.5073,-0.493,-0.4383,-0.4194,-0.4004,-0.4194,-0.4196,-0.4196,-0.4196,-0.4006,-0.4004,-0.4004,-0.4004,-0.3624,-0.3434,-0.3244,-0.3642,-0.4056,-0.4095,-0.3936,-0.3777,-0.3602,-0.3615,-0.4226,-0.4236,-0.424,-0.4038,-0.3836,-0.3635,-0.3433,-0.3433,-0.3231,-0.3231,-0.3029,-0.303,-0.303,-0.2626,-0.2424,-0.2424,-0.2626,-0.2626,-0.2828,-0.303,-0.3029,-0.3231,-0.3231,-0.3231,-0.3231,-0.3029,-0.3029,-0.3232,-0.3434,-0.3232,-0.3231,-0.3029,-0.3029,-0.3029,-0.2693,-0.3478,-0.3525,-0.357,-0.3601,-0.3609,-0.3611,-0.3611,-0.3611,-0.3611,-0.3611,-0.3611,-0.3478,-0.3358,-0.3551,-0.3431,-0.2813,-0.3673,-0.3355,-0.3192,-0.3363,-0.3868,-0.3868,-0.3868,-0.4036,-0.4036,-0.4036,-0.4089,-0.4319,-0.4344,-0.4222,-0.4459,-0.4485,-0.4307,-0.4487,-0.4487,-0.4487,-0.4666,-0.4666,-0.4487,-0.4487,-0.4487,-0.4666,-0.4487,-0.4487,-0.4487,-0.4487,-0.4307,-0.4487,-0.4843,-0.4487,-0.4487,-0.4314,-0.435,-0.4379,-0.4397,-0.4457,-0.4506,-0.4332,-0.4177,-0.3812,-0.3431,-0.3812,-0.4004,-0.3815,-0.3815,-0.3624,-0.3243,-0.3052,-0.3243,-0.3243,-0.3243,-0.3243,-0.3052,-0.3244,-0.3066,-0.3091,-0.3119,-0.3149,-0.3178,-0.3183,-0.3197,-0.3216,-0.3227,-0.3227,-0.3433,-0.3433,-0.3231,-0.3231,-0.3232,-0.303,-0.2626,-0.2828,-0.2828,-0.2222,-0.1616,-0.1616,-0.1818,-0.1818,-0.202,-0.2626,-0.2626,-0.2828,-0.2828,-0.2626,-0.2626,-0.2626,-0.2828,-0.283,-0.2828,-0.2626,-0.2828,-0.2828,-0.2626,-0.2626,-0.2382,-0.2691,-0.2751,-0.278,-0.2791,-0.2816,-0.2826,-0.2826,-0.2828,-0.2826,-0.2828,-0.2828,-0.2846,-0.2877,-0.2889,-0.2759,-0.2639,-0.2986,-0.2833,-0.2859,-0.2859,-0.3029,-0.3027,-0.3027,-0.3362,-0.37,-0.4036,-0.4085,-0.415,-0.4179,-0.422,-0.4295,-0.4128,-0.4307,-0.4307,-0.4128,-0.4307,-0.4307,-0.4307,-0.4307,-0.4307,-0.4307,-0.4128,-0.3949,-0.4128,-0.4307,-0.4128,-0.3947,-0.3768,-0.3947,-0.4128,-0.4128,-0.4136,-0.4352,-0.4208,-0.4246,-0.4104,-0.4149,-0.4367,-0.3808,-0.3242,-0.3242,-0.3242,-0.3242,-0.3243,-0.3243,-0.3243,-0.3052,-0.3052,-0.3052,-0.3052,-0.3052,-0.3052,-0.3052,-0.3052,-0.3055,-0.3066,-0.3089,-0.3119,-0.3142,-0.3153,-0.3164,-0.3191,-0.3197,-0.3205,-0.3223,-0.323,-0.3231,-0.3232,-0.3032,-0.3032,-0.2626,-0.2222,-0.2222,-0.1818,-0.1212,-0.101,-0.101,-0.1212,-0.1212,-0.1818,-0.202,-0.202,-0.202,-0.1818,-0.202,-0.202,-0.202,-0.1818,-0.202,-0.0,-0.202,-0.202,-0.202,-0.202,-0.2365,-0.238,-0.2398,-0.2421,-0.2446,-0.245,-0.2467,-0.2489,-0.2493,-0.2502,-0.2512,-0.2514,-0.2681,-0.2856,-0.2713,-0.2579,-0.2607,-0.2637,-0.2664,-0.2687,-0.2692,-0.2692,-0.2692,-0.2691,-0.3027,-0.3363,-0.3363,-0.3408,-0.3459,-0.3483,-0.3515,-0.3585,-0.3592,-0.3592,-0.3592,-0.3592,-0.359,-0.3592,-0.3592,-0.3771,-0.3771,-0.3771,-0.359,-0.3411,-0.3592,-0.3592,-0.3592,-0.3411,-0.3231,-0.3411,-0.3592,-0.3592,-0.3602,-0.3641,-0.368,-0.3704,-0.3569,-0.36,-0.3621,-0.3434,-0.3052,-0.3052,-0.3052,-0.3052,-0.3052,-0.3052,-0.3052,-0.3052,-0.3052,-0.3052,-0.3052,-0.3052,-0.3052,-0.3052,-0.3052,-0.3052,-0.3055,-0.3067,-0.3088,-0.3112,-0.3122,-0.3138,-0.3155,-0.3164,-0.3182,-0.3,-0.3208,-0.321,-0.2626,-0.2626,-0.3032,-0.2626,-0.1818,-0.1414,-0.1212,-0.0808,-0.0404,-0.0404,-0.0606,-0.0606,-0.0808,-0.0808,-0.0808,-0.0,-0.0,-0.0,-0.0808,-0.0808,-0.0,-0.0,-0.0,-0.0,-0.0,-0.0,-0.0,-0.2343,-0.2369,-0.2343,-0.2364,-0.2402,-0.239,-0.2409,-0.245,-0.2461,-0.2474,-0.2497,-0.2504,-0.2661,-0.2825,-0.2697,-0.2552,-0.2575,-0.262,-0.2662,-0.2677,-0.269,-0.2691,-0.2692,-0.2692,-0.2692,-0.2692,-0.2861,-0.2895,-0.2933,-0.2784,-0.2985,-0.3037,-0.2874,-0.3053,-0.2874,-0.2874,-0.3053,-0.3053,-0.3053,-0.3053,-0.3053,-0.3053,-0.3053,-0.3053,-0.3053,-0.3053,-0.3053,-0.3053,-0.2874,-0.2874,-0.2874,-0.2874,-0.2889,-0.2927,-0.2962,-0.2964,-0.3204,-0.3236,-0.3242,-0.3243,-0.3052,-0.3052,-0.3052,-0.2862,-0.2862,-0.2671,-0.2671,-0.2671,-0.2671,-0.2671,-0.2862,-0.2671,-0.2862,-0.3052,-0.3052,-0.2862,-0.3052,-0.3052,-0.2877,-0.3084,-0.3092,-0.3104,-0.2928,-0.2941,-0.2959,-0.2975,-0.2983,-0.2995,-0.2412,-0.0,-0.0,-0.0,-0.1212,-0.0,-0.0,-0.0,-0.0,-0.0,-0.0,-0.0,-0.0,-0.0,-0.0,-0.0,-0.0,-0.0,-0.0,-0.0,-0.0,-0.0,-0.0,-0.0,-0.0,-0.0,-0.0,-0.2315,-0.2341,-0.2335,-0.2339,-0.235,-0.2368,-0.238,-0.2397,-0.242,-0.2433,-0.2443,-0.2465,-0.2477,-0.264,-0.2508,-0.2534,-0.2567,-0.2612,-0.2646,-0.2661,-0.2677,-0.2688,-0.2692,-0.2692,-0.2692,-0.2692,-0.2694,-0.2713,-0.2746,-0.2772,-0.2628,-0.2836,-0.2863,-0.2874,-0.2694,-0.2874,-0.2694,-0.2694,-0.2694,-0.2694,-0.2694,-0.2694,-0.2694,-0.2694,-0.2694,-0.2694,-0.2874,-0.2874,-0.2874,-0.2874,-0.2874,-0.2874,-0.2885,-0.2928,-0.2956,-0.2788,-0.2826,-0.2857,-0.3051,-0.3052,-0.3052,-0.3052,-0.3052,-0.2671,-0.2098,-0.1716,-0.1716,-0.1716,-0.1716,-0.1716,-0.1716,-0.1716,-0.2288,-0.2479,-0.2479,-0.2288,-0.2671,-0.248,-0.21,-0.249,-0.2876,-0.307,-0.2897,-0.272,-0.2342,-0.2161,-0.2171,-0.2381,-0.2199,-0.0,-0.0,-0.0,-0.0202,-0.0,-0.0,-0.0,-0.0,-0.0,-0.0,-0.0,-0.0,-0.0,-0.0,-0.0,-0.0,-0.0,-0.0,-0.0,-0.0,-0.0,-0.0,-0.0,-0.0,-0.0,-0.0,-0.2275,-0.2289,-0.2304,-0.2311,-0.2311,-0.2309,-0.2327,-0.2354,-0.2371,-0.2395,-0.242,-0.2439,-0.2609,-0.2623,-0.2638,-0.2515,-0.256,-0.2583,-0.2617,-0.2643,-0.2662,-0.2679,-0.269,-0.2691,-0.2692,-0.2692,-0.2695,-0.237,-0.2053,-0.2076,-0.2098,-0.2122,-0.2144,-0.2156,-0.2156,-0.2156,-0.2156,-0.2156,-0.2156,-0.2156,-0.2156,-0.2156,-0.2156,-0.2156,-0.2156,-0.2156,-0.2156,-0.2156,-0.2156,-0.2156,-0.2156,-0.2156,-0.2345,-0.2547,-0.2762,-0.241,-0.2254,-0.2468,-0.2858,-0.2671,-0.2098,-0.1716,-0.2288,-0.2862,-0.2099,-0.1526,-0.0,-0.0,-0.0,-0.0763,-0.0763,-0.0,-0.0954,-0.1526,-0.1907,-0.248,-0.2671,-0.1908,-0.1717,-0.1717,-0.191,-0.2296,-0.3065,-0.2502,-0.1932,-0.1554,-0.137,-0.138,-0.1588,-0.0,-0.0,-0.0,0.0202,-0.0,-0.0,-0.0,-0.0,-0.0,-0.0,-0.0,-0.0,-0.0,-0.0,-0.0,-0.0,-0.0,-0.0,-0.0,-0.0,-0.0,-0.0,-0.0,-0.0,-0.0,-0.0,-0.2225,-0.2237,-0.2256,-0.2267,-0.2268,-0.2247,-0.2263,-0.2301,-0.232,-0.235,-0.2394,-0.2409,-0.258,-0.2756,-0.2623,-0.2499,-0.2549,-0.2556,-0.2589,-0.2619,-0.2479,-0.233,-0.2677,-0.2355,-0.202,-0.1851,-0.2527,-0.2369,-0.1876,-0.1209,-0.1048,-0.1057,-0.1069,-0.1077,-0.1077,-0.1077,-0.1077,-0.1077,-0.1077,-0.1077,-0.1077,-0.1077,-0.1077,-0.1077,-0.1077,-0.1077,-0.1077,-0.1077,-0.1077,-0.1077,-0.1077,-0.1257,-0.1618,-0.2354,-0.2561,-0.185,-0.1496,-0.1699,-0.1902,-0.1717,-0.0954,-0.0572,-0.1526,-0.2289,-0.2099,-0.0,-0.0,-0.0,-0.0,-0.0,-0.0,-0.0,-0.0,-0.0382,-0.1526,-0.2099,-0.1336,-0.0572,-0.0,-0.0191,-0.0572,-0.1145,-0.172,-0.1913,-0.096,-0.0193,-0.0194,0.078,0.059,-0.0,-0.0,-0.0,0.0605,0.0606,-0.0,-0.0,-0.0,-0.0,-0.0,-0.0,0.1818,-0.0,0.2222,0.1818,-0.0,-0.0,-0.0,-0.0,-0.0,-0.0,-0.0,-0.0,-0.0,-0.0,-0.0,-0.2157,-0.2203,-0.2181,-0.2185,-0.221,-0.2208,-0.2208,-0.2225,-0.2274,-0.2298,-0.232,-0.236,-0.2384,-0.2555,-0.2604,-0.2488,-0.2518,-0.2545,-0.2563,-0.2423,-0.1967,-0.1987,-0.2162,-0.1006,-0.0505,-0.0505,-0.1853,-0.2528,-0.1867,-0.0689,-0.0,-0.0,-0.0,-0.0,-0.0,-0.0,-0.018,-0.0,-0.0,-0.0,-0.0,-0.0,-0.0,-0.0,-0.0,-0.0,-0.0,-0.0,-0.0,-0.0,-0.0,-0.0,-0.1437,-0.2336,-0.273,-0.2215,-0.1309,-0.0,-0.0,-0.0,-0.0,-0.0,-0.0,-0.0,-0.0382,-0.0191,-0.0,-0.0,-0.0,-0.0,-0.0,-0.0,-0.0,-0.0,-0.0191,0.0382,0.1336,0.0763,0.1336,0.1336,0.0954,0.0381,-0.0,-0.0191,-0.0191,0.0575,0.1347,0.1935,0.2341,0.177,0.1386,0.1398,0.141,0.1413,0.1414,0.1414,0.1414,0.1414,0.1414,0.1616,0.2222,0.3032,0.3032,0.2626,0.2424,0.202,-0.0,-0.0,-0.0,-0.0,-0.0,-0.0,-0.0,-0.0,-0.0,-0.2181,-0.2127,-0.2163,-0.2177,-0.2177,-0.2192,-0.22,-0.2206,-0.2228,-0.2259,-0.229,-0.2315,-0.2345,-0.2384,-0.2442,-0.2476,-0.2493,-0.2521,-0.2545,-0.2403,-0.2115,-0.1645,-0.083,0.0502,0.1516,0.101,0.0337,-0.0168,-0.0169,-0.0,-0.0,-0.0,-0.0,-0.0,-0.0,-0.0,-0.0,-0.0,-0.0,-0.0,-0.0,-0.0,-0.0,-0.0,-0.0,-0.0,-0.0,-0.0,-0.0,-0.0,-0.0,-0.0,-0.0539,-0.1078,-0.1266,-0.1099,-0.0556,-0.0,-0.0,-0.0,-0.0,-0.0,-0.0,-0.0,-0.0,0.0954,0.1717,-0.0,-0.0,0.0954,0.0763,0.0763,0.0763,0.0763,0.0763,0.1336,0.2099,0.2671,0.2671,0.248,0.2288,0.1717,0.1336,0.1145,0.0954,0.1146,0.1533,0.2117,0.2529,0.2561,0.2377,0.2589,0.2409,0.2424,0.2424,0.2424,0.2424,0.2424,0.2424,0.2424,0.2626,0.3032,0.303,0.3232,0.3029,0.2423,0.1616,-0.0,-0.0,-0.0,-0.0,0.101,0.0808,-0.0,-0.0,-0.2342,-0.2049,-0.2124,-0.2148,-0.2146,-0.2168,-0.2181,-0.2188,-0.2199,-0.2226,-0.2263,-0.2286,-0.2324,-0.2379,-0.2429,-0.2461,-0.2473,-0.25,-0.2209,-0.2074,-0.2096,-0.1467,-0.0165,0.1666,0.2519,0.2695,0.1851,0.1514,0.1354,-0.0,-0.0,0.0348,-0.0,-0.0,-0.0,-0.0,-0.0,-0.0,-0.0,-0.0,-0.0,-0.0,-0.0,-0.0,-0.0,-0.0,-0.0,-0.0,-0.0,-0.0,-0.0,-0.0,-0.0,0.0359,0.0722,0.0547,0.0736,-0.0,-0.0,-0.0,-0.0,0.0573,0.0763,-0.0,-0.0,0.1908,0.2862,0.2862,0.2288,0.1907,0.1907,0.1907,0.1907,0.1907,0.1907,0.1907,0.1907,0.2671,0.3052,0.2862,0.2862,0.2862,0.248,0.2098,0.1907,0.1907,0.2102,0.2298,0.271,0.2945,0.2963,0.2975,0.3009,0.3028,0.303,0.303,0.3232,0.3234,0.3234,0.3232,0.303,0.303,0.3232,0.3231,0.3231,0.3029,0.2423,0.2221,0.202,0.202,0.202,0.202,0.202,0.202,0.202,-0.2558,-0.1985,-0.2019,-0.2065,-0.2244,-0.2114,-0.2132,-0.2159,-0.2187,-0.2202,-0.2082,-0.2266,-0.2177,-0.2223,-0.2257,-0.2442,-0.2469,-0.25,-0.157,-0.1263,-0.1433,-0.1291,0.0163,0.165,0.2668,0.2687,0.2355,0.2356,0.2529,0.2211,0.1721,0.1392,0.1411,0.1246,0.1253,0.1257,0.1257,0.1257,0.1257,0.1257,0.1257,0.1257,0.1257,0.1257,0.1257,-0.0,-0.0,-0.0,-0.0,-0.0,-0.0,-0.0,-0.0,0.1257,0.1805,0.1998,0.1644,0.1289,0.1302,0.0755,0.1143,0.2098,0.2671,0.2099,0.1526,0.1526,0.2098,0.3052,0.2862,0.2862,0.2862,0.3052,0.2671,0.2671,0.2671,0.2671,0.2671,0.2671,0.3052,0.3052,0.3052,0.3052,0.3052,0.2671,0.2671,0.2479,0.2479,0.2677,0.2885,0.3114,0.3138,0.3161,0.3204,0.3224,0.323,0.3231,0.3231,0.3231,0.3231,0.3231,0.3231,0.3231,0.3231,0.3231,0.323,0.323,0.3231,0.2827,0.2626,0.303,0.3032,0.2828,0.2626,0.2626,0.2828,-0.2294,-0.1977,-0.1989,-0.2016,-0.2056,-0.2094,-0.2116,-0.2131,-0.2159,-0.1911,-0.1515,-0.1555,-0.1583,-0.175,-0.2079,-0.2261,-0.2289,-0.1236,-0.0623,-0.0315,-0.0477,-0.0481,0.0648,0.1638,0.2654,0.2668,0.268,0.2692,0.2695,0.2707,0.257,0.2255,0.2283,0.231,0.2326,0.2156,0.2335,0.2335,0.2335,0.2335,0.2335,0.2335,0.2335,0.2335,0.2335,0.2156,-0.0,-0.0,-0.0,0.0898,0.0898,0.0898,0.0898,0.1796,0.2341,0.2894,0.2362,0.2375,0.2023,0.1495,0.1704,0.267,0.3052,0.2862,0.2479,0.2479,0.2671,0.3052,0.3052,0.3052,0.3052,0.3052,0.3052,0.3052,0.3052,0.3052,0.3052,0.3052,0.3052,0.3052,0.3052,0.3052,0.3052,0.3052,0.3052,0.3052,0.3052,0.3055,0.3073,0.3095,0.3123,0.3152,0.3193,0.3221,0.3228,0.323,0.323,0.323,0.323,0.323,0.323,0.323,0.3231,0.323,0.323,0.323,0.3231,0.3231,0.3231,0.3232,0.3232,0.3029,0.3232,0.3232,0.3232,-0.2162,-0.1974,-0.1977,-0.1993,-0.2023,-0.2074,-0.197,-0.1849,-0.2142,-0.1629,-0.0826,-0.0845,-0.0856,-0.1008,-0.1323,-0.1497,-0.1213,-0.0614,0.0155,0.0314,0.0317,0.0319,0.1126,0.179,0.2638,0.265,0.2675,0.2692,0.2692,0.2692,0.2722,0.2762,0.28,0.2831,0.2867,0.2874,0.2874,0.2874,0.2874,0.2874,0.2874,0.2874,0.2874,0.2874,0.2874,0.2694,0.2515,0.2156,0.1976,0.1796,0.1796,0.1796,0.1796,0.1976,0.2156,0.2701,0.2891,0.2906,0.2738,0.2587,0.2254,0.3029,0.3036,0.3041,0.305,0.3052,0.3052,0.3052,0.3052,0.3052,0.3052,0.3052,0.3052,0.3052,0.3052,0.3052,0.3052,0.3052,0.3052,0.3052,0.3052,0.3052,0.3052,0.3052,0.3052,0.3052,0.3052,0.3054,0.3061,0.3088,0.312,0.315,0.3183,0.3208,0.3228,0.323,0.323,0.323,0.323,0.323,0.323,0.323,0.323,0.323,0.323,0.323,0.3231,0.3231,0.3231,0.3231,0.3231,0.3231,0.3231,0.3231,0.3231,-0.2161,-0.1974,-0.1977,-0.1993,-0.2022,-0.2052,-0.1691,-0.1448,-0.1739,-0.1356,-0.0,-0.0,-0.0,-0.0,-0.0,-0.0,-0.0,-0.0,0.0775,0.1568,0.0945,0.1267,0.1758,0.2426,0.2617,0.2647,0.2671,0.2684,0.2692,0.2692,0.2714,0.2746,0.2784,0.2823,0.287,0.2874,0.2874,0.2874,0.2874,0.2874,0.2874,0.2874,0.2874,0.2874,0.2874,0.2874,0.2874,0.2694,0.2515,0.2515,0.2515,0.2515,0.2694,0.2694,0.2694,0.2876,0.2876,0.2878,0.2882,0.2932,0.2969,0.3003,0.3011,0.3024,0.3043,0.3051,0.3052,0.3052,0.3052,0.3052,0.3052,0.3052,0.3052,0.3052,0.3052,0.3052,0.3052,0.3052,0.3052,0.3052,0.3052,0.3052,0.3052,0.3052,0.3052,0.3052,0.3052,0.3054,0.3056,0.308,0.3114,0.3138,0.3168,0.3194,0.3215,0.3227,0.323,0.323,0.323,0.323,0.323,0.323,0.323,0.323,0.323,0.323,0.323,0.323,0.323,0.323,0.323,0.3231,0.323,0.323,0.323,-0.2041,-0.1977,-0.1977,-0.1993,-0.1897,-0.1538,-0.1424,-0.1567,-0.1065,-0.0,-0.0,-0.0,-0.0,-0.0,-0.0,-0.0,-0.0,-0.0,0.0923,0.2196,0.1728,0.2046,0.238,0.2563,0.259,0.2619,0.2646,0.2676,0.2692,0.2692,0.271,0.274,0.2782,0.2833,0.2864,0.2874,0.2874,0.2874,0.2874,0.2874,0.2874,0.2874,0.2874,0.2874,0.2874,0.2874,0.2874,0.2874,0.2874,0.2874,0.2874,0.2874,0.2874,0.2874,0.2874,0.2874,0.2874,0.2874,0.2875,0.2901,0.2926,0.2961,0.2992,0.3005,0.3021,0.3043,0.3048,0.3052,0.3243,0.3243,0.3052,0.3052,0.3052,0.3052,0.3052,0.3052,0.3052,0.3052,0.3052,0.3052,0.3052,0.3052,0.3052,0.3052,0.3052,0.3052,0.3052,0.3052,0.3055,0.3077,0.3106,0.3125,0.3149,0.3178,0.32,0.3206,0.3219,0.3223,0.3227,0.323,0.323,0.323,0.323,0.323,0.323,0.323,0.323,0.323,0.323,0.323,0.323,0.323,0.323,0.323,0.323,-0.193,-0.1975,-0.1977,-0.1994,-0.1898,-0.154,-0.1427,-0.1181,-0.0,-0.0,-0.0,-0.0,-0.0,-0.0,-0.0,-0.0,-0.0,-0.0,0.0611,0.2028,0.2354,0.2357,0.2525,0.286,0.305,0.308,0.2955,0.2992,0.2842,0.2687,0.2709,0.2743,0.2787,0.2821,0.2849,0.2864,0.2874,0.2874,0.2874,0.2874,0.2874,0.2874,0.2874,0.2874,0.2874,0.2874,0.2874,0.2874,0.2874,0.2874,0.2874,0.2874,0.2874,0.2874,0.2874,0.2874,0.3053,0.3233,0.3414,0.3053,0.3081,0.3471,0.3328,0.2984,0.3002,0.3024,0.304,0.3047,0.3242,0.3434,0.3434,0.3434,0.3624,0.3624,0.3624,0.3624,0.3624,0.3624,0.3243,0.3243,0.3243,0.3243,0.3243,0.3052,0.3052,0.3052,0.3052,0.3052,0.3243,0.307,0.3091,0.3108,0.3125,0.3148,0.3167,0.3179,0.3194,0.3212,0.3217,0.322,0.323,0.323,0.323,0.323,0.323,0.323,0.323,0.323,0.323,0.323,0.323,0.323,0.323,0.323,0.323,-0.1948,-0.1975,-0.1978,-0.1997,-0.2026,-0.1804,-0.1183,-0.0,-0.0,-0.0,-0.0,-0.0,-0.0,-0.0,-0.0,-0.0,-0.0,-0.0,-0.0,0.1543,0.2183,0.2348,0.2836,0.3173,0.3672,0.3705,0.3587,0.3302,0.3314,0.3015,0.2878,0.2733,0.2763,0.2797,0.2825,0.2851,0.2866,0.2871,0.2874,0.2874,0.2874,0.2874,0.2874,0.2874,0.2874,0.2874,0.2874,0.2874,0.2874,0.2874,0.2874,0.2874,0.2874,0.2874,0.2874,0.3053,0.3411,0.3769,0.3949,0.3409,0.3411,0.3794,0.3631,0.3314,0.3168,0.3378,0.3401,0.3608,0.3618,0.3812,0.3815,0.4196,0.4385,0.4385,0.4385,0.4385,0.4194,0.4004,0.3813,0.3623,0.3434,0.3434,0.3434,0.3434,0.3434,0.3624,0.3624,0.3434,0.3434,0.3052,0.3071,0.3086,0.3101,0.3114,0.3131,0.3152,0.3167,0.3185,0.3197,0.3202,0.3215,0.3228,0.323,0.323,0.323,0.323,0.323,0.323,0.323,0.323,0.323,0.323,0.323,0.323,0.323,-0.1947,-0.1978,-0.1999,-0.2024,-0.1929,-0.0922,-0.0401,-0.0,-0.0,-0.0,-0.0,-0.0,-0.0,-0.0,-0.0,0.0881,-0.0,-0.0,-0.0,0.1687,0.2325,0.2495,0.2823,0.3471,0.3967,0.4326,0.4055,0.3774,0.3645,0.3346,0.303,0.2709,0.2911,0.2769,0.2799,0.2827,0.2851,0.287,0.2874,0.2874,0.2874,0.2874,0.2874,0.2874,0.2874,0.2874,0.2874,0.2874,0.2874,0.3053,0.2874,0.3053,0.3411,0.3411,0.3411,0.3951,0.4128,0.4128,0.4307,0.4128,0.4126,0.4487,0.4504,0.4534,0.4228,0.3905,0.3941,0.3966,0.4177,0.4373,0.4383,0.4575,0.4766,0.4956,0.4956,0.4766,0.4766,0.4575,0.4385,0.4194,0.4196,0.4004,0.4006,0.4006,0.4004,0.4196,0.4006,0.3815,0.3624,0.3434,0.3055,0.3071,0.3082,0.3095,0.311,0.3127,0.3141,0.3156,0.317,0.3186,0.3201,0.3213,0.3224,0.323,0.323,0.323,0.323,0.323,0.323,0.323,0.323,0.323,0.323,0.323,0.323,-0.1958,-0.1979,-0.2007,-0.1659,-0.1043,-0.0,-0.0,-0.0,-0.0,-0.0,-0.0,-0.0,0.0281,-0.0,0.1735,0.176,-0.0,-0.0,0.1653,0.2134,0.2462,0.2488,0.2816,0.3613,0.4416,0.4616,0.45,0.4221,0.4116,0.384,0.3533,0.337,0.3233,0.3096,0.3133,0.3168,0.3023,0.3042,0.2874,0.2874,0.2874,0.2874,0.2874,0.2874,0.2874,0.3053,0.3231,0.3231,0.3231,0.3412,0.3412,0.3592,0.3949,0.3949,0.4128,0.4487,0.4485,0.4664,0.4845,0.4845,0.4845,0.5025,0.5386,0.5224,0.4903,0.4589,0.4459,0.4316,0.4719,0.4932,0.4945,0.4956,0.5147,0.5147,0.5147,0.5147,0.5147,0.5147,0.5147,0.5149,0.4958,0.4575,0.4575,0.4575,0.4575,0.4385,0.4385,0.4385,0.4006,0.3815,0.3434,0.3059,0.3067,0.3077,0.3091,0.3101,0.311,0.3126,0.3149,0.3165,0.3183,0.3205,0.3223,0.3228,0.323,0.3228,0.3426,0.323,0.323,0.323,0.3231,0.323,0.323,0.323,0.323,-0.1975,-0.1984,-0.2012,-0.1288,-0.0132,-0.0,-0.0,-0.0,-0.0,-0.0,-0.0,-0.0,0.0848,0.1429,0.203,0.2189,0.1908,0.1919,0.2091,0.2424,0.2447,0.2629,0.3285,0.4084,0.4721,0.4892,0.4934,0.4685,0.4579,0.4318,0.4038,0.4038,0.3901,0.3771,0.3464,0.3501,0.3537,0.3213,0.3047,0.2874,0.2874,0.2874,0.2874,0.3053,0.3053,0.3233,0.359,0.3768,0.3768,0.4128,0.4307,0.4307,0.4307,0.4487,0.4666,0.4843,0.5022,0.5201,0.5383,0.5383,0.5562,0.5562,0.5741,0.5567,0.5238,0.5101,0.4979,0.5018,0.5232,0.5275,0.5296,0.5498,0.5692,0.5707,0.5718,0.5718,0.5718,0.5718,0.5718,0.553,0.5337,0.5147,0.5147,0.5147,0.5147,0.4956,0.4956,0.4956,0.4575,0.4196,0.3815,0.3434,0.3249,0.3256,0.3065,0.3073,0.3076,0.3093,0.3122,0.3344,0.3365,0.3392,0.3424,0.3613,0.3798,0.3615,0.3619,0.3619,0.3624,0.3433,0.3433,0.3231,0.3231,0.3231,0.323,-0.1986,-0.2014,-0.2065,-0.1582,-0.0803,-0.0269,-0.0,-0.0,-0.0,-0.0,-0.0,0.1116,0.1273,0.1004,0.1885,0.2334,0.2338,0.2346,0.2823,0.3009,0.2889,0.3081,0.3441,0.4393,0.4868,0.5041,0.4929,0.5,0.4921,0.4662,0.4372,0.4036,0.4056,0.4083,0.3956,0.3997,0.3859,0.3723,0.3214,0.3046,0.3049,0.3052,0.3053,0.3231,0.3411,0.3769,0.3947,0.4128,0.4128,0.4307,0.4307,0.4487,0.4843,0.5204,0.5383,0.5559,0.5559,0.5559,0.5562,0.5741,0.5741,0.5741,0.5741,0.5741,0.5581,0.5442,0.548,0.5513,0.5552,0.56,0.5831,0.5847,0.6055,0.6076,0.6098,0.6098,0.6098,0.6098,0.6098,0.5908,0.5908,0.5718,0.5718,0.5718,0.5718,0.5718,0.5718,0.5718,0.5337,0.4958,0.4387,0.4006,0.3815,0.3628,0.3434,0.3244,0.3443,0.3455,0.3289,0.3512,0.3739,0.3767,0.3992,0.4163,0.4346,0.4172,0.4192,0.4395,0.4402,0.4021,0.3836,0.3836,0.3433,0.3433,0.3231,-0.199,-0.2026,-0.2084,-0.1861,-0.1479,-0.0404,-0.0,-0.0,-0.0,0.0414,0.0972,0.183,0.1853,0.1009,0.2035,0.2333,0.2333,0.2333,0.31,0.359,0.3786,0.3676,0.4183,0.4698,0.4865,0.5036,0.5087,0.5164,0.5254,0.5145,0.4843,0.4535,0.4544,0.4567,0.4442,0.448,0.434,0.3859,0.3544,0.3385,0.3391,0.3399,0.3409,0.3769,0.3947,0.4128,0.4485,0.4664,0.4843,0.4845,0.5025,0.5022,0.538,0.5562,0.5562,0.5741,0.5741,0.5741,0.5741,0.5741,0.5741,0.5741,0.5741,0.5741,0.5741,0.5602,0.5625,0.566,0.5678,0.5723,0.5805,0.6025,0.6055,0.6082,0.6093,0.6098,0.6098,0.6098,0.6098,0.6098,0.5908,0.5908,0.5908,0.5908,0.5908,0.5908,0.6098,0.6098,0.5718,0.553,0.5149,0.4768,0.4387,0.4196,0.4006,0.4004,0.4006,0.383,0.3652,0.3883,0.4312,0.4532,0.4739,0.4714,0.4706,0.4528,0.4743,0.4951,0.4778,0.44,0.4423,0.4242,0.4038,0.3833,0.3836,-0.1993,-0.203,-0.209,-0.2131,-0.2018,-0.0673,-0.0,-0.0,0.0274,0.0972,0.183,0.214,0.2311,0.2326,0.2333,0.2333,0.2333,0.2625,0.3533,0.432,0.4673,0.4428,0.4326,0.468,0.4855,0.5041,0.5087,0.5145,0.5378,0.5275,0.5164,0.5373,0.5395,0.5243,0.4937,0.4793,0.4648,0.434,0.4201,0.4226,0.4073,0.3923,0.412,0.4307,0.4487,0.4666,0.5022,0.5201,0.538,0.538,0.5562,0.5562,0.5559,0.5741,0.5741,0.5741,0.5741,0.5741,0.5741,0.5741,0.5741,0.5741,0.5741,0.5741,0.5741,0.5755,0.5779,0.5796,0.5815,0.5858,0.594,0.6003,0.6036,0.6074,0.6082,0.6093,0.6096,0.6096,0.6098,0.6098,0.6098,0.6098,0.6098,0.6098,0.6098,0.6098,0.6098,0.6098,0.6098,0.5908,0.553,0.5337,0.5147,0.4956,0.4575,0.4575,0.4385,0.4391,0.4219,0.4453,0.4876,0.5082,0.528,0.5074,0.5071,0.5074,0.5093,0.5305,0.514,0.4966,0.4798,0.4821,0.4628,0.4427,0.4641,-0.2005,-0.206,-0.2121,-0.215,-0.1885,-0.0673,-0.0,-0.0,0.1389,0.1831,0.1711,0.2021,0.233,0.2333,0.2333,0.2333,0.2333,0.2771,0.3675,0.4612,0.4807,0.472,0.4781,0.4831,0.5014,0.5041,0.5079,0.5142,0.5358,0.5262,0.5324,0.5379,0.5384,0.5392,0.5403,0.5266,0.5133,0.4819,0.4848,0.4707,0.491,0.4774,0.4476,0.4664,0.4843,0.5201,0.538,0.5559,0.5562,0.5741,0.5741,0.5741,0.5741,0.5741,0.5741,0.5741,0.5741,0.5741,0.5741,0.5741,0.5741,0.5741,0.5741,0.5741,0.5741,0.5741,0.5758,0.5758,0.5777,0.5801,0.5869,0.5921,0.5962,0.6019,0.6049,0.6074,0.6087,0.6093,0.6098,0.6098,0.6098,0.6098,0.6098,0.6098,0.6098,0.6098,0.6098,0.6098,0.6098,0.6098,0.6098,0.5908,0.5718,0.5337,0.4766,0.4766,0.4766,0.477,0.4776,0.4996,0.5404,0.5799,0.5799,0.5601,0.5589,0.5774,0.5802,0.5651,0.5478,0.5509,0.5356,0.5386,0.4998,0.5013,0.5226]},{"header":{"parameterUnit":"m.s-1","parameterCategory":1,"la1":31.0,"la2":29.5877,"lo1":-88.7671,"lo2":-86.6584,"dy":0.0162,"dx":0.0185,"nx":115,"ny":88,"refTime":"2023-10-20T06:00:00:Z","depth":0,"parameterNumber":3,"parameterNumberName":"V-component_of_WINDS"},"data":[0.0,0.0,0.0,0.0,0.0,0.0,0.0,0.0,0.0,0.0,0.0,0.0,0.0,0.0,0.0,0.0,0.0,0.0,0.0,0.0,0.0,0.0,0.0,0.0,0.0,0.0,0.0,0.0,0.0,0.0,0.0,0.0,0.0,0.0,0.0,0.0,0.0,0.0,0.0,0.0,0.0,0.0,0.0,0.0,0.0,0.0,0.0,0.0,0.0,0.0,0.0,0.0,0.0,0.0,0.0,0.0,0.0,0.0,0.0,0.0,0.0,0.0,0.0,0.0,0.0,0.0,0.0,0.0,0.0,0.0,0.0,0.0,0.0,0.0,0.0,0.0,0.0,0.0,0.0,0.0,0.0,0.0,0.0,0.0,0.0,0.0,0.0,0.0,0.0,0.0,0.0,0.0,0.0,0.0,0.0,0.0,0.0,0.0,0.0,0.0,0.0,0.0,0.0,0.0,0.0,0.0,0.0,0.0,0.0,0.0,0.0,0.0,0.0,0.0,0.0,0.0,0.0,0.0,0.0,0.0,0.0,0.0,0.0,0.0,0.0,0.0,0.0,0.0,0.0,0.0,0.0,0.0,0.0,0.0,0.0,0.0,0.0,0.0,0.0,0.0,0.0,0.0,0.0,0.0,0.0,0.0,0.0,0.0,0.0,0.0,0.0,0.0,0.0,0.0,0.0,0.0,0.0,0.0,0.0,0.0,0.0,0.0,0.0,0.0,0.0,0.0,0.0,0.0,0.0,0.0,0.0,0.0,0.0,0.0,0.0,0.0,0.0,0.0,0.0,0.0,0.0,0.0,0.0,0.0,0.0,0.0,0.0,0.0,0.0,0.0,0.0,0.0,0.0,0.0,0.0,0.0,0.0,0.0,0.0,0.0,0.0,0.0,0.0,0.0,0.0,0.0,0.0,0.0,0.0,0.0,0.0,0.0,0.0,0.0,0.0,0.0,0.0,0.0,0.0,0.0,0.0,0.0,0.0,0.0,0.0,0.0,0.0,0.0,0.0,0.0,0.0,0.0,0.0,0.0,0.0,0.0,0.0,0.0,0.0,0.0,0.0,0.0,0.0,0.0,0.0,0.0,0.0,0.0,0.0,0.0,0.0,0.0,0.0,0.0,0.0,0.0,0.0,0.0,0.0,0.0,0.0,0.0,0.0,0.0,0.0,0.0,0.0,0.0,0.0,0.0,0.0,0.0,0.0,0.0,0.0,0.0,0.0,0.0,0.0,0.0,0.0,0.0,0.0,0.0,0.0,0.0,0.0,0.0,0.0,0.0,0.0,0.0,0.0,0.0,0.0,0.0,0.0,0.0,0.0,0.0,0.0,0.0,0.0,0.0,0.0,0.0,0.0,0.0,0.0,0.0,0.0,0.0,0.0,0.0,0.0,0.0,0.0,0.0,0.0,0.0,0.0,0.0,0.0,0.0,0.0,0.0,0.0,0.0,0.0,0.0,0.0,0.0,0.0,0.0,0.0,0.0,0.0,0.0,0.0,0.0,0.0,0.0,0.0,0.0,0.0,0.0,0.0,0.0,0.0,0.0,0.0,0.0,0.0,0.0,0.0,0.0,0.0,0.0,0.0,0.0,0.0,0.0,0.0,0.0,0.0,0.0,0.0,0.0,0.0,0.0,0.0,0.0,0.0,0.0,0.0,0.0,0.0,0.0,0.0,0.0,0.0,0.0,0.0,0.0,0.0,0.0,0.0,0.0,0.0,0.0,0.0,0.0,0.0,0.0,0.0,0.0,0.0,0.0,0.0,0.0,0.0,0.0,0.0,0.0,0.0,0.0,0.0,0.0,0.0,0.0,0.0,0.0,0.0,0.0,0.0,0.0,0.0,0.0,0.0,0.0,0.0,0.0,0.0,0.0,0.0,0.0,0.0,0.0,0.0,0.0,0.0,0.0,0.0,0.0,0.0,0.0,0.0,0.0,0.0,0.0,0.0,0.0,0.0,0.0,0.0,0.0,0.0,0.0,0.0,0.0,0.0,0.0,0.0,0.0,0.0,0.0,0.0,0.0,0.0,0.0,0.0,0.0,0.0,0.0,0.0,0.0,0.0,0.0,0.0,0.0,0.0,0.0,0.0,0.0,0.0,0.0,0.0,0.0,0.0,0.0,0.0,0.0,0.0,0.0,0.0,0.0,0.0,0.0,0.0,0.0,0.0,0.0,0.0,0.0,0.0,0.0,0.0,0.0,0.0,0.0,0.0,0.0,0.0,0.0,0.0,0.0,0.0,0.0,0.0,0.0,0.0,0.0,0.0,0.0,0.0,0.0,0.0,0.0,0.0,0.0,0.0,0.0,0.0,0.0,0.0,0.0,0.0,0.0,0.0,0.0,0.0,0.0,0.0,0.0,0.0,0.0,0.0,0.0,0.0,0.0,0.0,0.0,0.0,0.0,0.0,0.0,0.0,0.0,0.0,0.0,0.0,0.0,0.0,0.0,0.0,0.0,0.0,0.0,0.0,0.0,0.0,0.0,0.0,0.0,0.0,0.0,0.0,0.0,0.0,0.0,0.0,0.0,0.0,0.0,0.0,0.0,0.0,0.0,0.0,0.0,0.0,0.0,0.0,0.0,0.0,0.0,0.0,0.0,0.0,0.0,0.0,0.0,0.0,0.0,0.0,0.0,0.0,0.0,0.0,0.0,0.0,0.0,0.0,0.0,0.0,0.0,0.0,0.0,0.0,0.0,0.0,0.0,0.0,0.0,0.0,0.0,0.0,0.0,0.0,0.0,0.0,0.0,0.0,0.0,0.0,0.0,0.0,0.0,0.0,0.0,0.0,0.0,0.0,0.0,0.0,0.0,0.0,0.0,0.0,0.0,0.0,0.0,0.0,0.0,0.0,0.0,0.0,0.0,0.0,0.0,0.0,0.0,0.0,0.0,0.0,0.0,0.0,0.0,0.0,0.0,0.0,0.0,0.0,0.0,0.0,0.0,0.0,0.0,0.0,0.0,0.0,0.0,0.0,0.0,0.0,0.0,0.0,0.0,0.0,0.0,0.0,0.0,0.0,0.0,0.0,0.0,0.0,0.0,0.0,0.0,0.0,0.0,0.0,0.0,0.0,0.0,0.0,0.0,0.0,0.0,0.0,0.0,0.0,0.0,0.0,0.0,0.0,0.0,0.0,0.0,0.0,0.0,0.0,0.0,0.0,0.0,0.0,0.0,0.0,0.0,0.0,0.0,0.0,0.0,0.0,0.0,0.0,0.0,0.0,0.0,0.0,0.0,0.0,0.0,0.0,0.0,0.0,0.0,0.0,0.0,0.0,0.0,0.0,0.0,0.0,0.0,0.0,0.0,0.0,0.0,0.0,0.0,0.0,0.0,0.0,0.0,0.0,0.0,0.0,0.0,0.0,0.0,0.0,0.0,0.0,0.0,0.0,0.0,0.0,0.0,0.0,0.0,0.0,0.0,0.0,0.0,0.0,0.0,0.0,0.0,0.0,0.0,0.0,0.0,0.0,0.0,0.0,0.0,0.0,0.0,0.0,0.0,0.0,0.0,0.0,0.0,0.0,0.0,0.0,0.0,0.0,0.0,0.0,0.0,0.0,0.0,0.0,0.0,0.0,0.0,0.0,0.0,0.0,0.0,0.0,0.0,0.0,0.0,0.0,0.0,0.0,0.0,0.0,0.0,0.0,0.0,0.0,0.0,0.0,0.0,0.0,0.0,0.0,0.0,0.0,0.0,0.0,0.0,0.0,0.0,0.0,0.0,0.0,0.0,0.0,0.0,0.0,0.0,0.0,0.0,0.0,0.0,0.0,0.0,0.0,0.0,0.0,0.0,0.0,0.0,0.0,0.0,0.0,0.0,0.0,0.0,0.0,0.0,0.0,0.0,0.0,0.0,0.0,0.0,0.0,0.0,0.0,0.0,0.0,0.0,0.0,0.0,0.0,0.0,0.0,0.0,0.0,0.0,0.0,0.0,0.0,0.0,0.0,0.0,0.0,0.0,0.0,0.0,0.0,0.0,0.0,0.0,0.0,0.0,0.0,0.0,0.0,0.0,0.0,0.0,0.0,0.0,0.0,0.0,0.0,0.0,0.0,0.0,0.0,0.0,0.0,0.0,0.0,0.0,0.0,0.0,0.0,0.0,0.0,0.0,0.0,0.0,0.0,0.0,0.0,0.0,0.0,0.0,0.0,0.0,0.0,0.0,0.0,0.0,0.0,0.0,0.0,0.0,0.0,0.0,0.0,0.0,0.0,0.0,0.0,0.0,0.0,0.0,0.0,0.0,0.0,0.0,0.0,0.0,0.0,0.0,-4.8787,0.0,0.0,0.0,0.0,0.0,0.0,0.0,0.0,0.0,0.0,0.0,0.0,0.0,0.0,0.0,0.0,0.0,0.0,0.0,0.0,0.0,0.0,0.0,0.0,0.0,0.0,0.0,0.0,0.0,0.0,0.0,0.0,0.0,0.0,0.0,0.0,0.0,0.0,0.0,0.0,0.0,0.0,0.0,0.0,0.0,0.0,0.0,0.0,0.0,0.0,0.0,0.0,0.0,0.0,0.0,0.0,0.0,0.0,0.0,0.0,0.0,0.0,0.0,0.0,0.0,0.0,0.0,0.0,0.0,0.0,0.0,0.0,0.0,0.0,0.0,0.0,0.0,0.0,0.0,0.0,0.0,0.0,0.0,0.0,0.0,0.0,0.0,0.0,0.0,0.0,0.0,0.0,0.0,0.0,0.0,0.0,0.0,0.0,0.0,0.0,0.0,0.0,0.0,0.0,0.0,0.0,0.0,0.0,0.0,0.0,-4.8532,-4.8642,-4.8751,-4.8857,-4.8927,0.0,0.0,0.0,0.0,0.0,0.0,0.0,0.0,0.0,0.0,0.0,0.0,0.0,0.0,0.0,0.0,0.0,0.0,0.0,0.0,0.0,0.0,0.0,0.0,0.0,0.0,0.0,0.0,0.0,0.0,0.0,0.0,0.0,0.0,0.0,0.0,0.0,0.0,0.0,0.0,0.0,0.0,0.0,0.0,0.0,0.0,0.0,0.0,0.0,0.0,0.0,0.0,0.0,0.0,0.0,0.0,0.0,0.0,0.0,0.0,0.0,0.0,0.0,0.0,0.0,0.0,0.0,0.0,0.0,0.0,0.0,0.0,0.0,0.0,0.0,0.0,0.0,0.0,0.0,0.0,0.0,0.0,0.0,0.0,0.0,0.0,0.0,0.0,0.0,0.0,0.0,0.0,0.0,0.0,0.0,0.0,0.0,0.0,0.0,0.0,0.0,0.0,0.0,0.0,0.0,0.0,0.0,0.0,0.0,0.0,0.0,0.0,-4.8857,-4.8887,-4.887,0.0,0.0,0.0,0.0,0.0,0.0,0.0,0.0,0.0,0.0,0.0,0.0,0.0,0.0,0.0,0.0,0.0,0.0,0.0,0.0,0.0,0.0,0.0,0.0,0.0,0.0,0.0,0.0,0.0,0.0,0.0,0.0,0.0,0.0,0.0,0.0,0.0,0.0,0.0,0.0,0.0,0.0,0.0,0.0,0.0,0.0,0.0,0.0,0.0,0.0,0.0,0.0,0.0,0.0,0.0,0.0,0.0,0.0,0.0,0.0,0.0,0.0,0.0,0.0,0.0,0.0,0.0,0.0,0.0,0.0,0.0,0.0,0.0,0.0,0.0,0.0,0.0,0.0,0.0,0.0,0.0,0.0,0.0,0.0,0.0,0.0,0.0,0.0,0.0,0.0,0.0,0.0,0.0,0.0,0.0,0.0,0.0,0.0,0.0,0.0,0.0,0.0,0.0,0.0,0.0,0.0,0.0,0.0,0.0,0.0,-4.8822,-4.889,-4.8996,0.0,-4.8302,0.0,0.0,0.0,0.0,0.0,0.0,0.0,0.0,0.0,0.0,0.0,0.0,0.0,0.0,0.0,0.0,0.0,0.0,0.0,0.0,0.0,0.0,0.0,0.0,0.0,0.0,0.0,0.0,0.0,0.0,0.0,0.0,0.0,0.0,0.0,0.0,0.0,0.0,0.0,0.0,0.0,0.0,0.0,0.0,0.0,0.0,0.0,0.0,0.0,0.0,0.0,0.0,0.0,0.0,0.0,0.0,0.0,0.0,0.0,0.0,0.0,0.0,0.0,0.0,0.0,0.0,0.0,0.0,0.0,0.0,0.0,0.0,0.0,0.0,0.0,0.0,0.0,0.0,0.0,0.0,0.0,0.0,0.0,0.0,0.0,0.0,0.0,0.0,0.0,0.0,0.0,0.0,0.0,0.0,0.0,0.0,0.0,0.0,0.0,0.0,0.0,0.0,0.0,0.0,0.0,0.0,0.0,0.0,0.0,0.0,-4.7478,-4.7545,-4.774,-4.7716,0.0,0.0,0.0,0.0,0.0,0.0,0.0,0.0,0.0,0.0,0.0,0.0,0.0,0.0,0.0,0.0,0.0,0.0,0.0,0.0,0.0,0.0,0.0,0.0,0.0,0.0,0.0,0.0,0.0,0.0,0.0,0.0,0.0,0.0,0.0,0.0,0.0,0.0,0.0,0.0,0.0,0.0,0.0,0.0,0.0,0.0,0.0,0.0,0.0,0.0,0.0,0.0,0.0,0.0,0.0,0.0,0.0,0.0,0.0,0.0,0.0,0.0,0.0,0.0,0.0,0.0,0.0,0.0,0.0,0.0,0.0,0.0,0.0,0.0,0.0,0.0,0.0,0.0,0.0,0.0,0.0,0.0,0.0,0.0,0.0,0.0,0.0,0.0,0.0,0.0,0.0,0.0,0.0,0.0,0.0,0.0,0.0,0.0,0.0,0.0,0.0,0.0,0.0,0.0,0.0,0.0,0.0,0.0,0.0,0.0,-4.6479,-4.6573,-4.6701,-4.6719,-4.6723,-4.6751,0.0,0.0,0.0,0.0,0.0,0.0,0.0,0.0,0.0,0.0,0.0,0.0,0.0,0.0,0.0,0.0,0.0,0.0,0.0,0.0,0.0,0.0,0.0,0.0,0.0,0.0,0.0,0.0,0.0,0.0,0.0,0.0,0.0,0.0,0.0,0.0,0.0,0.0,0.0,0.0,0.0,0.0,0.0,0.0,0.0,0.0,0.0,0.0,0.0,0.0,0.0,0.0,0.0,0.0,0.0,0.0,0.0,0.0,0.0,0.0,0.0,0.0,0.0,0.0,0.0,0.0,0.0,0.0,0.0,0.0,0.0,0.0,0.0,0.0,0.0,0.0,0.0,0.0,0.0,0.0,0.0,0.0,0.0,0.0,0.0,0.0,0.0,0.0,0.0,0.0,0.0,0.0,0.0,0.0,0.0,0.0,0.0,0.0,0.0,0.0,0.0,0.0,0.0,0.0,0.0,0.0,0.0,0.0,-4.6459,-4.6513,-4.6732,-4.6907,-4.6345,-4.6063,0.0,0.0,0.0,0.0,0.0,0.0,0.0,0.0,0.0,0.0,0.0,0.0,0.0,0.0,0.0,0.0,0.0,0.0,0.0,0.0,0.0,0.0,0.0,0.0,0.0,0.0,0.0,0.0,0.0,0.0,0.0,0.0,0.0,0.0,0.0,0.0,0.0,0.0,0.0,0.0,0.0,0.0,0.0,0.0,0.0,0.0,0.0,0.0,0.0,0.0,0.0,0.0,0.0,0.0,0.0,0.0,0.0,0.0,0.0,0.0,0.0,0.0,0.0,0.0,0.0,0.0,0.0,0.0,0.0,0.0,0.0,0.0,0.0,0.0,0.0,0.0,0.0,0.0,0.0,0.0,0.0,0.0,0.0,0.0,0.0,0.0,0.0,0.0,0.0,0.0,0.0,0.0,0.0,0.0,0.0,0.0,0.0,0.0,0.0,0.0,0.0,0.0,0.0,0.0,0.0,0.0,0.0,0.0,0.0,-4.4999,-4.5207,-4.5368,-4.559,-4.5382,-4.5331,0.0,0.0,0.0,0.0,0.0,0.0,0.0,0.0,0.0,0.0,0.0,0.0,0.0,0.0,0.0,0.0,0.0,0.0,0.0,0.0,0.0,0.0,0.0,0.0,0.0,0.0,0.0,0.0,0.0,0.0,0.0,0.0,0.0,0.0,0.0,0.0,0.0,0.0,0.0,0.0,0.0,0.0,0.0,0.0,0.0,0.0,0.0,0.0,0.0,0.0,0.0,0.0,0.0,0.0,0.0,0.0,0.0,0.0,0.0,0.0,0.0,0.0,0.0,0.0,0.0,0.0,0.0,0.0,0.0,0.0,0.0,0.0,0.0,0.0,0.0,0.0,0.0,0.0,0.0,0.0,0.0,0.0,0.0,0.0,0.0,0.0,0.0,0.0,0.0,0.0,0.0,0.0,0.0,0.0,0.0,0.0,0.0,0.0,0.0,0.0,0.0,0.0,0.0,0.0,0.0,0.0,0.0,0.0,0.0,-4.4349,0.0,-4.47,0.0,-4.4986,-4.5103,0.0,0.0,0.0,0.0,0.0,0.0,0.0,0.0,0.0,0.0,0.0,0.0,0.0,0.0,0.0,0.0,0.0,0.0,0.0,0.0,0.0,0.0,0.0,0.0,0.0,0.0,0.0,0.0,0.0,0.0,0.0,0.0,0.0,0.0,0.0,0.0,0.0,0.0,0.0,0.0,0.0,0.0,0.0,0.0,0.0,0.0,0.0,0.0,0.0,0.0,0.0,0.0,0.0,0.0,0.0,0.0,0.0,0.0,0.0,0.0,0.0,0.0,0.0,0.0,0.0,0.0,0.0,0.0,0.0,0.0,0.0,0.0,0.0,0.0,0.0,0.0,0.0,0.0,0.0,0.0,0.0,0.0,0.0,0.0,0.0,0.0,0.0,0.0,0.0,0.0,0.0,0.0,0.0,0.0,0.0,0.0,0.0,0.0,0.0,0.0,0.0,0.0,0.0,0.0,0.0,0.0,0.0,0.0,-4.4325,-4.4605,-4.4776,-4.4943,-4.5103,-4.5235,-4.5339,0.0,0.0,0.0,0.0,0.0,0.0,0.0,0.0,0.0,0.0,0.0,0.0,0.0,0.0,0.0,0.0,0.0,0.0,0.0,0.0,0.0,0.0,0.0,0.0,0.0,0.0,0.0,0.0,0.0,0.0,0.0,0.0,0.0,0.0,0.0,0.0,0.0,0.0,0.0,0.0,0.0,0.0,0.0,0.0,0.0,0.0,0.0,0.0,0.0,0.0,0.0,0.0,0.0,0.0,0.0,0.0,0.0,0.0,0.0,0.0,0.0,0.0,0.0,0.0,0.0,0.0,0.0,0.0,0.0,0.0,0.0,0.0,0.0,0.0,0.0,0.0,0.0,0.0,0.0,0.0,0.0,0.0,0.0,0.0,0.0,0.0,0.0,0.0,0.0,0.0,0.0,0.0,0.0,0.0,0.0,0.0,0.0,0.0,0.0,0.0,0.0,0.0,0.0,0.0,0.0,0.0,0.0,0.0,0.0,-4.4889,-4.4989,-4.5131,-4.5283,-4.5381,-4.5512,0.0,0.0,0.0,0.0,0.0,0.0,0.0,0.0,0.0,0.0,0.0,0.0,0.0,0.0,0.0,0.0,0.0,0.0,0.0,0.0,0.0,0.0,0.0,0.0,0.0,0.0,0.0,0.0,0.0,0.0,0.0,0.0,0.0,0.0,0.0,0.0,0.0,0.0,0.0,0.0,0.0,0.0,0.0,0.0,0.0,0.0,0.0,0.0,0.0,0.0,0.0,0.0,0.0,0.0,0.0,0.0,0.0,0.0,0.0,0.0,0.0,0.0,0.0,0.0,0.0,0.0,0.0,0.0,0.0,0.0,0.0,0.0,0.0,0.0,0.0,0.0,0.0,0.0,0.0,0.0,0.0,0.0,0.0,0.0,0.0,0.0,0.0,0.0,0.0,0.0,0.0,0.0,0.0,0.0,0.0,0.0,0.0,0.0,0.0,0.0,0.0,0.0,0.0,0.0,0.0,0.0,0.0,0.0,0.0,-4.5638,-4.54,-4.5316,-4.5509,-4.5577,-4.5658,-4.58,0.0,0.0,0.0,0.0,0.0,0.0,0.0,0.0,0.0,0.0,0.0,0.0,0.0,0.0,0.0,0.0,0.0,0.0,0.0,0.0,0.0,0.0,0.0,0.0,0.0,0.0,0.0,0.0,0.0,0.0,0.0,0.0,0.0,0.0,0.0,0.0,0.0,0.0,0.0,0.0,0.0,0.0,0.0,0.0,0.0,0.0,0.0,0.0,0.0,0.0,0.0,0.0,0.0,0.0,0.0,0.0,0.0,0.0,0.0,0.0,0.0,0.0,0.0,0.0,0.0,0.0,0.0,0.0,0.0,0.0,0.0,0.0,0.0,0.0,0.0,0.0,0.0,0.0,0.0,0.0,0.0,0.0,0.0,0.0,0.0,0.0,0.0,0.0,0.0,0.0,0.0,0.0,0.0,0.0,0.0,0.0,0.0,0.0,0.0,0.0,0.0,0.0,0.0,0.0,0.0,0.0,0.0,0.0,-4.6796,-4.6022,-4.5665,-4.5795,-4.5877,-4.5945,0.0,0.0,0.0,0.0,0.0,0.0,0.0,0.0,0.0,0.0,0.0,0.0,0.0,0.0,0.0,0.0,0.0,0.0,0.0,0.0,0.0,0.0,0.0,0.0,0.0,0.0,0.0,0.0,0.0,0.0,0.0,0.0,0.0,0.0,0.0,0.0,0.0,0.0,0.0,0.0,0.0,0.0,0.0,0.0,0.0,0.0,0.0,0.0,0.0,0.0,0.0,0.0,0.0,0.0,0.0,0.0,0.0,0.0,0.0,0.0,0.0,0.0,0.0,0.0,0.0,0.0,0.0,0.0,0.0,0.0,0.0,0.0,0.0,0.0,0.0,0.0,0.0,0.0,0.0,0.0,0.0,0.0,0.0,0.0,0.0,0.0,0.0,0.0,0.0,0.0,0.0,0.0,0.0,0.0,0.0,0.0,0.0,0.0,0.0,0.0,0.0,0.0,0.0,0.0,0.0,0.0,0.0,0.0,0.0,-4.6901,-4.6882,-4.6843,-4.6809,-4.6934,-4.6688,0.0,0.0,0.0,0.0,0.0,0.0,0.0,0.0,0.0,0.0,0.0,0.0,0.0,0.0,0.0,0.0,0.0,0.0,0.0,0.0,0.0,0.0,0.0,0.0,0.0,0.0,0.0,0.0,0.0,0.0,0.0,0.0,0.0,0.0,0.0,0.0,0.0,0.0,0.0,0.0,0.0,0.0,0.0,0.0,0.0,0.0,0.0,0.0,0.0,0.0,0.0,0.0,0.0,0.0,0.0,0.0,0.0,0.0,0.0,0.0,0.0,0.0,0.0,0.0,0.0,0.0,0.0,0.0,0.0,0.0,0.0,0.0,0.0,0.0,0.0,0.0,0.0,0.0,0.0,0.0,0.0,0.0,0.0,0.0,0.0,0.0,0.0,0.0,0.0,0.0,0.0,0.0,0.0,0.0,0.0,0.0,0.0,0.0,0.0,0.0,0.0,0.0,0.0,0.0,0.0,0.0,0.0,0.0,-4.6065,-4.7091,-4.7235,-4.7307,-4.7267,-4.7372,-4.7028,0.0,0.0,0.0,0.0,0.0,0.0,0.0,0.0,0.0,0.0,0.0,0.0,0.0,0.0,0.0,0.0,0.0,0.0,0.0,0.0,0.0,0.0,0.0,0.0,0.0,0.0,0.0,0.0,0.0,0.0,0.0,0.0,0.0,0.0,0.0,0.0,0.0,0.0,0.0,0.0,0.0,0.0,0.0,0.0,0.0,0.0,0.0,0.0,0.0,0.0,0.0,0.0,0.0,0.0,0.0,0.0,0.0,0.0,0.0,0.0,0.0,0.0,0.0,0.0,0.0,0.0,0.0,0.0,0.0,0.0,0.0,0.0,0.0,0.0,0.0,0.0,0.0,0.0,0.0,0.0,0.0,0.0,0.0,0.0,0.0,0.0,0.0,0.0,0.0,0.0,0.0,0.0,0.0,0.0,0.0,0.0,0.0,0.0,0.0,0.0,0.0,0.0,0.0,0.0,0.0,0.0,0.0,0.0,-4.6175,-4.7182,-4.734,-4.7382,-4.7408,-4.7461,-4.7105,0.0,0.0,0.0,0.0,0.0,0.0,0.0,0.0,0.0,0.0,0.0,0.0,0.0,0.0,0.0,0.0,0.0,0.0,0.0,0.0,0.0,0.0,0.0,0.0,0.0,0.0,0.0,0.0,0.0,0.0,0.0,0.0,0.0,0.0,0.0,0.0,0.0,0.0,0.0,0.0,0.0,0.0,0.0,0.0,0.0,0.0,0.0,0.0,0.0,0.0,0.0,0.0,0.0,0.0,0.0,0.0,0.0,0.0,0.0,0.0,0.0,0.0,0.0,0.0,0.0,0.0,0.0,0.0,0.0,0.0,0.0,0.0,0.0,0.0,0.0,0.0,0.0,0.0,0.0,0.0,0.0,0.0,0.0,0.0,0.0,0.0,0.0,0.0,0.0,0.0,0.0,0.0,0.0,0.0,0.0,0.0,0.0,0.0,0.0,0.0,0.0,0.0,0.0,0.0,0.0,0.0,0.0,0.0,-4.6253,-4.7248,-4.7357,-4.7403,-4.7384,-4.7463,-4.709,0.0,0.0,0.0,0.0,0.0,0.0,0.0,0.0,0.0,0.0,0.0,0.0,0.0,0.0,0.0,0.0,0.0,0.0,0.0,0.0,0.0,0.0,0.0,0.0,0.0,0.0,0.0,0.0,0.0,0.0,0.0,0.0,0.0,0.0,0.0,0.0,0.0,0.0,0.0,0.0,0.0,0.0,0.0,0.0,0.0,0.0,0.0,0.0,-5.6156,0.0,0.0,0.0,0.0,0.0,0.0,0.0,0.0,0.0,0.0,0.0,0.0,0.0,0.0,0.0,0.0,0.0,0.0,0.0,0.0,0.0,0.0,0.0,0.0,0.0,0.0,0.0,0.0,0.0,0.0,0.0,0.0,0.0,0.0,0.0,0.0,0.0,0.0,0.0,0.0,0.0,0.0,0.0,0.0,0.0,0.0,0.0,0.0,0.0,0.0,0.0,0.0,0.0,0.0,0.0,0.0,0.0,0.0,0.0,-4.6123,-4.6735,-4.6788,-4.6752,-4.6659,-4.6678,-4.6489,0.0,0.0,0.0,0.0,0.0,0.0,0.0,0.0,0.0,0.0,0.0,0.0,0.0,0.0,0.0,0.0,0.0,0.0,0.0,0.0,0.0,0.0,0.0,0.0,0.0,0.0,0.0,0.0,0.0,0.0,0.0,0.0,0.0,0.0,0.0,0.0,0.0,0.0,0.0,0.0,0.0,0.0,0.0,0.0,0.0,0.0,0.0,0.0,0.0,0.0,0.0,0.0,0.0,0.0,0.0,0.0,0.0,0.0,0.0,0.0,0.0,0.0,0.0,0.0,0.0,0.0,0.0,0.0,0.0,0.0,0.0,0.0,0.0,0.0,0.0,0.0,0.0,0.0,0.0,0.0,0.0,0.0,0.0,0.0,0.0,0.0,0.0,0.0,0.0,0.0,0.0,0.0,0.0,0.0,0.0,0.0,0.0,0.0,0.0,0.0,0.0,0.0,0.0,0.0,0.0,0.0,0.0,-4.5802,-4.5988,-4.6098,-4.5974,-4.5791,-4.5606,-4.5423,-4.5465,-4.5685,0.0,0.0,0.0,0.0,0.0,0.0,0.0,0.0,0.0,0.0,0.0,0.0,0.0,0.0,0.0,0.0,0.0,0.0,0.0,0.0,0.0,0.0,0.0,0.0,0.0,0.0,0.0,0.0,0.0,0.0,0.0,0.0,0.0,0.0,0.0,0.0,0.0,0.0,-5.6433,-5.6433,0.0,0.0,0.0,0.0,0.0,0.0,0.0,0.0,-5.7273,0.0,0.0,0.0,0.0,0.0,0.0,0.0,0.0,0.0,0.0,0.0,0.0,0.0,0.0,0.0,0.0,0.0,0.0,0.0,0.0,0.0,0.0,0.0,0.0,0.0,0.0,0.0,0.0,0.0,0.0,0.0,0.0,0.0,0.0,0.0,0.0,0.0,0.0,0.0,0.0,0.0,0.0,0.0,0.0,0.0,0.0,0.0,0.0,0.0,0.0,0.0,0.0,0.0,0.0,0.0,0.0,-4.5771,-4.5917,-4.6035,-4.608,-4.539,-4.4869,-4.4623,-4.3811,-4.3667,-4.4325,0.0,0.0,0.0,0.0,0.0,0.0,0.0,0.0,0.0,0.0,0.0,0.0,0.0,0.0,0.0,0.0,0.0,0.0,0.0,0.0,0.0,0.0,0.0,0.0,0.0,0.0,0.0,0.0,0.0,0.0,0.0,0.0,0.0,0.0,0.0,0.0,0.0,0.0,0.0,-5.7458,-5.7741,0.0,0.0,0.0,0.0,0.0,0.0,0.0,0.0,-5.8648,0.0,0.0,0.0,0.0,0.0,0.0,0.0,0.0,0.0,0.0,0.0,0.0,0.0,0.0,0.0,0.0,0.0,0.0,0.0,0.0,0.0,0.0,0.0,0.0,0.0,0.0,0.0,0.0,0.0,0.0,0.0,0.0,0.0,0.0,0.0,0.0,0.0,0.0,0.0,0.0,0.0,0.0,0.0,0.0,0.0,0.0,0.0,0.0,0.0,0.0,0.0,0.0,0.0,0.0,0.0,-4.5917,-4.5988,-4.5839,-4.5456,-4.4933,-4.4297,-4.353,-4.2967,-4.2768,0.0,0.0,0.0,0.0,0.0,0.0,0.0,0.0,0.0,0.0,0.0,0.0,0.0,0.0,0.0,0.0,0.0,0.0,0.0,0.0,0.0,0.0,0.0,0.0,0.0,0.0,0.0,0.0,0.0,0.0,0.0,0.0,0.0,0.0,0.0,0.0,0.0,0.0,0.0,0.0,-5.7728,-5.8048,-5.8913,0.0,0.0,0.0,0.0,0.0,0.0,-5.9378,-5.912,0.0,0.0,0.0,0.0,0.0,0.0,0.0,0.0,0.0,0.0,0.0,0.0,0.0,0.0,0.0,0.0,0.0,0.0,0.0,0.0,0.0,0.0,0.0,0.0,0.0,0.0,0.0,0.0,0.0,0.0,0.0,0.0,0.0,0.0,0.0,0.0,0.0,0.0,0.0,0.0,0.0,0.0,0.0,0.0,0.0,0.0,0.0,0.0,0.0,0.0,0.0,0.0,0.0,0.0,0.0,-4.6037,-4.6091,-4.5746,-4.5037,-4.4468,-4.3685,-4.2622,-4.2091,-4.1779,0.0,0.0,0.0,0.0,0.0,0.0,0.0,0.0,0.0,0.0,0.0,0.0,0.0,0.0,0.0,0.0,0.0,0.0,0.0,0.0,0.0,0.0,0.0,0.0,0.0,0.0,0.0,0.0,0.0,0.0,0.0,0.0,0.0,0.0,0.0,0.0,0.0,0.0,0.0,0.0,0.0,-5.8715,-5.9736,-6.0633,0.0,0.0,0.0,0.0,-6.1162,-6.0586,0.0,0.0,0.0,0.0,0.0,0.0,0.0,0.0,0.0,0.0,0.0,0.0,0.0,0.0,0.0,0.0,0.0,0.0,0.0,0.0,0.0,0.0,0.0,0.0,0.0,0.0,0.0,0.0,0.0,0.0,0.0,0.0,0.0,0.0,0.0,0.0,0.0,0.0,0.0,0.0,0.0,0.0,0.0,0.0,0.0,0.0,0.0,0.0,0.0,0.0,0.0,0.0,0.0,0.0,0.0,0.0,-4.6073,-4.6089,-4.6015,-4.5718,-4.4064,-4.2873,-4.2243,-4.0698,-4.0077,0.0,0.0,0.0,0.0,0.0,0.0,0.0,0.0,0.0,0.0,0.0,0.0,0.0,0.0,0.0,0.0,0.0,0.0,0.0,0.0,0.0,0.0,0.0,0.0,0.0,0.0,0.0,0.0,0.0,0.0,0.0,0.0,0.0,0.0,0.0,0.0,0.0,0.0,0.0,0.0,0.0,-6.0711,-6.2335,-6.3302,-6.3824,0.0,0.0,0.0,-6.3747,-6.3657,0.0,0.0,0.0,0.0,0.0,0.0,0.0,0.0,0.0,0.0,0.0,0.0,0.0,0.0,0.0,0.0,0.0,0.0,0.0,0.0,0.0,0.0,0.0,0.0,0.0,0.0,0.0,0.0,0.0,0.0,0.0,0.0,0.0,0.0,0.0,0.0,0.0,0.0,0.0,0.0,0.0,0.0,0.0,0.0,0.0,0.0,0.0,0.0,0.0,0.0,0.0,0.0,0.0,0.0,0.0,-4.6162,-4.6161,-4.6094,-4.5703,-4.5016,-4.3867,-4.2772,-4.1743,-4.0859,-4.0518,0.0,0.0,0.0,0.0,0.0,0.0,0.0,0.0,0.0,0.0,0.0,0.0,0.0,0.0,0.0,0.0,0.0,0.0,0.0,0.0,0.0,0.0,0.0,0.0,0.0,0.0,0.0,0.0,0.0,0.0,0.0,0.0,0.0,0.0,0.0,0.0,0.0,0.0,0.0,0.0,0.0,0.0,-6.2691,-6.332,0.0,0.0,0.0,-6.4193,-6.4107,0.0,0.0,0.0,0.0,0.0,0.0,0.0,0.0,0.0,0.0,0.0,0.0,0.0,0.0,0.0,0.0,0.0,0.0,0.0,0.0,0.0,0.0,0.0,0.0,0.0,0.0,0.0,0.0,0.0,0.0,0.0,0.0,0.0,0.0,0.0,0.0,0.0,0.0,0.0,0.0,0.0,0.0,0.0,0.0,0.0,0.0,0.0,0.0,0.0,0.0,0.0,0.0,0.0,0.0,0.0,0.0,0.0,-4.6111,-4.5947,-4.5415,-4.4476,-4.3729,-4.2749,-4.1593,-4.1103,0.0,0.0,0.0,0.0,0.0,0.0,0.0,0.0,0.0,0.0,0.0,0.0,0.0,0.0,0.0,0.0,0.0,0.0,0.0,0.0,0.0,0.0,0.0,0.0,0.0,0.0,0.0,-5.1394,0.0,0.0,0.0,0.0,0.0,0.0,0.0,0.0,0.0,0.0,0.0,0.0,0.0,0.0,-6.0616,-6.295,-6.349,-6.3901,0.0,0.0,-6.4973,-6.4634,-6.4769,-6.4698,0.0,0.0,0.0,0.0,0.0,0.0,0.0,0.0,0.0,0.0,0.0,0.0,0.0,0.0,0.0,0.0,0.0,0.0,0.0,0.0,0.0,0.0,0.0,0.0,0.0,0.0,0.0,0.0,0.0,0.0,0.0,0.0,0.0,0.0,0.0,0.0,0.0,0.0,0.0,0.0,0.0,0.0,0.0,0.0,0.0,0.0,0.0,0.0,0.0,0.0,0.0,0.0,0.0,0.0,0.0,-4.5832,-4.5658,-4.5263,-4.4772,-4.358,-4.2597,-4.1862,-4.0961,-4.0492,0.0,0.0,0.0,0.0,0.0,0.0,0.0,0.0,0.0,0.0,0.0,0.0,0.0,0.0,0.0,0.0,0.0,0.0,0.0,0.0,0.0,0.0,0.0,0.0,0.0,0.0,0.0,0.0,0.0,0.0,0.0,0.0,0.0,0.0,0.0,0.0,0.0,0.0,0.0,0.0,0.0,-6.2141,-6.3886,-6.4754,-6.5516,0.0,0.0,-6.7192,-6.6384,-6.6766,-6.6631,-6.5006,0.0,0.0,0.0,0.0,0.0,0.0,0.0,0.0,0.0,0.0,0.0,0.0,0.0,0.0,0.0,0.0,0.0,0.0,0.0,0.0,0.0,0.0,0.0,0.0,0.0,0.0,0.0,0.0,0.0,0.0,0.0,0.0,0.0,0.0,0.0,0.0,0.0,0.0,0.0,0.0,0.0,0.0,0.0,0.0,0.0,0.0,0.0,0.0,0.0,0.0,0.0,0.0,0.0,-4.5781,-4.5529,-4.5291,-4.518,-4.5074,-4.4302,-4.3862,-4.3743,-4.2789,-4.2318,0.0,0.0,0.0,0.0,0.0,0.0,0.0,0.0,0.0,0.0,0.0,0.0,0.0,0.0,0.0,0.0,0.0,0.0,0.0,0.0,0.0,0.0,0.0,0.0,0.0,0.0,0.0,0.0,-5.0274,-5.1011,-5.2016,0.0,0.0,0.0,0.0,0.0,0.0,0.0,0.0,0.0,0.0,-6.2172,-6.3792,-6.4688,0.0,0.0,-6.7348,-6.7522,-6.7548,-6.7278,-6.6833,-6.6103,-6.5037,0.0,0.0,0.0,0.0,0.0,0.0,0.0,0.0,0.0,0.0,0.0,0.0,0.0,0.0,0.0,0.0,0.0,0.0,0.0,0.0,0.0,0.0,0.0,0.0,0.0,0.0,0.0,0.0,0.0,0.0,0.0,0.0,0.0,0.0,0.0,0.0,0.0,0.0,0.0,0.0,0.0,0.0,0.0,0.0,0.0,0.0,0.0,0.0,0.0,0.0,0.0,0.0,-4.5626,-4.5573,-4.5284,-4.5229,-4.5425,-4.4963,-4.4738,-4.4785,-4.4071,-4.3679,0.0,0.0,0.0,0.0,0.0,0.0,0.0,0.0,0.0,0.0,0.0,0.0,0.0,0.0,0.0,0.0,0.0,0.0,0.0,0.0,0.0,0.0,0.0,0.0,0.0,0.0,0.0,0.0,-5.0176,-5.1414,-5.2799,0.0,0.0,0.0,0.0,0.0,0.0,0.0,0.0,0.0,0.0,-6.2277,-6.3604,-6.4666,-6.5761,-6.7106,-6.7633,-6.8,-6.8136,-6.7793,-6.7255,-6.6605,0.0,0.0,0.0,0.0,0.0,0.0,0.0,0.0,0.0,0.0,0.0,0.0,0.0,0.0,0.0,0.0,0.0,0.0,0.0,0.0,0.0,0.0,0.0,0.0,0.0,0.0,0.0,0.0,0.0,0.0,0.0,0.0,0.0,0.0,0.0,0.0,0.0,0.0,0.0,0.0,0.0,0.0,0.0,0.0,0.0,0.0,0.0,0.0,0.0,0.0,0.0,0.0,0.0,0.0,-4.6013,-4.5707,-4.5611,-4.581,-4.5355,-4.5024,-4.4714,-4.4423,-4.4112,-4.3668,0.0,0.0,0.0,0.0,0.0,0.0,0.0,0.0,0.0,0.0,0.0,0.0,0.0,0.0,0.0,0.0,0.0,0.0,0.0,0.0,0.0,0.0,0.0,0.0,0.0,0.0,-5.0009,-5.1551,-5.2855,0.0,0.0,0.0,0.0,0.0,0.0,0.0,0.0,0.0,0.0,-6.1352,-6.268,-6.3536,-6.4878,-6.6101,-6.6936,-6.8244,-6.887,-6.8012,-6.8422,-6.8247,0.0,0.0,0.0,0.0,0.0,0.0,0.0,0.0,0.0,0.0,0.0,0.0,0.0,0.0,0.0,0.0,0.0,0.0,0.0,0.0,0.0,0.0,0.0,0.0,0.0,0.0,0.0,0.0,-5.1413,0.0,0.0,0.0,0.0,0.0,0.0,0.0,0.0,0.0,0.0,0.0,-5.1071,-5.0903,0.0,0.0,0.0,0.0,0.0,0.0,0.0,0.0,0.0,0.0,0.0,0.0,-4.662,-4.6544,-4.6744,-4.6979,-4.7268,-4.7451,-4.7615,-4.7849,-4.6712,-4.5658,-4.475,0.0,0.0,0.0,0.0,0.0,0.0,0.0,0.0,0.0,0.0,0.0,0.0,0.0,0.0,0.0,0.0,0.0,0.0,0.0,0.0,0.0,0.0,0.0,0.0,0.0,-4.9956,0.0,0.0,0.0,0.0,0.0,0.0,0.0,0.0,0.0,0.0,0.0,-5.984,-6.0574,-6.2972,-6.4717,-6.4908,-6.6189,-6.737,0.0,0.0,0.0,0.0,0.0,0.0,0.0,0.0,0.0,0.0,0.0,0.0,0.0,0.0,-7.0684,-6.9089,-6.8709,-6.8787,-6.9125,0.0,0.0,0.0,0.0,0.0,0.0,0.0,0.0,0.0,0.0,0.0,0.0,0.0,0.0,0.0,0.0,-5.3077,0.0,0.0,0.0,0.0,0.0,0.0,0.0,0.0,-5.2652,-5.2867,-5.2769,-5.2924,-5.2982,0.0,-5.2899,-5.1822,0.0,0.0,0.0,0.0,0.0,0.0,0.0,0.0,-4.7249,-4.7484,-4.7673,-4.8126,-4.8794,-4.9046,-4.937,-4.9693,-4.8434,-4.7378,-4.6662,-4.6468,-4.6505,0.0,0.0,0.0,0.0,0.0,0.0,0.0,0.0,0.0,0.0,0.0,0.0,0.0,0.0,0.0,0.0,0.0,0.0,0.0,0.0,0.0,0.0,0.0,-5.0899,0.0,0.0,0.0,0.0,0.0,0.0,0.0,0.0,0.0,-5.8738,-5.955,-6.0693,-6.1973,-6.3911,-6.5356,-6.5791,0.0,0.0,0.0,0.0,0.0,0.0,0.0,-7.1268,-7.1041,-7.0499,-7.0266,-7.0816,-7.2048,-7.3553,-7.5357,0.0,0.0,-7.2213,-7.1652,-7.1765,-7.2151,-7.2267,-7.2308,-7.2267,-7.2147,-7.2326,0.0,0.0,0.0,0.0,0.0,0.0,0.0,0.0,-5.3062,-5.3366,0.0,-5.3433,0.0,0.0,0.0,0.0,0.0,0.0,0.0,0.0,-5.3263,-5.3459,-5.3399,-5.4081,-5.4353,-5.4387,-5.438,-5.3928,-5.3024,-5.1005,0.0,0.0,0.0,0.0,0.0,0.0,-4.7617,-4.8781,-4.8643,-4.915,-5.0368,-5.0301,-5.0162,-5.0154,-4.9531,-4.9185,-4.9159,-4.8086,-4.7499,-4.7603,-4.733,0.0,0.0,0.0,0.0,0.0,0.0,0.0,0.0,0.0,0.0,0.0,0.0,0.0,0.0,0.0,0.0,0.0,0.0,0.0,0.0,-5.0402,0.0,0.0,0.0,0.0,0.0,0.0,0.0,0.0,0.0,0.0,-6.128,-6.1147,-6.1867,-6.4085,0.0,0.0,0.0,0.0,-6.8789,-6.9536,-7.0842,-7.2064,-7.266,-7.2705,-7.2547,-7.2295,0.0,0.0,-7.4471,-7.5453,-7.6547,-7.8506,-7.8752,-7.8006,-7.6005,-7.5596,-7.5764,-7.6554,-7.6722,-7.6957,-7.6864,-7.6517,-7.6855,-5.7951,0.0,0.0,0.0,0.0,-5.5653,-5.5542,-5.5846,-5.6055,-5.6055,-5.6028,-5.6425,0.0,0.0,0.0,0.0,0.0,0.0,-5.4465,-5.4865,-5.5563,-5.5823,-5.5683,-5.5884,-5.5919,-5.5958,-5.5921,-5.5509,-5.4686,-5.3412,-5.2053,-5.0597,0.0,0.0,0.0,0.0,-4.9331,-4.9566,-5.0407,-5.1051,-5.1402,-5.1821,-5.1814,-5.131,-5.1182,-5.0904,-5.0438,-5.023,-5.0157,-5.0229,-4.9795,0.0,0.0,0.0,0.0,0.0,0.0,0.0,0.0,0.0,0.0,0.0,0.0,0.0,0.0,0.0,0.0,0.0,0.0,0.0,-5.3055,-5.4076,-5.535,0.0,0.0,0.0,0.0,0.0,0.0,0.0,0.0,0.0,-6.5643,-6.4862,-6.4852,0.0,0.0,-6.8597,-6.9321,-7.0215,-7.0937,-7.1545,0.0,0.0,0.0,-7.4911,-7.5655,-7.5476,-7.594,-7.6922,-7.8629,-7.9055,-7.9723,-8.1586,-8.1941,-8.1941,-8.1866,-7.9583,-7.8091,-7.8216,-7.8403,-7.85,-7.8452,-7.8403,-7.8566,-6.0461,-5.9486,-5.7918,-5.7739,-5.8371,-5.7295,-5.7144,-5.7621,-5.7338,-5.7303,-5.749,-5.7565,-5.7065,-5.6198,-5.6118,0.0,0.0,0.0,-5.6036,-5.6254,-5.7033,-5.7298,-5.7155,-5.7416,-5.7564,-5.7565,-5.7528,-5.7154,-5.6332,-5.5772,-5.4726,-5.3222,0.0,0.0,-5.0775,-5.067,-5.0639,-5.0745,-5.1547,-5.2128,-5.2417,-5.2815,-5.2894,-5.2541,-5.2582,-5.2441,-5.2079,-5.1937,-5.1898,-5.197,-5.1495,-5.1299,0.0,0.0,0.0,0.0,0.0,0.0,0.0,0.0,0.0,0.0,0.0,-5.2524,0.0,0.0,0.0,0.0,-5.3443,-5.4619,-5.5753,-5.6566,0.0,0.0,0.0,0.0,0.0,0.0,0.0,-6.7756,-6.8579,-6.9298,-6.9887,-6.9842,-6.9614,-6.936,-7.0118,-7.0979,-7.1852,0.0,-7.3212,-7.3803,-7.4821,-7.5708,-7.631,-7.7534,-7.8516,-7.9068,-7.9882,-8.0756,-8.1917,-8.2119,-8.2564,-8.3892,-8.4439,-8.4646,-8.5131,-8.3228,-8.173,-8.1837,-8.1942,-8.2045,-8.2045,-8.1993,-8.2092,-6.2228,-6.2708,-5.9973,-5.9264,-5.9708,-5.8275,-5.8424,-5.9529,-5.7612,-5.7593,-5.8872,-5.7604,-5.7522,-5.8367,-5.7769,0.0,0.0,-5.7535,-5.7359,-5.7154,-5.7901,-5.8127,-5.7978,-5.8689,-5.9065,-5.9027,-5.9065,-5.8689,-5.7978,-5.7866,-5.7042,-5.551,-5.3087,-5.1748,-5.1416,-5.1343,-5.1562,-5.2066,-5.2217,-5.2622,-5.34,-5.3484,-5.3563,-5.3753,-5.3678,-5.368,-5.3832,-5.3309,-5.3005,-5.3003,-5.2611,-5.2466,-5.2551,0.0,0.0,0.0,0.0,0.0,0.0,0.0,0.0,0.0,0.0,0.0,0.0,0.0,0.0,0.0,-5.4351,0.0,-5.7633,-5.8587,0.0,0.0,0.0,-6.5026,-6.8129,-6.8436,-6.926,-7.159,0.0,0.0,0.0,0.0,-7.5475,-7.2886,-7.246,-7.2891,-7.4196,-7.5035,-7.5632,-7.6275,-7.7713,-7.8999,-7.9633,-8.0485,-8.1444,-8.2584,-8.3596,-8.4052,-8.448,-8.4577,-8.5031,-8.6047,-8.6349,-8.6349,-8.6349,-8.6368,-8.6537,-8.6404,-8.6346,-8.6326,-8.6192,-8.6154,-8.6116,-6.3635,-6.3763,-6.2461,-6.1698,-6.1255,-6.0222,-5.9804,-5.9715,-5.9892,-5.9611,-5.9024,-5.9439,-5.9235,-5.8532,-5.7886,-5.7929,-5.8482,-5.8479,-5.8672,-5.9039,-5.9248,-5.9253,-5.9178,-5.9363,-5.9472,-5.947,-5.9472,-5.9361,-5.9135,-5.8389,-5.7865,-5.7378,-5.607,-5.4354,-5.2345,-5.2159,-5.2155,-5.2259,-5.285,-5.3592,-5.4489,-5.3975,-5.4091,-5.48,-5.4167,-5.3907,-5.4127,-5.4046,-5.4071,-5.4199,-5.3656,-5.3404,-5.3541,-5.4333,0.0,0.0,0.0,0.0,0.0,0.0,0.0,0.0,0.0,-5.6482,-5.7133,0.0,-5.6474,0.0,-5.8548,-6.0131,-6.179,-6.3176,0.0,0.0,-6.7918,-6.9475,-7.1543,-7.2147,-7.3117,-7.4956,-7.5801,-7.6486,-7.7155,-7.9177,-8.0019,-7.85,-7.7871,-7.7823,-7.8591,-7.884,-7.8962,-7.9194,-8.0356,-8.155,-8.2444,-8.369,-8.4733,-8.5201,-8.5462,-8.5819,-8.6511,-8.6586,-8.6906,-8.7884,-8.8223,-8.8335,-8.8408,-8.8555,-8.8624,-8.8549,-8.7592,-8.6636,-8.6636,-8.6816,-8.6906,-6.4742,-6.477,-6.3652,-6.2936,-6.254,-6.1726,-6.1003,-6.0358,-6.0696,-6.0224,-5.9215,-5.9917,-5.989,-5.9254,-5.8935,-5.9054,-5.9483,-5.9464,-5.9596,-5.9809,-5.9828,-5.9771,-5.9737,-5.9719,-5.9739,-5.9739,-6.0059,-6.0251,-6.0217,-5.9999,-5.9627,-5.9251,-5.8615,-5.7379,-5.5585,-5.4614,-5.4164,-5.4084,-5.4531,-5.5094,-5.5658,-5.5286,-5.5398,-5.592,-5.5544,-5.5355,-5.5495,-5.5634,-5.5767,-5.582,-5.5616,-5.5549,-5.5721,-5.6638,-5.722,0.0,0.0,0.0,0.0,0.0,0.0,0.0,0.0,0.0,0.0,0.0,-5.9086,0.0,-6.221,0.0,-6.5972,-6.7242,-6.8714,-7.0746,-7.1625,-7.2902,-7.4851,-7.5323,-7.6227,-7.8301,-7.875,-7.928,-8.0023,-8.1519,-8.2621,-8.2661,-8.2711,-8.2197,-8.0975,-8.1206,-8.1805,-8.2145,-8.3172,-8.4255,-8.5096,-8.6349,-8.7303,-8.736,-8.7717,-8.7979,-8.8111,-8.8111,-8.8317,-8.8897,-8.9064,-8.9211,-8.9371,-8.9777,-9.0056,-9.007,-8.9743,-8.896,-8.8089,-8.8013,-8.8065,-6.5422,-6.5446,-6.4029,-6.3474,-6.3572,-6.2903,-6.2129,-6.131,-6.0937,-6.0266,-5.9505,-5.988,-6.0076,-6.0137,-6.0281,-6.0294,-6.0293,-6.0293,-6.0255,-6.0189,-6.0182,-6.0189,-6.021,-6.021,-6.022,-6.0258,-6.0871,-6.1152,-6.119,-6.1843,-6.177,-6.1055,-6.0942,-6.0527,-5.9815,-5.82,-5.715,-5.6697,-5.6701,-5.6893,-5.7191,-5.7079,-5.7187,-5.7476,-5.7401,-5.7359,-5.7461,-5.7564,-5.7662,-5.7756,-5.7929,-5.8127,-5.8336,-5.9306,-5.9903,0.0,-6.0896,0.0,0.0,0.0,0.0,0.0,0.0,0.0,0.0,-6.0846,-6.1906,-6.41,-6.5793,-6.7653,-6.9882,-7.1006,-7.2486,-7.4494,-7.5,-7.6002,-7.7989,-7.8214,-7.9043,-8.1398,-8.1452,-8.1627,-8.246,-8.3228,-8.4352,-8.541,-8.6316,-8.5587,-8.2954,-8.3485,-8.4628,-8.5134,-8.5919,-8.6818,-8.7717,-8.8616,-8.9177,-8.9177,-8.9478,-8.9947,-8.9302,-8.9243,-8.928,-8.9438,-8.9438,-8.9527,-8.9793,-9.0487,-9.1029,-9.128,-9.1795,-9.167,-9.0272,-8.9881,-8.9829,-6.4731,-6.4868,-6.3947,-6.3698,-6.3841,-6.3771,-6.3368,-6.2588,-6.192,-6.0974,-5.9918,-6.0137,-6.0264,-6.0264,-6.0352,-6.038,-6.037,-6.037,-6.0685,-6.1229,-6.1229,-6.1476,-6.2002,-6.2002,-6.197,-6.1932,-6.207,-6.2088,-6.1984,-6.2708,-6.2937,-6.2749,-6.3272,-6.3496,0.0,0.0,0.0,0.0,-5.8651,-5.9027,-5.9816,-5.9289,-5.9323,-6.0106,-5.9465,0.0,-5.9299,-5.936,-5.9457,-5.9581,-5.9798,0.0,0.0,0.0,0.0,0.0,0.0,0.0,0.0,0.0,0.0,0.0,-6.8347,-6.7936,-6.6106,-6.7085,-6.8,-6.8539,-7.0563,-7.2025,-7.2502,-7.5053,-7.6828,-7.7294,-7.9018,-8.0392,-8.085,-8.1344,-8.2212,-8.3316,-8.3464,-8.3726,-8.448,-8.5797,-8.651,-8.6396,-8.7402,-8.7647,-8.6339,-8.7235,-8.7758,-8.6967,-8.7871,-8.9039,-8.9996,-9.0216,-9.0094,-8.9754,-8.9705,-8.9831,-8.9729,-8.9692,-8.9741,-8.9839,-8.9925,-9.02,-9.0941,-9.1292,-9.1634,-9.229,-9.2556,-9.2509,-9.2023,-9.1995,-9.2081,-6.4791,0.0,-6.4182,-6.3963,0.0,-6.4209,-6.4063,-6.3766,-6.2937,-6.2097,-6.1292,-6.1484,-6.1573,-6.1573,-6.1631,-6.1621,-6.1649,-6.1631,-6.1831,-6.2175,-6.2166,-6.251,-6.3253,-6.3199,-6.3369,-6.3744,-6.4153,-6.431,-6.4282,-6.486,-6.5162,-6.5161,-6.5417,-6.5711,-6.6124,-6.6537,-6.5069,-6.1686,-6.1691,-6.1994,-6.2523,-6.2221,-6.2295,-6.2816,0.0,0.0,0.0,0.0,0.0,0.0,0.0,0.0,0.0,0.0,0.0,-6.5781,-6.7384,-6.8306,-6.8436,-6.9975,-7.0937,-7.0937,-7.286,-7.285,-6.9939,-7.0875,-7.1734,-7.2157,-7.3995,-7.5518,-7.6408,-7.8262,-7.973,-8.0537,-8.1726,-8.2606,-8.3025,-8.3372,-8.3866,-8.4668,-8.5162,-8.554,-8.596,-8.6985,-8.7743,-8.7781,-8.8423,-8.8911,-8.8904,-8.927,-8.9327,-8.9062,-8.9642,-9.0297,-9.0335,-9.0434,-9.0418,-9.0001,-8.9982,-9.0075,-9.0075,-9.0121,-9.0129,-9.0257,-9.0257,-9.0568,-9.1533,-9.2035,-9.2608,-9.3497,-9.3994,-9.4261,-9.4135,-9.3427,-9.2717,-6.4918,-6.4948,-6.4369,-6.4212,-6.4332,-6.4368,-6.4634,-6.4857,0.0,0.0,0.0,-6.2833,-6.2892,-6.2892,-6.2921,-6.2911,-6.2901,-6.2892,-6.3053,-6.3321,-6.3274,-6.3732,-6.4649,-6.4582,-6.4859,-6.5538,-6.6324,-6.6698,-6.6742,-6.7391,-6.7764,-6.7766,-6.7755,-6.8086,-6.8763,-6.9359,-6.8382,-6.583,-6.5376,-6.5269,-6.5464,-6.5502,-6.5577,-6.5798,-6.5798,-6.5798,-6.5798,-6.5866,-6.5969,-6.6074,-6.6199,-6.6323,-6.6421,-6.7927,-6.8867,-6.9222,-7.0604,-7.1545,-7.1794,-7.3283,-7.4245,-7.4399,-7.6322,-7.6245,-7.3311,-7.3889,-7.4735,-7.5543,-7.6985,-7.8492,-8.0037,-8.1042,-8.205,-8.3431,-8.37,-8.4122,-8.4701,-8.478,-8.5014,-8.5857,-8.647,-8.6929,-8.7121,-8.7848,-8.8575,-8.9225,-8.9493,-8.9914,-9.0561,-9.0295,-9.021,-9.0894,-9.0941,-9.076,-9.0304,-9.0205,-9.0295,-9.0295,-9.0383,-9.047,-9.0513,-9.0555,-9.0558,-9.0558,-9.0558,-9.1059,-9.2021,-9.271,-9.3634,-9.4711,-9.544,-9.5862,-9.5747,-9.4496,-9.3434,-6.4158,-6.4252,-6.4275,-6.4328,-6.4407,-6.4521,-6.5086,-6.576,-6.4419,-6.341,-6.2773,-6.2833,-6.2892,-6.2892,-6.293,-6.2892,-6.2892,-6.2901,-6.3673,0.0,-6.4985,-6.5749,-6.712,-6.7047,-6.7014,-6.7127,-6.7884,-6.8262,-6.8376,-6.9693,-7.0407,-7.0369,-7.101,-7.1384,-7.1534,-7.1648,-7.1459,-7.0969,-6.9491,-6.8738,-6.8898,-6.894,-6.9057,-6.9209,-6.9171,-6.9209,-6.9209,-6.9355,-6.95,-6.95,-6.9633,-6.9763,-6.9934,-7.0776,-7.1643,-7.2472,-7.3484,-7.4397,-7.5127,-7.6178,-7.7053,-7.7707,-7.813,-7.7852,-7.6794,-7.7439,-7.8276,-7.918,-8.0078,-8.108,-8.1985,-8.3418,-8.4318,-8.4632,-8.5253,-8.5791,-8.5829,-8.5868,-8.6103,-8.6945,-8.7141,-8.7564,-8.8294,-8.9063,-8.9678,-8.9909,-9.037,-9.11,-9.1565,-9.1142,-9.0856,-9.1386,-9.1081,-9.0585,-9.0474,-9.0558,-9.0638,-9.06,-9.0719,-9.0799,-9.0837,-9.0838,-9.0838,-9.0838,-9.0838,-9.1491,-9.2833,-9.3253,-9.4021,-9.5288,-9.5864,-9.5941,-9.5902,-9.5514,-9.532,-6.4249,-6.4391,-6.4439,-6.452,-6.4734,-6.5341,-6.5831,-6.6239,-6.6146,-6.583,-6.5518,-6.5574,-6.5605,-6.5605,-6.5605,-6.5635,-6.5626,-6.5605,-6.5994,-6.672,-6.6705,-6.7522,-6.8993,-6.8943,-6.9284,-7.0156,-7.0498,-7.0649,-7.0686,-7.1319,-7.1618,-7.1622,-7.2377,-7.2793,-7.283,-7.3329,-7.3556,-7.3519,-7.1765,-7.0893,-7.1017,-7.1471,-7.159,-7.1256,-7.1635,-7.1712,-7.1295,-7.1482,-7.1591,-7.1627,-7.2185,-7.2482,-7.2587,-7.3806,-7.4752,-7.5232,-7.6133,-7.6847,-7.7262,-7.8139,-7.943,-8.1116,-8.0885,-8.0713,-8.0905,-8.0347,-8.055,-8.1851,-8.242,-8.2989,-8.3808,-8.4588,-8.5244,-8.5637,-8.603,-8.6254,-8.6285,-8.6315,-8.6624,-8.7426,-8.7996,-8.8613,-8.9463,-9.0312,-9.0813,-9.0852,-9.1199,-9.1554,-9.1901,-9.1534,-9.1328,-9.1913,-9.1414,-9.0915,-9.0839,-9.0839,-9.0915,-9.0915,-9.1026,-9.11,-9.1136,-9.1136,-9.1133,-9.1168,-9.1171,-9.1899,-9.3364,-9.3746,-9.4477,-9.5747,-9.6248,-9.6248,-9.6248,-9.6209,-9.6174,-6.4558,-6.4667,-6.4672,-6.4888,-6.5308,-6.6069,-6.6636,-6.7088,-6.7801,-6.8253,-6.84,-6.8088,-6.7897,-6.7897,-6.7897,-6.789,-6.7883,-6.789,-6.8088,-6.8438,-6.8394,-6.924,-7.0705,-7.0687,-7.1294,-7.2432,-7.2661,-7.2737,-7.2737,-7.2806,-7.2879,-7.296,-7.3528,-7.3831,-7.3831,-7.4556,-7.4859,-7.4783,-7.3522,-7.2838,-7.2881,-7.3481,-7.3601,-7.3154,-7.3647,-7.38,-7.3422,-7.3497,-7.3684,-7.3947,-7.4663,-7.5077,-7.5153,-7.6442,-7.7313,-7.7571,-7.8436,-7.9076,-7.94,-8.02,-8.1493,-8.3256,-8.3017,-8.3114,-8.3895,-8.2912,-8.2622,-8.3847,-8.4059,-8.4474,-8.5207,-8.5439,-8.5748,-8.6366,-8.6443,-8.65,-8.6556,-8.6556,-8.6996,-8.7978,-8.8752,-8.9526,-9.0532,-9.1268,-9.1589,-9.1589,-9.1694,-9.1694,-9.1655,-9.1694,-9.189,-9.2017,-9.1655,-9.1202,-9.1164,-9.1202,-9.1202,-9.1164,-9.1236,-9.127,-9.1303,-9.1336,-9.14,-9.1368,-9.1368,-9.1946,-9.3329,-9.3907,-9.453,-9.5764,-9.6266,-9.6459,-9.6459,-9.6459,-9.6425,-6.4745,-6.486,-6.4926,-6.5513,-6.6319,-6.6472,-6.7445,-6.887,-6.913,-6.9659,-7.0149,-6.8648,-6.7935,-6.7897,-6.7973,-6.8005,-6.8005,-6.7897,-6.8744,-7.0047,-7.0119,-7.0986,-7.2439,-7.2462,-7.2546,-7.2814,-7.3459,-7.3763,-7.3839,-7.4486,-7.4905,-7.4943,-7.5019,-7.5019,-7.5057,-7.5133,-7.5171,-7.5171,-7.5019,-7.4866,-7.4749,-7.4941,-7.5018,-7.4943,-7.5019,-7.5361,-7.5894,-7.616,-7.6578,-7.7302,-7.7523,-7.7743,-7.7743,-7.8003,-7.8492,-7.9254,-8.0164,-8.1074,-8.1977,-8.2901,-8.3153,-8.2785,-8.3384,-8.403,-8.4908,-8.486,-8.4866,-8.5125,-8.5152,-8.5539,-8.6312,-8.6428,-8.6428,-8.6544,-8.6636,-8.6687,-8.6687,-8.6737,-8.7367,-8.8995,-8.9189,-8.9886,-9.132,-9.1785,-9.1863,-9.1888,-9.1888,-9.1888,-9.1888,-9.1849,-9.1888,-9.1928,-9.1638,-9.1492,-9.1454,-9.1431,-9.14,-9.14,-9.14,-9.14,-9.1431,-9.1431,-9.14,-9.1492,-9.1431,-9.1887,-9.2705,-9.3406,-9.4287,-9.5207,-9.594,-9.6487,-9.6492,-9.6525,-9.6492,-6.5047,-6.5204,-6.5226,-6.5779,-6.6667,-6.7263,-6.8204,-6.9374,-6.9911,-7.0363,-7.0613,-6.9941,-6.9604,-6.9544,-6.9544,-6.9559,-6.9578,-7.0056,-7.0662,-7.1357,-7.1816,-7.2696,-7.3696,-7.3701,-7.3896,-7.4393,-7.4666,-7.4783,-7.486,-7.5165,-7.5318,-7.5356,-7.5392,-7.5427,-7.5427,-7.5497,-7.5497,-7.5459,-7.5501,-7.573,-7.6112,-7.6109,-7.6074,-7.6119,-7.6539,-7.6995,-7.7337,-7.7485,-7.7712,-7.8091,-7.862,-7.8918,-7.8956,-7.955,-8.0267,-8.1074,-8.1624,-8.2263,-8.3179,-8.3162,-8.3606,-8.4764,-8.4705,-8.5004,-8.591,-8.6041,-8.6094,-8.612,-8.6094,-8.6261,-8.6584,-8.6623,-8.6687,-8.6713,-8.6761,-8.6785,-8.6832,-8.6854,-8.7498,-8.9072,-8.9443,-9.0103,-9.1578,-9.2005,-9.2044,-9.2088,-9.2088,-9.2049,-9.2092,-9.2053,-9.2092,-9.2049,-9.196,-9.1824,-9.1747,-9.1694,-9.1705,-9.1705,-9.1705,-9.1705,-9.1666,-9.1666,-9.1705,-9.1705,-9.1705,-9.2014,-9.2893,-9.3214,-9.3794,-9.4646,-9.5458,-9.6155,-9.6658,-9.6774,-9.6774,-6.5312,-6.5456,-6.5485,-6.6193,-6.7323,-6.7993,-6.8866,-6.9865,-7.0518,-7.0843,-7.0871,-7.0871,-7.0843,-7.0815,-7.0758,-7.0861,-7.1159,-7.1781,-7.2332,-7.2754,-7.3346,-7.4057,-7.4796,-7.4785,-7.5072,-7.5557,-7.5545,-7.5556,-7.5523,-7.5556,-7.5523,-7.5556,-7.5628,-7.566,-7.566,-7.5724,-7.5871,-7.6101,-7.6108,-7.653,-7.7316,-7.727,-7.7138,-7.7173,-7.7673,-7.8129,-7.8467,-7.8501,-7.865,-7.9023,-7.9594,-7.9934,-7.9966,-8.0708,-8.1462,-8.2301,-8.2738,-8.322,-8.3808,-8.3779,-8.4414,-8.5976,-8.5809,-8.5913,-8.6507,-8.6713,-8.6737,-8.6698,-8.6687,-8.6649,-8.6737,-8.6737,-8.6761,-8.6809,-8.6809,-8.6854,-8.6899,-8.7054,-8.7873,-8.9235,-8.974,-9.04,-9.1742,-9.2151,-9.2171,-9.2191,-9.221,-9.2171,-9.2208,-9.2169,-9.2208,-9.2171,-9.2132,-9.2049,-9.1975,-9.1863,-9.1888,-9.1888,-9.1863,-9.1863,-9.1888,-9.1888,-9.1888,-9.1812,-9.1863,-9.2043,-9.2496,-9.2871,-9.3439,-9.4253,-9.5106,-9.5843,-9.6333,-9.6734,-9.6967,-6.5624,-6.568,-6.5779,-6.6844,-6.8423,-6.85,-6.945,-7.0927,-7.1042,-7.1081,-7.1081,-7.1081,-7.1081,-7.1081,-7.1017,-7.1381,-7.2063,-7.2188,-7.307,-7.4345,-7.4571,-7.508,-7.5839,-7.5848,-7.5841,-7.5887,-7.589,-7.587,-7.587,-7.587,-7.587,-7.587,-7.587,-7.587,-7.5947,-7.5947,-7.6361,-7.7053,-7.7169,-7.7583,-7.8402,-7.8486,-7.8412,-7.8333,-7.83,-7.8683,-7.9335,-7.945,-7.9791,-8.0734,-8.0799,-8.0931,-8.0992,-8.1196,-8.1754,-8.2487,-8.3382,-8.3845,-8.4165,-8.5345,-8.6132,-8.5831,-8.6258,-8.6708,-8.6747,-8.6785,-8.6809,-8.6809,-8.6809,-8.677,-8.6809,-8.6809,-8.6809,-8.6809,-8.6877,-8.6899,-8.6899,-8.7661,-8.8536,-8.9429,-9.0265,-9.1102,-9.2074,-9.219,-9.2208,-9.2169,-9.2187,-9.2226,-9.2243,-9.2226,-9.2226,-9.2226,-9.2208,-9.2171,-9.2028,-9.1983,-9.1936,-9.1936,-9.196,-9.1912,-9.1888,-9.1888,-9.1888,-9.1912,-9.1936,-9.2014,-9.2145,-9.2586,-9.3347,-9.4147,-9.4962,-9.566,-9.6097,-9.6605,-9.694,-6.5832,-6.5943,-6.6576,-6.7525,-6.8645,-6.9208,-7.012,-7.1186,-7.1224,-7.1247,-7.1269,-7.1291,-7.1313,-7.1373,-7.1872,-7.2182,-7.2392,-7.2893,-7.3781,-7.4808,-7.5414,-7.5809,-7.6062,-7.609,-7.6083,-7.6108,-7.6056,-7.6079,-7.6079,-7.6118,-7.6079,-7.6079,-7.6118,-7.6349,-7.6812,-7.6927,-7.7351,-7.8122,-7.8199,-7.8651,-7.9412,-7.9516,-7.9692,-8.0145,-7.9653,-7.9768,-8.0615,-8.0654,-8.0838,-8.1137,-8.1205,-8.1205,-8.1301,-8.1876,-8.2174,-8.2172,-8.3319,-8.4107,-8.4263,-8.523,-8.6111,-8.6355,-8.6605,-8.6793,-8.6809,-8.6832,-8.6877,-8.6877,-8.6902,-8.6923,-8.6923,-8.692,-8.6877,-8.692,-8.6923,-8.6962,-8.7137,-8.7778,-8.8671,-8.9604,-9.0771,-9.1839,-9.2034,-9.2208,-9.2187,-9.226,-9.226,-9.2276,-9.2331,-9.2347,-9.2293,-9.2276,-9.226,-9.2243,-9.2132,-9.2132,-9.2112,-9.2073,-9.2073,-9.2073,-9.2073,-9.2053,-9.2053,-9.2053,-9.2071,-9.2071,-9.2187,-9.2265,-9.3042,-9.3625,-9.4479,-9.5217,-9.5843,-9.6422,-9.691,-6.608,-6.6278,-6.7093,-6.7965,-6.8816,-6.967,-7.0581,-7.1317,-7.1355,-7.1415,-7.1435,-7.1435,-7.1455,-7.1649,-7.2386,-7.2869,-7.2987,-7.379,-7.4649,-7.5453,-7.6064,-7.6326,-7.6314,-7.6339,-7.6335,-7.6366,-7.6335,-7.6326,-7.6326,-7.6326,-7.6326,-7.6326,-7.6557,-7.7021,-7.7587,-7.7896,-7.8451,-7.9147,-7.9301,-7.9688,-8.0422,-8.0538,-8.0808,-8.1234,-8.0847,-8.0782,-8.1319,-8.1319,-8.1347,-8.14,-8.14,-8.14,-8.1504,-8.207,-8.222,-8.1924,-8.3281,-8.4188,-8.4389,-8.5289,-8.6256,-8.6787,-8.6865,-8.6881,-8.6881,-8.6961,-8.6943,-8.6962,-8.7001,-8.7037,-8.7037,-8.6982,-8.7001,-8.704,-8.7019,-8.7154,-8.7465,-8.8278,-8.9307,-9.0436,-9.1486,-9.2126,-9.2243,-9.226,-9.2276,-9.2308,-9.2308,-9.2362,-9.2377,-9.2405,-9.2405,-9.2338,-9.2352,-9.2352,-9.2323,-9.2308,-9.2243,-9.2187,-9.2169,-9.2187,-9.2204,-9.2204,-9.2204,-9.2187,-9.2187,-9.2187,-9.2187,-9.2187,-9.2537,-9.3082,-9.3764,-9.4504,-9.534,-9.6293,-9.6682,-6.634,-6.657,-6.7268,-6.8199,-6.909,-6.9962,-7.0719,-7.1436,-7.1513,-7.1513,-7.1532,-7.1513,-7.1513,-7.1707,-7.254,-7.3297,-7.3976,-7.4865,-7.57,-7.6438,-7.6514,-7.6566,-7.6575,-7.6549,-7.6591,-7.6573,-7.6573,-7.6573,-7.6553,-7.6669,-7.6708,-7.6806,-7.7504,-7.7948,-7.7969,-7.8783,-7.952,-8.0196,-8.039,-8.0777,-8.1575,-8.1553,-8.1553,-8.1669,-8.1591,-8.1523,-8.1427,-8.1427,-8.1478,-8.1577,-8.16,-8.1624,-8.1669,-8.1769,-8.1751,-8.1984,-8.3303,-8.4156,-8.4466,-8.5846,-8.6786,-8.6959,-8.6977,-8.7016,-8.7055,-8.7072,-8.7072,-8.7072,-8.7089,-8.7089,-8.7089,-8.7089,-8.7089,-8.7089,-8.7089,-8.74,-8.8218,-8.9151,-9.0319,-9.1659,-9.2221,-9.2293,-9.2293,-9.2347,-9.2377,-9.2391,-9.2391,-9.2391,-9.2405,-9.2432,-9.2405,-9.2405,-9.2456,-9.2456,-9.2468,-9.2479,-9.2366,-9.2293,-9.2276,-9.2276,-9.2293,-9.2254,-9.2308,-9.2308,-9.2308,-9.2308,-9.2308,-9.2308,-9.2293,-9.276,-9.3311,-9.3895,-9.4668,-9.5541,-9.6248,-6.6739,-6.7448,-6.8296,-6.9127,-6.9982,-7.0852,-7.1412,-7.1645,-7.1645,-7.1645,-7.1645,-7.1645,-7.163,-7.198,-7.3146,-7.3945,-7.4339,-7.568,-7.6475,-7.6605,-7.6605,-7.6612,-7.6651,-7.6672,-7.6671,-7.6671,-7.6671,-7.6671,-7.6788,-7.7272,-7.7583,-7.7738,-7.8437,-7.9136,-7.9602,-7.999,-8.0476,-8.1191,-8.1269,-8.1424,-8.1695,-8.1713,-8.1713,-8.1716,-8.1716,-8.1716,-8.1737,-8.1669,-8.1624,-8.1669,-8.1669,-8.1713,-8.1757,-8.1796,-8.1833,-8.2064,-8.3463,-8.4398,-8.465,-8.6009,-8.704,-8.7072,-8.7059,-8.7098,-8.7105,-8.7089,-8.7089,-8.7105,-8.716,-8.7176,-8.7176,-8.722,-8.7181,-8.7105,-8.716,-8.7526,-8.85,-8.9815,-9.1062,-9.2074,-9.2362,-9.2377,-9.2377,-9.2391,-9.2405,-9.2419,-9.2432,-9.2393,-9.2456,-9.2468,-9.2479,-9.2479,-9.249,-9.25,-9.251,-9.251,-9.244,-9.2393,-9.2366,-9.2352,-9.2352,-9.2366,-9.2366,-9.2366,-9.238,-9.238,-9.238,-9.238,-9.2366,-9.2575,-9.3159,-9.364,-9.403,-9.464,-9.5431,-6.7277,-6.7952,-6.9109,-6.994,-7.0523,-7.1315,-7.1679,-7.1679,-7.1679,-7.1679,-7.1679,-7.1679,-7.1899,-7.2429,-7.3688,-7.4491,-7.4933,-7.6271,-7.6825,-7.6728,-7.6702,-7.6747,-7.6764,-7.6777,-7.6754,-7.6777,-7.6777,-7.6932,-7.7243,-7.7749,-7.8176,-7.8604,-7.9398,-8.0059,-8.0586,-8.0936,-8.1346,-8.1757,-8.1815,-8.1815,-8.1835,-8.1815,-8.1835,-8.1815,-8.1815,-8.1852,-8.1943,-8.1854,-8.1815,-8.1815,-8.1815,-8.1854,-8.1869,-8.1887,-8.1959,-8.2287,-8.347,-8.4488,-8.4668,-8.6107,-8.7115,-8.7121,-8.7142,-8.7156,-8.7167,-8.7167,-8.7167,-8.7181,-8.7209,-8.7209,-8.7222,-8.7247,-8.7247,-8.7195,-8.7209,-8.7793,-8.8923,-9.0587,-9.1717,-9.2302,-9.2432,-9.2432,-9.2432,-9.2432,-9.2444,-9.2417,-9.2417,-9.2468,-9.249,-9.25,-9.25,-9.251,-9.2481,-9.249,-9.249,-9.249,-9.2481,-9.2471,-9.2451,-9.2468,-9.2468,-9.2468,-9.2468,-9.2468,-9.2468,-9.2456,-9.2456,-9.2468,-9.2468,-9.2802,-9.3008,-9.3298,-9.3638,-9.4028,-9.4679,-6.793,-6.819,-6.9786,-7.0538,-7.0733,-7.1433,-7.1706,-7.1693,-7.1693,-7.1706,-7.1706,-7.1745,-7.216,-7.3041,-7.3925,-7.4753,-7.5642,-7.6451,-7.6897,-7.687,-7.6882,-7.6885,-7.6908,-7.691,-7.6871,-7.6908,-7.6908,-7.7336,-7.7944,-7.8231,-7.8621,-7.9477,-8.0294,-8.0761,-8.0995,-8.1602,-8.1913,-8.1975,-8.1975,-8.1975,-8.1998,-8.1959,-8.1975,-8.1991,-8.1975,-8.1991,-8.1991,-8.1991,-8.1991,-8.1991,-8.1975,-8.1975,-8.1991,-8.1991,-8.2007,-8.224,-8.3641,-8.4459,-8.4926,-8.6171,-8.7137,-8.7209,-8.7222,-8.7222,-8.7247,-8.7286,-8.7298,-8.7281,-8.7292,-8.7292,-8.7292,-8.7302,-8.7302,-8.7302,-8.7448,-8.8217,-8.9738,-9.1309,-9.2128,-9.2401,-9.249,-9.249,-9.2479,-9.2479,-9.249,-9.249,-9.249,-9.25,-9.251,-9.2481,-9.249,-9.2498,-9.2507,-9.2546,-9.2546,-9.2546,-9.2546,-9.2537,-9.2529,-9.252,-9.251,-9.251,-9.251,-9.251,-9.25,-9.25,-9.25,-9.251,-9.251,-9.2598,-9.2783,-9.3008,-9.3203,-9.3525,-9.3759,-6.8359,-6.905,-7.0142,-7.0922,-7.1507,-7.178,-7.1848,-7.1848,-7.1848,-7.1848,-7.1848,-7.1858,-7.2345,-7.3202,-7.407,-7.4906,-7.5767,-7.6573,-7.6972,-7.6975,-7.6985,-7.6994,-7.6987,-7.6987,-7.6948,-7.6975,-7.7014,-7.7404,-7.8261,-7.8806,-7.9546,-8.0442,-8.1221,-8.1689,-8.1805,-8.1961,-8.2039,-8.1987,-8.1998,-8.1998,-8.2022,-8.2007,-8.2007,-8.1998,-8.1998,-8.2012,-8.2078,-8.2065,-8.2039,-8.1991,-8.2022,-8.1998,-8.1998,-8.2104,-8.239,-8.3052,-8.4013,-8.4949,-8.5637,-8.6585,-8.7208,-8.727,-8.7292,-8.7292,-8.7292,-8.7331,-8.7292,-8.7302,-8.7302,-8.7302,-8.7302,-8.7321,-8.7377,-8.7464,-8.7789,-8.855,-8.972,-9.0813,-9.1759,-9.2334,-9.2432,-9.2422,-9.25,-9.25,-9.25,-9.252,-9.2481,-9.249,-9.2498,-9.2507,-9.2507,-9.2514,-9.2522,-9.2561,-9.26,-9.26,-9.26,-9.26,-9.2553,-9.2553,-9.2507,-9.2507,-9.2507,-9.2507,-9.2498,-9.2537,-9.2498,-9.2507,-9.2507,-9.2498,-9.2576,-9.2772,-9.2694,-9.2858,-9.2897,-6.8539,-6.9358,-7.0216,-7.1113,-7.1854,-7.1893,-7.1893,-7.1893,-7.1893,-7.1893,-7.1893,-7.1893,-7.24,-7.3259,-7.4117,-7.4975,-7.5815,-7.6614,-7.6985,-7.6981,-7.7012,-7.6985,-7.7004,-7.6994,-7.6994,-7.6994,-7.6994,-7.7696,-7.8709,-7.9333,-8.0191,-8.1243,-8.1867,-8.2112,-8.2101,-8.214,-8.2101,-8.2089,-8.2077,-8.2077,-8.2077,-8.2104,-8.2091,-8.2077,-8.2077,-8.2128,-8.2151,-8.2123,-8.2101,-8.2052,-8.2052,-8.2077,-8.2116,-8.2479,-8.292,-8.3477,-8.454,-8.5515,-8.6022,-8.6813,-8.7273,-8.7321,-8.733,-8.7321,-8.736,-8.736,-8.736,-8.7369,-8.733,-8.733,-8.733,-8.7386,-8.7393,-8.744,-8.7815,-8.8462,-8.932,-9.0148,-9.1054,-9.1687,-9.1999,-9.2169,-9.2403,-9.2481,-9.249,-9.2498,-9.2507,-9.2514,-9.2514,-9.2522,-9.2522,-9.2528,-9.2567,-9.2567,-9.258,-9.2585,-9.2585,-9.258,-9.258,-9.2574,-9.2567,-9.2528,-9.2522,-9.2522,-9.2522,-9.2522,-9.2528,-9.2528,-9.2561,-9.2553,-9.2561,-9.2522,-9.2528,-9.2528,-9.2528,-6.8541,-6.9249,-7.0185,-7.1082,-7.1706,-7.1862,-7.1901,-7.1901,-7.1901,-7.1901,-7.1901,-7.1901,-7.2416,-7.3243,-7.3938,-7.4843,-7.5807,-7.6474,-7.6841,-7.6965,-7.7036,-7.7012,-7.7012,-7.7012,-7.7004,-7.7004,-7.7004,-7.8018,-7.9101,-7.9569,-8.0553,-8.1675,-8.2143,-8.2192,-8.2182,-8.2182,-8.2182,-8.2172,-8.2172,-8.2182,-8.2182,-8.2182,-8.2172,-8.2182,-8.2182,-8.2182,-8.2182,-8.2192,-8.2182,-8.2123,-8.2182,-8.2182,-8.2309,-8.3011,-8.3557,-8.3908,-8.5039,-8.5976,-8.6258,-8.697,-8.7299,-8.7315,-8.7299,-8.733,-8.7377,-8.7377,-8.7386,-8.7401,-8.7407,-8.7401,-8.7401,-8.7401,-8.7401,-8.7407,-8.744,-8.7798,-8.8501,-8.932,-9.0179,-9.0999,-9.1155,-9.1546,-9.2092,-9.2404,-9.2404,-9.2514,-9.2514,-9.2522,-9.2522,-9.2561,-9.2567,-9.258,-9.2574,-9.2574,-9.259,-9.2603,-9.2603,-9.2599,-9.2599,-9.2595,-9.258,-9.258,-9.2574,-9.2574,-9.258,-9.258,-9.258,-9.2574,-9.2613,-9.2574,-9.258,-9.2574,-9.2574,-9.258,-9.258,-6.82,-6.8502,-7.0024,-7.0766,-7.1039,-7.1663,-7.1937,-7.1937,-7.1976,-7.1937,-7.1976,-7.1976,-7.2444,-7.3225,-7.3537,-7.4363,-7.5579,-7.5996,-7.6354,-7.7056,-7.7056,-7.7089,-7.705,-7.705,-7.6997,-7.702,-7.7004,-7.794,-7.9188,-7.9734,-8.0514,-8.1958,-8.2201,-8.2192,-8.2192,-8.2201,-8.2192,-8.2192,-8.2192,-8.2192,-8.2192,-8.2192,-8.2201,-8.221,-8.2201,-8.2192,-8.2201,-8.2171,-8.2179,-8.2171,-8.2201,-8.2201,-8.2357,-8.305,-8.38,-8.4542,-8.5448,-8.6385,-8.6961,-8.7221,-8.7362,-8.7362,-8.7362,-8.7362,-8.7401,-8.7401,-8.7401,-8.7407,-8.7407,-8.7407,-8.7407,-8.7407,-8.7407,-8.7407,-8.7407,-8.7486,-8.7798,-8.8461,-8.932,-8.9984,-9.0296,-9.0609,-9.1389,-9.1546,-9.178,-9.2287,-9.2482,-9.2522,-9.2561,-9.2606,-9.2606,-9.258,-9.259,-9.259,-9.2599,-9.2609,-9.2611,-9.2611,-9.2609,-9.2609,-9.2599,-9.2595,-9.2595,-9.2595,-9.2599,-9.2595,-9.2595,-9.2595,-9.2599,-9.2595,-9.2578,-9.2595,-9.2595,-9.2595,-9.2595,-6.7732,-6.8161,-6.8669,-6.9333,-7.0035,-7.0152,-7.066,-7.1285,-7.1402,-7.1636,-7.1948,-7.1987,-7.2255,-7.2678,-7.3114,-7.3861,-7.4642,-7.5501,-7.6281,-7.6945,-7.7101,-7.7101,-7.7101,-7.7062,-7.705,-7.7036,-7.7036,-7.805,-7.9221,-7.9768,-8.0509,-8.2109,-8.2265,-8.2265,-8.2265,-8.2265,-8.2226,-8.2265,-8.2265,-8.2257,-8.2257,-8.2257,-8.2226,-8.2234,-8.2265,-8.2265,-8.2265,-8.2234,-8.2241,-8.2234,-8.2265,-8.2265,-8.2499,-8.3397,-8.4294,-8.4841,-8.6059,-8.68,-8.7308,-8.7393,-8.7407,-8.7407,-8.7407,-8.7407,-8.7407,-8.7407,-8.7407,-8.7407,-8.7407,-8.7407,-8.7407,-8.7407,-8.7407,-8.7407,-8.7407,-8.7407,-8.7486,-8.7837,-8.8422,-8.9125,-8.9398,-8.9867,-9.0335,-9.0609,-9.1116,-9.163,-9.1858,-9.1936,-9.258,-9.258,-9.2606,-9.258,-9.2599,-9.2606,-9.2609,-9.2574,-9.2577,-9.2577,-9.2576,-9.2576,-9.2574,-9.2574,-9.2574,-9.2578,-9.2578,-9.2578,-9.2574,-9.2574,-9.2578,-9.2578,-9.2578,-9.2578,-9.2578,-9.2578,-9.2578,-6.7107,-6.7849,-6.7107,-6.7693,-6.8786,-6.8435,-6.8981,-7.0152,-7.0465,-7.0855,-7.1519,-7.1714,-7.1708,-7.1897,-7.2684,-7.308,-7.3744,-7.5032,-7.6242,-7.6672,-7.7023,-7.7062,-7.7101,-7.7101,-7.7101,-7.7101,-7.7095,-7.8032,-7.9047,-7.9717,-8.0452,-8.1858,-8.2293,-8.2287,-8.2293,-8.2293,-8.2287,-8.2287,-8.2287,-8.2287,-8.2287,-8.2287,-8.2287,-8.2287,-8.2287,-8.2287,-8.2287,-8.2287,-8.2293,-8.2293,-8.2293,-8.2293,-8.2723,-8.3816,-8.4831,-8.487,-8.6347,-8.7205,-8.7362,-8.7401,-8.7407,-8.7407,-8.7407,-8.7414,-8.7414,-8.742,-8.742,-8.742,-8.742,-8.742,-8.7414,-8.742,-8.7414,-8.7407,-8.7407,-8.7414,-8.7407,-8.7407,-8.7882,-8.8305,-8.854,-8.8891,-8.9444,-8.9834,-9.0381,-9.0889,-9.1123,-9.1474,-9.2117,-9.2578,-9.2578,-9.2578,-9.2609,-9.2578,-9.2578,-9.2578,-9.2578,-9.2578,-9.2578,-9.2578,-9.2578,-9.2578,-9.2578,-9.2578,-9.2578,-9.2578,-9.2578,-9.2578,-9.2578,-9.2578,-9.2578,-9.2578,-9.2578,-9.2578,-9.2578,-6.6288,-6.7029,-6.6873,-6.699,-6.7303,-6.781,-6.8161,-6.863,-6.9294,-6.9684,-6.9957,-7.0582,-7.0933,-7.1162,-7.1831,-7.2573,-7.351,-7.4798,-7.5774,-7.6203,-7.6672,-7.6984,-7.7101,-7.7101,-7.7101,-7.7101,-7.714,-7.7687,-7.8624,-7.9366,-8.0269,-8.12,-8.1981,-8.2293,-8.2299,-8.2293,-8.2299,-8.2299,-8.2299,-8.2299,-8.2299,-8.2299,-8.2299,-8.2299,-8.2299,-8.2299,-8.2293,-8.2293,-8.2293,-8.2293,-8.2293,-8.2293,-8.2606,-8.3855,-8.4636,-8.5149,-8.6321,-8.7258,-8.7368,-8.7407,-8.7407,-8.7407,-8.7407,-8.742,-8.7397,-8.7405,-8.7405,-8.7405,-8.7405,-8.7405,-8.7405,-8.7405,-8.7392,-8.7387,-8.7387,-8.7392,-8.742,-8.7426,-8.7475,-8.7777,-8.7843,-8.7915,-8.8507,-8.9021,-8.9422,-9.0013,-9.0442,-9.0945,-9.1614,-9.2148,-9.25,-9.2539,-9.2578,-9.2578,-9.2578,-9.2578,-9.2578,-9.2578,-9.2578,-9.2578,-9.2578,-9.2578,-9.2578,-9.2578,-9.2578,-9.2578,-9.2578,-9.2578,-9.2578,-9.2578,-9.2578,-9.2578,-9.2578,-9.2578,-9.2578,-6.5155,-6.5546,-6.5975,-6.617,-6.617,-6.6131,-6.6639,-6.742,-6.7888,-6.8591,-6.9294,-6.984,-7.0303,-7.0693,-7.1084,-7.2026,-7.3315,-7.3978,-7.4954,-7.5696,-7.6242,-7.6711,-7.7023,-7.7062,-7.7101,-7.7101,-7.7179,-7.7581,-7.841,-7.927,-8.0129,-8.1027,-8.1886,-8.2315,-8.2315,-8.2315,-8.2315,-8.2315,-8.2315,-8.2315,-8.2315,-8.2315,-8.2315,-8.2315,-8.2315,-8.2315,-8.2315,-8.2315,-8.2315,-8.2315,-8.2315,-8.2315,-8.2662,-8.3359,-8.4369,-8.4966,-8.6064,-8.6996,-8.7297,-8.742,-8.7397,-8.7405,-8.7392,-8.7414,-8.7436,-8.7447,-8.7461,-8.7461,-8.7461,-8.7457,-8.7457,-8.7422,-8.7416,-8.7408,-8.7401,-8.7426,-8.742,-8.744,-8.7444,-8.7444,-8.7518,-8.7665,-8.7759,-8.8206,-8.8533,-8.9049,-8.9677,-9.0341,-9.1002,-9.1523,-9.1992,-9.2422,-9.25,-9.2578,-9.2578,-9.2578,-9.2578,-9.2578,-9.2578,-9.2578,-9.2578,-9.2578,-9.2578,-9.2578,-9.2578,-9.2578,-9.2578,-9.2578,-9.2578,-9.2578,-9.2578,-9.2578,-9.2578,-9.2578,-9.2578,-6.3711,-6.4062,-6.4609,-6.4921,-6.496,-6.4336,-6.4804,-6.5897,-6.6444,-6.7303,-6.8552,-6.8981,-6.9522,-7.0141,-7.0693,-7.1558,-7.3002,-7.3197,-7.4134,-7.4993,-7.574,-7.6253,-7.6672,-7.7073,-7.7122,-7.7126,-7.7185,-7.7542,-7.8141,-7.917,-8.0071,-8.0774,-8.1672,-8.2297,-8.2297,-8.2297,-8.2297,-8.2297,-8.2297,-8.2297,-8.2297,-8.2297,-8.2297,-8.2297,-8.2297,-8.2297,-8.2297,-8.2297,-8.2297,-8.2297,-8.2297,-8.2295,-8.2406,-8.2974,-8.3828,-8.4784,-8.569,-8.6507,-8.7167,-8.7444,-8.7416,-8.742,-8.7447,-8.7431,-8.7436,-8.7461,-8.75,-8.75,-8.75,-8.75,-8.75,-8.7461,-8.7461,-8.746,-8.7447,-8.7436,-8.7451,-8.7459,-8.7461,-8.7461,-8.742,-8.7492,-8.76,-8.7674,-8.8041,-8.832,-8.8945,-8.941,-9.0076,-9.0703,-9.125,-9.1992,-9.2381,-9.2537,-9.2578,-9.2578,-9.2578,-9.2578,-9.2578,-9.2578,-9.2599,-9.2578,-9.259,-9.2599,-9.2578,-9.2578,-9.2578,-9.2578,-9.2578,-9.2578,-9.2578,-9.2578,-9.2578,-9.2578,-9.2578,-6.1759,-6.3086,-6.2462,-6.2579,-6.3282,-6.3243,-6.3243,-6.3711,-6.5116,-6.5819,-6.6444,-6.7576,-6.8279,-6.8859,-7.0186,-7.1245,-7.2104,-7.2885,-7.3393,-7.4023,-7.513,-7.5872,-7.6219,-7.6868,-7.7108,-7.7186,-7.7204,-7.7224,-7.779,-7.8981,-7.9726,-8.0234,-8.1484,-8.2304,-8.2304,-8.2304,-8.2304,-8.2304,-8.2304,-8.2304,-8.2304,-8.2304,-8.2304,-8.2304,-8.2304,-8.2304,-8.2304,-8.2304,-8.2304,-8.2304,-8.2304,-8.2304,-8.2331,-8.2349,-8.3393,-8.458,-8.5732,-8.6562,-8.7265,-8.7461,-8.7461,-8.7461,-8.7461,-8.75,-8.7499,-8.7461,-8.7461,-8.75,-8.75,-8.75,-8.75,-8.75,-8.75,-8.75,-8.7461,-8.746,-8.7451,-8.7457,-8.7451,-8.7451,-8.7416,-8.7421,-8.75,-8.75,-8.7578,-8.7849,-8.8193,-8.869,-8.9383,-9.0139,-9.077,-9.1552,-9.2294,-9.2528,-9.2606,-9.2606,-9.2606,-9.2606,-9.2606,-9.2603,-9.259,-9.2606,-9.2606,-9.258,-9.2585,-9.2595,-9.2578,-9.2578,-9.2578,-9.2578,-9.2578,-9.2578,-9.2578,-9.2578,-9.2578,-5.8788,-6.09,-6.1954,-6.2345,-6.2345,-6.2774,-6.3008,-6.3164,-6.3789,-6.4687,-6.5585,-6.6288,-6.7146,-6.8279,-6.9918,-7.0894,-7.1402,-7.2182,-7.2885,-7.3398,-7.454,-7.5412,-7.605,-7.6756,-7.7211,-7.7181,-7.7187,-7.7148,-7.7656,-7.8711,-7.9726,-7.9961,-8.1328,-8.2304,-8.2304,-8.2304,-8.2304,-8.2304,-8.2304,-8.2304,-8.2304,-8.2304,-8.2304,-8.2304,-8.2304,-8.2304,-8.2304,-8.2304,-8.2304,-8.2304,-8.2304,-8.2304,-8.2303,-8.2376,-8.292,-8.3977,-8.4959,-8.6054,-8.7226,-8.7422,-8.75,-8.75,-8.75,-8.75,-8.75,-8.7456,-8.7444,-8.7422,-8.7422,-8.7456,-8.7457,-8.7457,-8.7457,-8.7457,-8.7457,-8.7451,-8.7436,-8.742,-8.742,-8.7426,-8.7392,-8.7444,-8.7451,-8.7453,-8.7456,-8.757,-8.7838,-8.8178,-8.9144,-9.0276,-9.0789,-9.1252,-9.1999,-9.2585,-9.2585,-9.2585,-9.2585,-9.2585,-9.2585,-9.2585,-9.258,-9.2606,-9.2567,-9.2561,-9.2528,-9.2546,-9.2564,-9.2578,-9.2578,-9.2578,-9.2578,-9.2572,-9.2574,-9.2578,-9.2578,-5.6475,-5.8675,-6.0822,-6.1525,-6.1447,-6.2071,-6.2462,-6.2657,-6.2969,-6.375,-6.4804,-6.5468,-6.6561,-6.8122,-6.9567,-7.0465,-7.0816,-7.1597,-7.231,-7.3095,-7.3876,-7.4712,-7.5507,-7.6349,-7.6951,-7.7179,-7.7126,-7.7094,-7.7566,-7.8476,-7.9414,-7.9726,-8.1094,-8.1992,-8.2265,-8.2304,-8.2304,-8.2304,-8.2304,-8.2304,-8.2304,-8.2304,-8.2304,-8.2304,-8.2304,-8.2304,-8.2304,-8.2304,-8.2304,-8.2304,-8.2304,-8.2304,-8.2304,-8.2343,-8.2731,-8.3592,-8.4333,-8.5156,-8.6367,-8.707,-8.7383,-8.7498,-8.7457,-8.7461,-8.7461,-8.744,-8.7414,-8.7414,-8.7392,-8.7401,-8.7401,-8.7401,-8.7401,-8.7401,-8.7401,-8.7401,-8.7401,-8.742,-8.7407,-8.7414,-8.7414,-8.7414,-8.7426,-8.7397,-8.7401,-8.7401,-8.7553,-8.7743,-8.8708,-8.9952,-9.0498,-9.0889,-9.1904,-9.2489,-9.2567,-9.2567,-9.2561,-9.26,-9.26,-9.2561,-9.2567,-9.2567,-9.2561,-9.2522,-9.2522,-9.2528,-9.2546,-9.2551,-9.2595,-9.2595,-9.2595,-9.2595,-9.2595,-9.2595,-9.2595,-5.5801,-5.684,-5.7816,-5.9143,-6.0466,-6.0549,-6.1056,-6.1837,-6.2618,-6.3047,-6.3599,-6.4882,-6.6488,-6.7893,-6.8947,-6.9918,-7.0699,-7.1597,-7.1975,-7.2372,-7.2994,-7.3934,-7.4804,-7.5607,-7.6399,-7.6945,-7.7073,-7.7112,-7.7263,-7.7937,-7.8887,-7.9753,-8.0808,-8.1553,-8.2061,-8.2295,-8.2295,-8.2295,-8.2295,-8.2295,-8.2295,-8.2295,-8.2295,-8.2295,-8.2295,-8.2304,-8.2304,-8.2304,-8.2304,-8.2304,-8.2304,-8.2304,-8.2304,-8.2295,-8.2714,-8.3257,-8.3695,-8.4404,-8.5263,-8.652,-8.7336,-8.7397,-8.742,-8.7436,-8.7447,-8.7408,-8.7397,-8.7407,-8.7414,-8.7414,-8.7414,-8.7407,-8.742,-8.742,-8.742,-8.742,-8.742,-8.742,-8.7407,-8.7407,-8.7407,-8.7407,-8.7407,-8.742,-8.742,-8.7387,-8.7387,-8.7615,-8.8117,-8.9164,-8.9867,-9.0531,-9.1741,-9.2326,-9.2482,-9.2522,-9.2522,-9.2522,-9.2522,-9.2522,-9.2522,-9.2522,-9.2522,-9.2522,-9.2482,-9.2482,-9.2522,-9.2535,-9.258,-9.2567,-9.2606,-9.2574,-9.258,-9.258,-9.2574,-5.5304,-5.6606,-5.6957,-5.7738,-5.887,-5.9963,-6.0588,-6.1017,-6.1837,-6.2549,-6.3107,-6.4786,-6.5957,-6.6813,-6.8054,-6.9064,-6.9923,-7.0809,-7.1442,-7.2148,-7.2889,-7.3475,-7.4216,-7.506,-7.6008,-7.6399,-7.675,-7.7101,-7.7179,-7.7531,-7.8512,-7.9499,-8.0475,-8.1412,-8.1998,-8.2315,-8.231,-8.231,-8.231,-8.231,-8.231,-8.231,-8.231,-8.231,-8.231,-8.2315,-8.2304,-8.2304,-8.2304,-8.23,-8.23,-8.23,-8.23,-8.2324,-8.2506,-8.2879,-8.3248,-8.3716,-8.4272,-8.5651,-8.678,-8.7381,-8.7407,-8.7414,-8.7387,-8.7387,-8.742,-8.7407,-8.7407,-8.7407,-8.7407,-8.7407,-8.7407,-8.7407,-8.7407,-8.7407,-8.7407,-8.7407,-8.7407,-8.7407,-8.7407,-8.7407,-8.7407,-8.7407,-8.7407,-8.7407,-8.7407,-8.7486,-8.7993,-8.8618,-8.9437,-9.0257,-9.1428,-9.2248,-9.2443,-9.2482,-9.2482,-9.2482,-9.2482,-9.2482,-9.2482,-9.2482,-9.2522,-9.2482,-9.2482,-9.2482,-9.2522,-9.2522,-9.2522,-9.2561,-9.2561,-9.2528,-9.2561,-9.2561,-9.2561,-5.5036,-5.6528,-5.6606,-5.7074,-5.7933,-5.9378,-6.0163,-6.0518,-6.133,-6.2205,-6.308,-6.4565,-6.5385,-6.6008,-6.737,-6.8616,-6.9521,-7.0388,-7.1211,-7.1913,-7.2538,-7.3046,-7.3702,-7.4588,-7.554,-7.5891,-7.6594,-7.7101,-7.7101,-7.7101,-7.796,-7.9092,-8.0185,-8.1083,-8.2098,-8.2293,-8.2293,-8.2293,-8.2293,-8.2293,-8.2293,-8.2293,-8.2293,-8.2293,-8.2293,-8.2299,-8.2305,-8.2315,-8.232,-8.2324,-8.2324,-8.2324,-8.2324,-8.232,-8.2315,-8.2495,-8.2801,-8.323,-8.3627,-8.4687,-8.6064,-8.6744,-8.6939,-8.7095,-8.7329,-8.7407,-8.7407,-8.7407,-8.7407,-8.7407,-8.7407,-8.7407,-8.7407,-8.7407,-8.7407,-8.7407,-8.7407,-8.7407,-8.7407,-8.7407,-8.7407,-8.7407,-8.7407,-8.7407,-8.7407,-8.7407,-8.7407,-8.7446,-8.7642,-8.8422,-8.9359,-9.0218,-9.1155,-9.1858,-9.2443,-9.2482,-9.2482,-9.2482,-9.2482,-9.2482,-9.2482,-9.2482,-9.2482,-9.2482,-9.2482,-9.2482,-9.2522,-9.2522,-9.2522,-9.2522,-9.2522,-9.2522,-9.2522,-9.2522,-9.2522,-5.4997,-5.6528,-5.6606,-5.7074,-5.7894,-5.8753,-5.9624,-6.0334,-6.1303,-6.2134,-6.293,-6.3984,-6.4844,-6.5742,-6.7187,-6.8437,-6.9414,-7.0234,-7.1089,-7.1858,-7.2181,-7.2606,-7.326,-7.4101,-7.4954,-7.5813,-7.6477,-7.6867,-7.7101,-7.7101,-7.7726,-7.8624,-7.9717,-8.0849,-8.2176,-8.2293,-8.2293,-8.2293,-8.2293,-8.2293,-8.2293,-8.2293,-8.2293,-8.2293,-8.2293,-8.2293,-8.2293,-8.2299,-8.2305,-8.2305,-8.2305,-8.2305,-8.2299,-8.2299,-8.2299,-8.2371,-8.2371,-8.2411,-8.2528,-8.3972,-8.5026,-8.6002,-8.6236,-8.6588,-8.7134,-8.7368,-8.7407,-8.7407,-8.7407,-8.7407,-8.7407,-8.7407,-8.7407,-8.7407,-8.7407,-8.7407,-8.7407,-8.7407,-8.7407,-8.7407,-8.7407,-8.7407,-8.7407,-8.7407,-8.7407,-8.7407,-8.7407,-8.7446,-8.7525,-8.8188,-8.9164,-8.9867,-9.0726,-9.1467,-9.2053,-9.2404,-9.2482,-9.2482,-9.2482,-9.2482,-9.2482,-9.2482,-9.2482,-9.2482,-9.2482,-9.2482,-9.2482,-9.2482,-9.2482,-9.2482,-9.2482,-9.2522,-9.2482,-9.2482,-9.2482,-5.5001,-5.6606,-5.6606,-5.7074,-5.7938,-5.873,-5.9319,-5.9823,-6.1006,-6.1875,-6.2422,-6.3594,-6.4414,-6.5234,-6.6562,-6.8086,-6.9297,-6.9648,-7.0502,-7.188,-7.1971,-7.2119,-7.2695,-7.3393,-7.4173,-7.4993,-7.5774,-7.6633,-7.7101,-7.7101,-7.7609,-7.8468,-7.9678,-8.1122,-8.202,-8.2293,-8.2293,-8.2293,-8.2293,-8.2293,-8.2293,-8.2293,-8.2293,-8.2293,-8.2293,-8.2293,-8.2293,-8.2293,-8.2293,-8.2293,-8.2293,-8.2293,-8.2293,-8.2293,-8.2293,-8.2293,-8.2293,-8.2293,-8.2332,-8.3074,-8.3777,-8.4792,-8.569,-8.6041,-8.651,-8.7134,-8.729,-8.7407,-8.7401,-8.7401,-8.7407,-8.7407,-8.7407,-8.7407,-8.7407,-8.7407,-8.7407,-8.7407,-8.7407,-8.7407,-8.7407,-8.7407,-8.7407,-8.7407,-8.7407,-8.7407,-8.7407,-8.7407,-8.7486,-8.811,-8.893,-8.9477,-9.0179,-9.0999,-9.1624,-9.1819,-9.217,-9.2287,-9.2404,-9.2482,-9.2482,-9.2482,-9.2482,-9.2482,-9.2482,-9.2482,-9.2482,-9.2482,-9.2482,-9.2482,-9.2482,-9.2482,-9.2482,-9.2482,-9.2482,-5.5279,-5.6567,-5.6606,-5.7113,-5.7977,-5.8808,-5.9436,-6.0145,-6.125,-6.1719,-6.2109,-6.3515,-6.4336,-6.4844,-6.6094,-6.7539,-6.8945,-6.9375,-7.0036,-7.1495,-7.1914,-7.1993,-7.23,-7.2795,-7.353,-7.4272,-7.5215,-7.6152,-7.6588,-7.6945,-7.757,-7.8546,-7.9795,-8.0771,-8.1591,-8.202,-8.2293,-8.2293,-8.2293,-8.2293,-8.2293,-8.2293,-8.2293,-8.2293,-8.2293,-8.2293,-8.2293,-8.2293,-8.2293,-8.2293,-8.2293,-8.2293,-8.2293,-8.2293,-8.2293,-8.2293,-8.2287,-8.228,-8.2312,-8.2287,-8.3029,-8.3678,-8.47,-8.5456,-8.5963,-8.6588,-8.7056,-8.7251,-8.7362,-8.7393,-8.7393,-8.7393,-8.7386,-8.7386,-8.7386,-8.7386,-8.7386,-8.7386,-8.7401,-8.7401,-8.7401,-8.7401,-8.7401,-8.7407,-8.7407,-8.7407,-8.7407,-8.7407,-8.7401,-8.7915,-8.8501,-8.9008,-8.9477,-9.014,-9.0687,-9.1038,-9.1467,-9.1975,-9.2131,-9.2209,-9.2482,-9.2482,-9.2482,-9.2482,-9.2482,-9.2482,-9.2482,-9.2482,-9.2482,-9.2482,-9.2482,-9.2482,-9.2482,-9.2482,-9.2482,-5.5786,-5.6567,-5.6645,-5.7192,-5.8011,-5.9035,-6.0262,-6.1601,-6.168,-6.1719,-6.1836,-6.3555,-6.4297,-6.4648,-6.6133,-6.7422,-6.8242,-6.8984,-6.9883,-7.0725,-7.1451,-7.1719,-7.2171,-7.2665,-7.3111,-7.3774,-7.4679,-7.5631,-7.5904,-7.6737,-7.7564,-7.8272,-7.9131,-8.0107,-8.0888,-8.163,-8.2059,-8.2215,-8.2293,-8.2293,-8.2293,-8.2293,-8.2293,-8.2293,-8.2293,-8.2293,-8.2293,-8.2293,-8.2293,-8.2293,-8.2293,-8.2293,-8.2293,-8.2293,-8.2293,-8.2287,-8.2234,-8.2218,-8.221,-8.2195,-8.2234,-8.2764,-8.3163,-8.4349,-8.5371,-8.5988,-8.6574,-8.6995,-8.7229,-8.7299,-8.7377,-8.736,-8.7312,-8.7312,-8.7312,-8.7312,-8.7321,-8.733,-8.7338,-8.7347,-8.7393,-8.7393,-8.7393,-8.7393,-8.7393,-8.7386,-8.7386,-8.7393,-8.7393,-8.7407,-8.7954,-8.8383,-8.8813,-8.9164,-8.9672,-9.0257,-9.0687,-9.1194,-9.1546,-9.1702,-9.2053,-9.2443,-9.2482,-9.2482,-9.2482,-9.2482,-9.2482,-9.2482,-9.2482,-9.2482,-9.2482,-9.2482,-9.2482,-9.2482,-9.2482,-5.5747,-5.6645,-5.7231,-5.7972,-5.8914,-6.0344,-6.1288,-6.168,-6.1719,-6.1719,-6.1797,-6.3515,-6.4297,-6.4492,-6.6133,-6.7299,-6.7969,-6.8555,-6.9492,-7.0292,-7.1016,-7.1441,-7.1858,-7.226,-7.2665,-7.3349,-7.4264,-7.514,-7.5889,-7.6646,-7.7128,-7.757,-7.8461,-7.9287,-8.0146,-8.0966,-8.163,-8.2176,-8.2293,-8.2293,-8.2293,-8.2293,-8.2293,-8.2293,-8.2293,-8.2293,-8.2293,-8.2293,-8.2293,-8.2287,-8.2293,-8.2287,-8.2234,-8.2234,-8.2234,-8.2249,-8.2201,-8.2201,-8.2192,-8.2201,-8.2162,-8.2182,-8.2494,-8.304,-8.4191,-8.5184,-8.5964,-8.651,-8.697,-8.7078,-8.7273,-8.7302,-8.7292,-8.7281,-8.7281,-8.7292,-8.7292,-8.7302,-8.7312,-8.7321,-8.736,-8.733,-8.7369,-8.7369,-8.733,-8.736,-8.7369,-8.7377,-8.7386,-8.7393,-8.7486,-8.7954,-8.8266,-8.8618,-8.9047,-8.9555,-8.9945,-9.0374,-9.0765,-9.1233,-9.1663,-9.2014,-9.2326,-9.2482,-9.2482,-9.2482,-9.2482,-9.2482,-9.2482,-9.2482,-9.2482,-9.2482,-9.2482,-9.2482,-9.2482,-5.6059,-5.6684,-5.7465,-5.8492,-5.9756,-6.1094,-6.1719,-6.1719,-6.1719,-6.1836,-6.2344,-6.3711,-6.4491,-6.5039,-6.6266,-6.7203,-6.7617,-6.8086,-6.8886,-6.985,-7.0504,-7.1245,-7.1663,-7.194,-7.2209,-7.2862,-7.3573,-7.4333,-7.5395,-7.6466,-7.7067,-7.7192,-7.7941,-7.8806,-7.9743,-8.0641,-8.1467,-8.1975,-8.2293,-8.2293,-8.2293,-8.2293,-8.2293,-8.2293,-8.2293,-8.2287,-8.2241,-8.2241,-8.2241,-8.2273,-8.2273,-8.2265,-8.221,-8.221,-8.2201,-8.2182,-8.2143,-8.2133,-8.2162,-8.2162,-8.2162,-8.2151,-8.2167,-8.2452,-8.3137,-8.4054,-8.5078,-8.5946,-8.6434,-8.6852,-8.7086,-8.7281,-8.727,-8.727,-8.727,-8.727,-8.727,-8.727,-8.727,-8.7309,-8.732,-8.7302,-8.7302,-8.7302,-8.7302,-8.7312,-8.7312,-8.7312,-8.7369,-8.7377,-8.7393,-8.7603,-8.7837,-8.811,-8.8501,-8.8813,-8.9047,-8.9516,-9.0179,-9.0648,-9.1155,-9.178,-9.2287,-9.2443,-9.2482,-9.2443,-9.2319,-9.2482,-9.2482,-9.2482,-9.2522,-9.2482,-9.2482,-9.2482,-9.2482,-5.6567,-5.6801,-5.7621,-5.9048,-6.0508,-6.1367,-6.1719,-6.1719,-6.1836,-6.2226,-6.3047,-6.3906,-6.476,-6.5492,-6.6453,-6.6878,-6.7238,-6.7629,-6.8444,-6.9411,-7.0074,-7.085,-7.1643,-7.1915,-7.2033,-7.2217,-7.2841,-7.3953,-7.486,-7.6049,-7.7043,-7.7043,-7.7675,-7.8503,-7.9338,-8.0197,-8.1016,-8.1773,-8.2131,-8.2293,-8.2293,-8.2293,-8.2293,-8.2287,-8.2287,-8.228,-8.2226,-8.2179,-8.2179,-8.2201,-8.2192,-8.2192,-8.2192,-8.2182,-8.2172,-8.2123,-8.2112,-8.2101,-8.2128,-8.2128,-8.2116,-8.2116,-8.2104,-8.2194,-8.2686,-8.3399,-8.4423,-8.5086,-8.5543,-8.6245,-8.6596,-8.6779,-8.6845,-8.7079,-8.7234,-8.7234,-8.7234,-8.7234,-8.7234,-8.7286,-8.7259,-8.727,-8.727,-8.727,-8.727,-8.7281,-8.7281,-8.7281,-8.7302,-8.736,-8.7377,-8.7393,-8.7557,-8.7752,-8.7759,-8.7993,-8.8071,-8.8579,-8.9398,-9.0133,-9.068,-9.1421,-9.228,-9.196,-9.1562,-9.1999,-9.2116,-9.2116,-9.2233,-9.2514,-9.2514,-9.2522,-9.2522,-9.2522,-9.2482,-5.6879,-5.766,-5.9143,-6.0409,-6.1362,-6.1601,-6.1719,-6.1797,-6.2422,-6.2812,-6.3164,-6.3935,-6.4831,-6.5734,-6.6457,-6.6834,-6.6951,-6.7185,-6.8066,-6.8919,-6.9667,-7.0558,-7.1636,-7.1819,-7.1866,-7.2089,-7.2763,-7.3815,-7.5073,-7.6225,-7.6985,-7.7004,-7.7394,-7.7901,-7.8768,-7.9587,-8.0337,-8.1204,-8.1812,-8.2092,-8.217,-8.2248,-8.2287,-8.2241,-8.2234,-8.2218,-8.2171,-8.2201,-8.2201,-8.2192,-8.2192,-8.2182,-8.2123,-8.214,-8.2128,-8.2077,-8.2077,-8.2077,-8.2116,-8.2104,-8.2104,-8.2104,-8.2104,-8.2104,-8.2389,-8.3025,-8.3609,-8.4116,-8.4701,-8.5441,-8.6092,-8.6325,-8.6585,-8.6897,-8.7209,-8.7209,-8.7209,-8.7209,-8.7209,-8.7222,-8.7222,-8.7234,-8.7234,-8.7234,-8.7234,-8.7234,-8.7234,-8.7234,-8.7259,-8.732,-8.7351,-8.7369,-8.7377,-8.7464,-8.7393,-8.744,-8.7627,-8.794,-8.865,-8.9384,-9.0157,-9.082,-9.1436,-9.0803,-9.0481,-9.0998,-9.1427,-9.1496,-9.1652,-9.21,-9.2498,-9.2498,-9.2514,-9.2514,-9.2522,-5.6996,-5.8011,-5.969,-6.0909,-6.1623,-6.1717,-6.1719,-6.1875,-6.2617,-6.3241,-6.3664,-6.4505,-6.5325,-6.6047,-6.6609,-6.6795,-6.6795,-6.6795,-6.7624,-6.85,-6.935,-7.0138,-7.0931,-7.1682,-7.1827,-7.2011,-7.2752,-7.3843,-7.5129,-7.5959,-7.6448,-7.6897,-7.7053,-7.7443,-7.8233,-7.8896,-7.9491,-8.0337,-8.1172,-8.1609,-8.1765,-8.1961,-8.2195,-8.2218,-8.2171,-8.2201,-8.2143,-8.2133,-8.2123,-8.2162,-8.2151,-8.2112,-8.2089,-8.2116,-8.2116,-8.2104,-8.2104,-8.2104,-8.2104,-8.2104,-8.2104,-8.2104,-8.2104,-8.2104,-8.2104,-8.2701,-8.3052,-8.3558,-8.3831,-8.4494,-8.5702,-8.6157,-8.6585,-8.6975,-8.7131,-8.7209,-8.7209,-8.7209,-8.7209,-8.7209,-8.7222,-8.7222,-8.7222,-8.7222,-8.7222,-8.7222,-8.7209,-8.7209,-8.7234,-8.7286,-8.7309,-8.7331,-8.7351,-8.736,-8.7369,-8.733,-8.7369,-8.7729,-8.8049,-8.8938,-8.9779,-9.0238,-9.0423,-8.9954,-8.9798,-9.016,-9.0501,-9.0685,-9.1164,-9.1613,-9.2081,-9.252,-9.249,-9.242,-9.2498,-5.7074,-5.8128,-5.9846,-6.1017,-6.1647,-6.1715,-6.1797,-6.2031,-6.2812,-6.3664,-6.4505,-6.5355,-6.617,-6.66,-6.6795,-6.6795,-6.6795,-6.6823,-6.7407,-6.8183,-6.8982,-6.9899,-7.0727,-7.1409,-7.1672,-7.2089,-7.2752,-7.357,-7.4572,-7.5441,-7.6231,-7.6843,-7.7155,-7.7401,-7.793,-7.8369,-7.8808,-7.9491,-8.0163,-8.0631,-8.1109,-8.1663,-8.2045,-8.2192,-8.2182,-8.2172,-8.2112,-8.2101,-8.2089,-8.2089,-8.2116,-8.2116,-8.2077,-8.2104,-8.2104,-8.2104,-8.2104,-8.2104,-8.2104,-8.2104,-8.2104,-8.2104,-8.2104,-8.2104,-8.2104,-8.2299,-8.265,-8.2883,-8.3156,-8.378,-8.4949,-8.5845,-8.6312,-8.6858,-8.6975,-8.7131,-8.717,-8.717,-8.7209,-8.7209,-8.7209,-8.7209,-8.7209,-8.7209,-8.7209,-8.7209,-8.7209,-8.7209,-8.7209,-8.7222,-8.7286,-8.7259,-8.727,-8.7281,-8.7302,-8.7302,-8.7312,-8.7429,-8.7828,-8.8677,-8.932,-8.9504,-8.9532,-8.9348,-8.9309,-8.9348,-8.9699,-8.9961,-9.0518,-9.0958,-9.1554,-9.1983,-9.2149,-9.2159,-9.2422,-5.7426,-5.8987,-6.0744,-6.1564,-6.169,-6.1715,-6.2109,-6.2812,-6.3657,-6.4544,-6.5329,-6.6141,-6.6717,-6.6795,-6.6795,-6.6795,-6.6795,-6.6817,-6.7321,-6.8086,-6.8738,-6.9684,-7.058,-7.1321,-7.17,-7.2089,-7.2635,-7.3531,-7.4299,-7.5246,-7.6142,-7.6921,-7.6999,-7.7116,-7.7272,-7.7751,-7.8308,-7.8798,-7.9266,-7.9822,-8.0279,-8.0953,-8.1987,-8.2133,-8.2123,-8.2101,-8.2089,-8.2077,-8.2116,-8.2104,-8.2104,-8.2104,-8.2104,-8.2104,-8.2104,-8.2104,-8.2104,-8.2104,-8.2104,-8.2104,-8.2104,-8.2104,-8.2104,-8.2104,-8.2104,-8.2104,-8.2338,-8.2338,-8.2611,-8.2961,-8.3935,-8.4676,-8.526,-8.6079,-8.6507,-8.6858,-8.7053,-8.7131,-8.7209,-8.7209,-8.7209,-8.7209,-8.7209,-8.7209,-8.7209,-8.7209,-8.7209,-8.7209,-8.7209,-8.7209,-8.7209,-8.7222,-8.7234,-8.7259,-8.7292,-8.7292,-8.7292,-8.737,-8.7487,-8.7983,-8.835,-8.8482,-8.8482,-8.8416,-8.8221,-8.8092,-8.8521,-8.9196,-8.9559,-9.0066,-9.0819,-9.1325,-9.1543,-9.1816,-9.2039]}]]